Date StartTime U_cm/s V_cm/s W_cm/s Ustd_cm/s Vstd_cm/s Wstd_cm/s Uvar_(cm/s)^2 Vvar_(cm/s)^2 Wvar_(cm/s)^2 KE_(m/s)^2 TurbulentKE_(m/s)^2 HorizWindSpeed_cm/s FrictionSpeec_cm/s DragCoef SpeedOfSound_m/s SonicTemperature_C Pressure_mb 
06/07/2014  00:00:00      -85.846      -68.559        3.923       61.533       43.870       31.919     3786.331     1924.616     1018.836        0.941        0.336      109.863       37.031        0.114      345.850       23.676      858.198
06/07/2014  00:01:00     -108.700      -90.537       16.128       74.453       47.928       37.752     5543.301     2297.135     1425.220        1.477        0.463      141.466       40.947        0.084      345.893       23.750      858.181
06/07/2014  00:02:00     -152.376     -106.181       -0.566       91.289       61.286       43.114     8333.685     3755.981     1858.801        2.422        0.697      185.722       41.945        0.051      345.996       23.924      858.192
06/07/2014  00:03:00     -143.445     -104.593        3.501       88.978       53.736       43.136     7917.091     2887.557     1860.737        2.209        0.633      177.528       36.758        0.043      345.957       23.857      858.205
06/07/2014  00:04:00     -138.296     -116.977       -1.275       81.953       56.416       40.030     6716.326     3182.715     1602.387        2.215        0.575      181.134       38.047        0.044      345.908       23.773      858.202
06/07/2014  00:05:00     -170.162      -89.256        1.686       85.204       63.348       38.554     7259.716     4013.023     1486.439        2.484        0.638      192.150       32.269        0.028      345.925       23.803      858.202
06/07/2014  00:06:00     -142.287      -93.944        3.170       68.476       56.672       32.391     4688.965     3211.685     1049.174        1.901        0.447      170.503       30.539        0.032      345.979       23.895      858.216
06/07/2014  00:07:00     -136.600      -79.230        2.239       91.321       47.761       39.777     8339.553     2281.147     1582.217        1.857        0.610      157.914       42.523        0.073      345.906       23.769      858.246
06/07/2014  00:08:00     -130.973      -64.507       -0.902       60.601       65.889       35.801     3672.511     4341.323     1281.683        1.530        0.465      145.996       33.467        0.053      345.888       23.741      858.254
06/07/2014  00:09:00     -122.690      -87.263        8.045       51.981       53.138       30.028     2701.984     2823.642      901.709        1.458        0.321      150.558       27.938        0.034      345.884       23.734      858.260
06/07/2014  00:10:00      -93.673      -53.764        1.949       63.318       49.760       26.433     4009.110     2476.090      698.700        0.943        0.359      108.005       30.572        0.080      345.818       23.620      858.265
06/07/2014  00:11:00      -75.942      -29.007        5.898       49.545       42.242       32.632     2454.691     1784.380     1064.872        0.597        0.265       81.294       31.045        0.146      345.827       23.636      858.292
06/07/2014  00:12:00      -40.781      -11.099       -0.239       34.139       29.352       18.423     1165.488      861.557      339.414        0.208        0.118       42.264       19.452        0.212      345.816       23.617      858.308
06/07/2014  00:13:00      -80.154      -13.860       -4.227       35.198       32.687       27.157     1238.896     1068.420      737.486        0.484        0.152       81.343       26.687        0.108      345.854       23.682      858.323
06/07/2014  00:14:00      -71.980      -18.234        1.958       45.825       35.268       22.814     2099.954     1243.852      520.472        0.469        0.193       74.254       23.715        0.102      345.852       23.679      858.327
06/07/2014  00:15:00      -76.814      -36.810       -3.362       44.005       31.005       19.484     1936.443      961.295      379.619        0.527        0.164       85.179       17.985        0.045      345.877       23.721      858.330
06/07/2014  00:16:00     -140.383      -68.678      -16.158       35.032       36.414       24.232     1227.250     1325.962      587.208        1.391        0.157      156.282       22.420        0.021      345.964       23.869      858.339
06/07/2014  00:17:00      -77.055      -44.954        6.201       56.195       24.284       26.933     3157.888      589.706      725.399        0.623        0.224       89.209       32.720        0.135      345.801       23.592      858.348
06/07/2014  00:18:00      -45.400      -38.151        8.159       49.839       38.186       25.845     2483.898     1458.154      667.961        0.410        0.231       59.301       27.893        0.221      345.798       23.587      858.342
06/07/2014  00:19:00     -142.528      -56.237       -8.707       38.990       32.556       19.887     1520.212     1059.867      395.504        1.326        0.149      153.221       19.105        0.016      345.959       23.863      858.348
06/07/2014  00:20:00      -98.630      -25.627       -2.255       37.527       33.859       16.658     1408.273     1146.434      277.477        0.661        0.142      101.905       15.001        0.022      345.816       23.617      858.346
06/07/2014  00:21:00      -66.277      -33.691        4.433       37.501       40.807       23.703     1406.338     1665.232      561.837        0.459        0.182       74.348       23.958        0.104      345.799       23.589      858.356
06/07/2014  00:22:00      -65.333      -29.952        7.160       54.618       32.707       18.347     2983.112     1069.761      336.620        0.480        0.219       71.872       26.090        0.132      345.739       23.485      858.361
06/07/2014  00:23:00      -65.988      -20.032        2.296       45.876       33.423       20.218     2104.644     1117.072      408.769        0.419        0.182       68.961       18.478        0.072      345.721       23.454      858.368
06/07/2014  00:24:00     -105.286      -35.980       -1.583       37.012       38.386       23.877     1369.909     1473.470      570.127        0.790        0.171      111.264       20.052        0.032      345.840       23.660      858.384
06/07/2014  00:25:00      -59.480       11.417       -4.160       11.961       15.557        7.698      143.075      242.010       59.256        0.206        0.022       60.566        1.489        0.001      345.770       23.538      858.398
06/07/2014  00:26:00      -50.916       11.287       -3.172       18.261       20.488       12.412      333.457      419.759      154.067        0.182        0.045       52.152        8.425        0.026      345.790       23.572      858.414
06/07/2014  00:27:00      -57.250       -6.226       -7.587       12.314       22.263       10.073      151.643      495.631      101.469        0.206        0.037       57.587        9.001        0.024      345.791       23.575      858.411
06/07/2014  00:28:00      -82.075      -28.934       -2.828       16.656       14.440       10.878      277.422      208.527      118.327        0.409        0.030       87.026        4.962        0.003      345.780       23.557      858.419
06/07/2014  00:29:00      -77.010      -35.358       -1.634       24.212       13.288        9.930      586.217      176.575       98.599        0.402        0.043       84.739        9.892        0.014      345.725       23.460      858.426
06/07/2014  00:30:00      -70.464      -39.446       -4.581       15.441       13.809       10.146      238.435      190.678      102.937        0.354        0.027       80.754        7.475        0.009      345.731       23.470      858.427
06/07/2014  00:31:00      -37.560      -36.706       -0.802       29.191        9.703       10.188      852.139       94.154      103.801        0.190        0.053       52.517        4.850        0.009      345.710       23.436      858.421
06/07/2014  00:32:00      -22.969      -18.263       -0.319       15.776       14.469       10.949      248.873      209.338      119.870        0.072        0.029       29.345        4.902        0.028      345.910       23.779      858.427
06/07/2014  00:33:00      -72.302      -36.775       -5.059       33.445       32.615       18.691     1118.553     1063.769      349.340        0.457        0.127       81.117       16.245        0.040      345.762       23.525      858.442
06/07/2014  00:34:00      -55.581      -12.356       -1.708       24.538       19.363       10.211      602.126      374.914      104.268        0.216        0.054       56.938        7.978        0.020      345.502       23.077      858.468
06/07/2014  00:35:00      -68.925       10.926       -7.990       17.919       24.898       13.347      321.079      619.896      178.154        0.303        0.056       69.785       11.137        0.025      345.851       23.678      858.480
06/07/2014  00:36:00      -35.718        6.347       -4.496       18.978       13.103       10.135      360.182      171.685      102.723        0.099        0.032       36.278       12.353        0.116      345.829       23.638      858.491
06/07/2014  00:37:00      -22.245       32.539       -1.868       22.837       25.194       10.045      521.514      634.743      100.908        0.141        0.063       39.416        5.799        0.022      345.719       23.451      858.510
06/07/2014  00:38:00       45.784      105.900      -15.930       20.326       44.626       15.685      413.134     1991.521      246.005        0.811        0.133      115.373       20.953        0.033      345.563       23.182      858.538
06/07/2014  00:39:00        9.886      218.245      -24.505       68.300       82.980       43.785     4664.921     6885.630     1917.165        3.090        0.673      218.468       37.506        0.029      345.534       23.130      858.526
06/07/2014  00:40:00      -78.139      118.413      -20.813       84.017       71.167       40.245     7058.936     5064.720     1619.635        1.715        0.687      141.871       23.988        0.029      345.441       22.972      858.531
06/07/2014  00:41:00     -102.511      105.234      -16.112       44.877       50.543       30.497     2013.949     2554.635      930.096        1.367        0.275      146.911       22.471        0.023      345.470       23.023      858.517
06/07/2014  00:42:00     -110.817       98.937      -26.262       55.031       74.140       26.984     3028.461     5496.769      728.162        1.600        0.463      148.557       35.040        0.056      345.466       23.015      858.538
06/07/2014  00:43:00      -81.460        7.976       -5.545       51.950       48.363       31.901     2698.804     2338.962     1017.681        0.639        0.303       81.849       33.631        0.169      345.339       22.798      858.555
06/07/2014  00:44:00     -136.474      129.769      -28.415       45.417       84.887       36.808     2062.700     7205.736     1354.847        2.345        0.531      188.322       40.315        0.046      345.507       23.085      858.555
06/07/2014  00:45:00      -71.171       46.989      -10.093       47.491       44.670       26.761     2255.392     1995.378      716.128        0.617        0.248       85.283       23.711        0.077      345.363       22.840      858.556
06/07/2014  00:46:00     -125.294      100.292      -14.313       63.773       58.970       36.559     4067.015     3477.514     1336.542        1.742        0.444      160.490       40.972        0.065      345.391       22.886      858.574
06/07/2014  00:47:00     -129.667      107.534      -16.652       73.669       82.778       42.987     5427.109     6852.150     1847.867        2.139        0.706      168.455       46.853        0.077      345.250       22.644      858.571
06/07/2014  00:48:00     -179.881      203.104      -45.099       87.102       94.346       45.852     7586.778     8901.187     2102.410        4.711        0.930      271.309       57.251        0.045      345.307       22.741      858.568
06/07/2014  00:49:00     -224.008      198.677      -38.520       81.348       88.040       51.133     6617.507     7751.112     2614.543        5.406        0.849      299.420       39.512        0.017      345.318       22.757      858.572
06/07/2014  00:50:00     -176.965      239.056      -46.819       63.283       79.457       53.877     4004.769     6313.403     2902.770        5.194        0.661      297.430       43.697        0.022      345.275       22.685      858.586
06/07/2014  00:51:00     -134.319      119.140      -21.413       49.886       58.510       41.455     2488.612     3423.402     1718.483        2.016        0.382      179.544       33.715        0.035      345.178       22.522      858.591
06/07/2014  00:52:00     -147.805      186.412      -31.303       64.418       80.051       44.529     4149.666     6408.093     1982.818        3.506        0.627      237.898       37.044        0.024      345.221       22.594      858.596
06/07/2014  00:53:00     -151.454      207.352      -27.203       77.980       99.331       44.483     6080.803     9866.668     1978.717        4.230        0.896      256.775       39.164        0.023      345.198       22.554      858.610
06/07/2014  00:54:00     -172.445      196.877      -34.864      103.116      116.997       60.291    10632.950    13688.285     3635.048        4.883        1.398      261.721       64.747        0.061      345.199       22.555      858.626
06/07/2014  00:55:00     -114.089      136.276      -26.684       60.835       66.412       40.629     3700.949     4410.589     1650.680        2.103        0.488      177.729       35.852        0.041      345.155       22.481      858.626
06/07/2014  00:56:00     -114.155      101.231      -17.807       67.382       58.916       38.088     4540.288     3471.098     1450.674        1.653        0.473      152.574       25.191        0.027      345.156       22.485      858.645
06/07/2014  00:57:00     -111.292      156.547      -18.510       82.419       97.923       49.197     6792.875     9589.008     2420.360        2.802        0.940      192.075       43.990        0.052      345.146       22.468      858.662
06/07/2014  00:58:00     -109.473       90.118      -29.164       87.743       65.901       39.297     7698.778     4342.982     1544.237        1.727        0.679      141.794       49.308        0.121      345.117       22.417      858.674
06/07/2014  00:59:00     -100.360      117.461      -22.911       54.570       47.737       34.040     2977.935     2278.867     1158.748        1.540        0.321      154.497       33.810        0.048      345.099       22.388      858.685
06/07/2014  01:00:00     -109.651      135.173      -22.025       78.260       53.192       36.281     6124.593     2829.349     1316.345        2.052        0.514      174.055       26.311        0.023      345.093       22.376      858.701
06/07/2014  01:01:00     -137.657      133.033      -22.688       68.102       61.913       38.362     4637.935     3833.271     1471.668        2.355        0.497      191.435       41.630        0.047      345.129       22.436      858.717
06/07/2014  01:02:00     -143.785       95.408      -32.381       47.746       58.185       28.709     2279.650     3385.483      824.198        1.866        0.324      172.560       31.311        0.033      345.129       22.439      858.724
06/07/2014  01:03:00     -161.588      159.634      -36.478       55.213       83.595       35.775     3048.434     6988.135     1279.851        3.212        0.566      227.143       42.604        0.035      345.127       22.433      858.747
06/07/2014  01:04:00     -159.912      137.204      -31.643       77.375       56.264       45.899     5986.839     3165.658     2106.714        2.833        0.563      210.705       39.291        0.035      345.134       22.445      858.754
06/07/2014  01:05:00     -105.158      164.980      -26.326       72.094       84.109       41.253     5197.601     7074.301     1701.790        2.647        0.699      195.644       45.536        0.054      345.088       22.367      858.757
06/07/2014  01:06:00     -139.526      166.182      -39.382       60.854       53.965       35.326     3703.164     2912.270     1247.927        2.825        0.393      216.988       32.075        0.022      345.125       22.428      858.758
06/07/2014  01:07:00     -125.171      160.440      -28.192       75.974       85.578       38.669     5772.008     7323.579     1495.293        2.839        0.730      203.491       34.059        0.028      345.111       22.405      858.779
06/07/2014  01:08:00     -149.620      193.675      -43.449       64.478      103.778       38.383     4157.370    10769.950     1473.285        3.909        0.820      244.737       44.093        0.032      345.136       22.447      858.800
06/07/2014  01:09:00     -178.033      247.204      -35.046       77.493       84.220       71.260     6005.192     7092.949     5078.041        5.610        0.909      304.640       52.789        0.030      345.153       22.477      858.796
06/07/2014  01:10:00     -126.206      205.214      -33.937       82.302      114.305       52.394     6773.676    13065.529     2745.093        4.088        1.129      240.916       55.457        0.053      345.147       22.466      858.800
06/07/2014  01:11:00     -123.492      218.180      -36.707       72.198       76.011       43.910     5212.560     5777.689     1928.130        3.856        0.646      250.705       39.424        0.025      345.160       22.486      858.778
06/07/2014  01:12:00      -96.608      140.697      -14.820       51.561       94.805       38.731     2658.498     8987.920     1500.059        2.124        0.657      170.671       24.224        0.020      345.146       22.468      858.767
06/07/2014  01:13:00     -128.865      130.627      -30.121       65.462       70.719       43.463     4285.324     5001.111     1889.051        2.287        0.559      183.493       42.365        0.053      345.107       22.399      858.769
06/07/2014  01:14:00     -128.894      197.184      -27.501       89.271      118.292       44.966     7969.255    13992.896     2021.941        4.011        1.199      235.574       51.661        0.048      345.006       22.227      858.782
06/07/2014  01:15:00     -150.733      135.165      -38.942       69.530       79.101       44.615     4834.462     6256.900     1990.517        2.779        0.654      202.460       43.324        0.046      344.952       22.133      858.784
06/07/2014  01:16:00     -223.134      210.486      -45.642      102.120       99.093       58.776    10428.575     9819.474     3454.610        5.993        1.185      306.746       60.315        0.039      344.912       22.064      858.802
06/07/2014  01:17:00     -174.941      169.774      -43.748       66.089       64.423       44.137     4367.716     4150.375     1948.086        3.590        0.523      243.778       36.029        0.022      344.950       22.130      858.803
06/07/2014  01:18:00     -153.246      182.440      -35.376       83.140       84.431       47.340     6912.317     7128.624     2241.046        3.715        0.814      238.262       50.666        0.045      344.969       22.163      858.815
06/07/2014  01:19:00     -127.697      115.057      -16.501       83.657       78.587       51.795     6998.492     6175.919     2682.745        2.283        0.793      171.885       46.010        0.072      344.935       22.106      858.804
06/07/2014  01:20:00     -130.335      136.409      -24.620       65.980       71.340       40.399     4353.359     5089.376     1632.105        2.364        0.554      188.665       27.065        0.021      344.933       22.101      858.801
06/07/2014  01:21:00     -191.528      151.692      -32.788       86.872       79.970       47.219     7546.769     6395.236     2229.592        3.847        0.809      244.323       52.344        0.046      344.909       22.059      858.805
06/07/2014  01:22:00     -128.336      167.520      -38.349       62.247       80.528       42.275     3874.682     6484.709     1787.138        2.907        0.607      211.029       39.751        0.035      344.878       22.006      858.802
06/07/2014  01:23:00     -181.048      200.214      -34.320       71.074       92.214       43.618     5051.518     8503.493     1902.521        4.475        0.773      269.933       38.028        0.020      344.919       22.075      858.818
06/07/2014  01:24:00     -135.105      205.539      -27.738       58.329       83.555       47.713     3402.226     6981.394     2276.559        3.696        0.633      245.967       33.372        0.018      344.911       22.062      858.833
06/07/2014  01:25:00     -121.527      185.916      -22.864       62.609       80.907       41.320     3919.902     6545.982     1707.353        3.101        0.609      222.112       32.504        0.021      344.881       22.010      858.844
06/07/2014  01:26:00     -111.122      154.212      -20.677       68.542       67.013       40.388     4698.044     4490.709     1631.198        2.369        0.541      190.078       35.941        0.036      344.907       22.057      858.861
06/07/2014  01:27:00     -123.877      166.782      -35.895       71.298      107.573       45.715     5083.403    11571.971     2089.833        3.159        0.937      207.754       55.088        0.070      344.943       22.118      858.859
06/07/2014  01:28:00     -120.063      170.485      -32.070       61.545       68.466       43.736     3787.821     4687.652     1912.844        2.745        0.519      208.519       39.267        0.035      344.936       22.107      858.856
06/07/2014  01:29:00     -128.358      175.949      -31.825       59.838       80.643       41.809     3580.572     6503.259     1747.974        3.014        0.592      217.793       45.142        0.043      344.993       22.204      858.868
06/07/2014  01:30:00     -133.365      192.255      -37.660       55.439       92.437       35.798     3073.479     8544.629     1281.504        3.453        0.645      233.983       36.223        0.024      344.975       22.173      858.864
06/07/2014  01:31:00     -142.655      140.439      -19.181       82.149      104.728       48.730     6748.485    10967.969     2374.568        3.026        1.005      200.184       58.746        0.086      344.972       22.168      858.855
06/07/2014  01:32:00     -138.468      149.368      -19.574       64.421       91.530       48.533     4150.007     8377.685     2355.410        2.837        0.744      203.677       45.563        0.050      345.028       22.264      858.856
06/07/2014  01:33:00     -149.384      182.153      -25.316       82.637      133.978       47.632     6828.831    17950.228     2268.849        4.159        1.352      235.574       47.361        0.040      345.071       22.337      858.843
06/07/2014  01:34:00     -189.928      152.039      -29.469       73.476       85.748       44.949     5398.784     7352.665     2020.447        3.741        0.739      243.287       43.838        0.032      345.024       22.256      858.821
06/07/2014  01:35:00     -141.288       82.963      -16.565       52.724       61.854       31.376     2779.848     3825.877      984.473        1.735        0.380      163.844       27.026        0.027      344.929       22.096      858.810
06/07/2014  01:36:00     -188.340       98.479      -26.866       50.643       47.515       45.931     2564.729     2257.669     2109.632        2.641        0.347      212.532       28.854        0.018      345.013       22.238      858.816
06/07/2014  01:37:00     -108.665       85.012       -3.069       60.021       74.376       39.678     3602.530     5531.728     1574.330        1.487        0.535      137.968       34.129        0.061      344.967       22.163      858.802
06/07/2014  01:38:00     -142.369      149.211      -21.886       65.561       97.865       42.922     4298.292     9577.583     1842.266        2.936        0.786      206.235       43.060        0.044      345.056       22.313      858.796
06/07/2014  01:39:00     -103.359      116.824      -22.718       52.175       76.878       32.081     2722.224     5910.156     1029.194        1.725        0.483      155.984       32.052        0.042      344.988       22.196      858.807
06/07/2014  01:40:00     -117.661      111.716      -20.572       64.318       81.438       40.489     4136.786     6632.193     1639.388        1.958        0.620      162.248       33.468        0.043      345.015       22.243      858.825
06/07/2014  01:41:00     -104.437      116.094      -16.999       60.949       66.412       36.347     3714.767     4410.585     1321.100        1.706        0.472      156.156       37.448        0.058      345.036       22.278      858.835
06/07/2014  01:42:00     -130.817      112.618      -38.684       63.880       52.129       40.505     4080.606     2717.441     1640.670        1.986        0.422      172.615       45.692        0.070      345.039       22.284      858.849
06/07/2014  01:43:00     -181.005      138.477      -29.411       79.136       71.385       43.133     6262.516     5095.831     1860.429        3.301        0.661      227.901       44.648        0.038      345.099       22.386      858.894
06/07/2014  01:44:00      -93.169      115.122      -18.438       44.679       62.927       34.253     1996.244     3959.777     1173.301        1.470        0.356      148.100       34.826        0.055      345.086       22.364      858.908
06/07/2014  01:45:00      -86.691       55.803       -7.203       38.268       38.787       22.438     1464.406     1504.452      503.453        0.708        0.174      103.099       21.717        0.044      345.010       22.235      858.907
06/07/2014  01:46:00     -122.813       55.335      -11.479       53.343       41.632       28.831     2845.439     1733.227      831.227        1.184        0.270      134.703       28.887        0.046      345.058       22.317      858.915
06/07/2014  01:47:00     -131.143       40.281      -20.013       46.232       38.761       23.164     2137.411     1502.448      536.566        1.170        0.209      137.190       22.644        0.027      345.116       22.418      858.922
06/07/2014  01:48:00     -117.994       38.485      -22.927       47.311       62.028       26.068     2238.357     3847.450      679.531        1.135        0.338      124.112       25.892        0.044      345.024       22.259      858.939
06/07/2014  01:49:00      -69.775      -15.607       -7.572       27.633       28.504       14.084      763.587      812.469      198.370        0.347        0.089       71.499       12.190        0.029      344.882       22.017      858.947
06/07/2014  01:50:00      -20.541      -26.547        1.934       48.244       26.233       15.760     2327.493      688.182      248.375        0.220        0.163       33.566       20.995        0.391      344.758       21.804      858.947
06/07/2014  01:51:00      -66.175      -47.616        5.547       66.766       34.698       23.734     4457.638     1203.952      563.281        0.645        0.311       81.526       31.658        0.151      344.648       21.614      858.954
06/07/2014  01:52:00      -21.108      -27.925       21.174       48.676       49.134       35.133     2369.361     2414.128     1234.310        0.384        0.301       35.005       21.561        0.379      344.531       21.416      858.969
06/07/2014  01:53:00     -120.597      -63.420       -7.022       56.689       36.126       25.139     3213.673     1305.115      631.973        1.188        0.258      136.256       27.387        0.040      344.540       21.430      858.967
06/07/2014  01:54:00     -103.143      -39.504       -6.796       36.587       22.335       16.360     1338.617      498.833      267.643        0.717        0.105      110.450       17.241        0.024      344.563       21.471      858.973
06/07/2014  01:55:00      -95.447      -53.651      -10.623       43.454       32.546       21.016     1888.254     1059.264      441.668        0.774        0.169      109.492       22.170        0.041      344.553       21.453      858.981
06/07/2014  01:56:00      -56.571      -15.249        6.355       83.775       43.559       28.765     7018.274     1897.354      827.419        0.661        0.487       58.590       29.949        0.261      344.520       21.397      858.989
06/07/2014  01:57:00     -121.883      -97.372        7.195       66.383       60.135       31.330     4406.657     3616.200      981.545        1.669        0.450      156.002       28.776        0.034      344.594       21.523      858.984
06/07/2014  01:58:00      -71.843      -47.847        0.239       58.842       57.036       26.399     3462.366     3253.112      696.884        0.743        0.371       86.318       21.031        0.059      344.530       21.414      858.984
06/07/2014  01:59:00     -113.397      -45.689       -8.860       43.530       40.922       17.792     1894.820     1674.632      316.552        0.945        0.194      122.256       16.395        0.018      344.764       21.814      858.987
06/07/2014  02:00:00      -71.466       -0.474      -16.261       25.670       19.599       14.501      658.961      384.135      210.292        0.331        0.063       71.467        7.985        0.012      344.661       21.637      859.007
06/07/2014  02:01:00      -31.855      -36.228       -0.831       19.590       21.773       13.926      383.786      474.053      193.925        0.169        0.053       48.242        7.720        0.026      344.581       21.501      859.008
06/07/2014  02:02:00      -76.943      -22.642       -6.017       42.127       24.184       17.218     1774.684      584.884      296.465        0.456        0.133       80.205       19.136        0.057      344.534       21.422      859.019
06/07/2014  02:03:00      -95.023      -48.813       -7.582       17.391       15.296       13.269      302.443      233.954      176.077        0.609        0.036      106.828        9.293        0.008      344.608       21.548      859.022
06/07/2014  02:04:00      -73.618      -60.634       -0.499       31.781       35.170       21.228     1010.025     1236.915      450.608        0.590        0.135       95.374       22.193        0.054      344.511       21.382      859.017
06/07/2014  02:05:00      -83.435      -73.607        0.225       52.507       40.251       25.694     2756.974     1620.156      660.166        0.871        0.252      111.263       22.274        0.040      344.498       21.359      859.016
06/07/2014  02:06:00      -53.662      -50.399       13.905       45.382       39.051       23.781     2059.528     1524.956      565.522        0.488        0.208       73.619       19.802        0.072      344.436       21.255      859.039
06/07/2014  02:07:00      -86.909      -71.984        1.339       57.621       55.291       35.857     3320.127     3057.086     1285.694        1.020        0.383      112.849       35.320        0.098      344.463       21.299      859.040
06/07/2014  02:08:00     -113.344      -89.334        2.147       49.813       40.497       33.020     2481.334     1640.020     1090.338        1.302        0.261      144.317       25.067        0.030      344.594       21.525      859.050
06/07/2014  02:09:00      -29.437      -26.260       11.223       56.878       38.231       31.007     3235.129     1461.572      961.420        0.367        0.283       39.448       35.171        0.795      344.521       21.399      859.056
06/07/2014  02:10:00     -102.554      -79.902        3.032       59.230       45.874       27.836     3508.231     2104.468      774.846        1.165        0.319      130.006       25.847        0.040      344.679       21.668      859.070
06/07/2014  02:11:00      -33.912      -62.574       11.859       71.920       37.564       30.879     5172.479     1411.059      953.518        0.637        0.377       71.172       34.782        0.239      344.639       21.600      859.063
06/07/2014  02:12:00      -53.157      -71.640        4.035       57.810       37.524       28.428     3342.048     1408.059      808.140        0.677        0.278       89.207       15.146        0.029      344.568       21.480      859.072
06/07/2014  02:13:00      -83.998      -28.572       -1.055       62.744       27.539       22.291     3936.823      758.373      496.900        0.653        0.260       88.725       16.232        0.033      344.534       21.421      859.081
06/07/2014  02:14:00      -46.624      -66.280       10.908       61.030       61.971       28.044     3724.681     3840.419      786.483        0.752        0.418       81.036       29.389        0.132      344.423       21.232      859.092
06/07/2014  02:15:00      -57.380      -68.155        9.016       54.630       43.199       33.300     2984.433     1866.163     1108.862        0.699        0.298       89.093       30.513        0.117      344.345       21.099      859.103
06/07/2014  02:16:00      -76.912     -102.053        3.106       52.552       54.916       32.213     2761.691     3015.750     1037.663        1.158        0.341      127.790       23.462        0.034      344.435       21.252      859.111
06/07/2014  02:17:00     -135.609     -110.825        0.285       67.266       43.949       35.655     4524.765     1931.549     1271.251        1.920        0.386      175.134       28.606        0.027      344.594       21.521      859.115
06/07/2014  02:18:00      -85.365      -67.135       12.606       60.311       47.828       33.609     3637.439     2287.561     1129.583        0.950        0.353      108.602       33.899        0.097      344.597       21.528      859.135
06/07/2014  02:19:00      -70.486      -67.650        8.154       56.440       44.426       31.118     3185.503     1973.626      968.302        0.787        0.306       97.697       32.129        0.108      344.653       21.624      859.150
06/07/2014  02:20:00      -73.946      -61.328        1.775       53.290       45.902       26.638     2839.775     2107.029      709.580        0.744        0.283       96.068       29.618        0.095      344.796       21.868      859.156
06/07/2014  02:21:00      -76.153       -3.631      -17.080       40.112       36.563       15.419     1608.998     1336.872      237.743        0.464        0.159       76.239        7.821        0.011      344.914       22.071      859.179
06/07/2014  02:22:00      -42.686       -3.828      -11.830       26.604       35.256       14.605      707.763     1242.981      213.293        0.207        0.108       42.857       14.159        0.109      344.862       21.982      859.199
06/07/2014  02:23:00      -44.222      -36.305       -6.330       30.424       16.715       19.736      925.644      279.396      389.493        0.245        0.080       57.216       13.996        0.060      344.717       21.735      859.197
06/07/2014  02:24:00      -36.053      -13.468        2.862       19.712       14.550       11.955      388.550      211.707      142.931        0.112        0.037       38.486       10.899        0.080      344.504       21.371      859.200
06/07/2014  02:25:00      -34.860      -30.922       -0.151       18.319       14.491        9.938      335.598      209.978       98.758        0.141        0.032       46.598        8.885        0.036      344.429       21.242      859.200
06/07/2014  02:26:00      -60.672      -52.038       -0.063       33.276       30.870       15.568     1107.263      952.972      242.355        0.435        0.115       79.932       17.432        0.048      344.458       21.291      859.201
06/07/2014  02:27:00     -103.572      -14.324       -3.769       47.124       34.322       24.494     2220.641     1177.978      599.974        0.747        0.200      104.558       28.828        0.076      344.418       21.223      859.206
06/07/2014  02:28:00     -123.900       14.666      -12.936       19.616       16.209       11.671      384.774      262.740      136.204        0.826        0.039      124.765        3.043        0.001      344.557       21.459      859.214
06/07/2014  02:29:00     -127.672      -19.751       -3.861       40.845       21.762       16.658     1668.323      473.571      277.503        0.956        0.121      129.190       21.804        0.028      344.481       21.331      859.216
06/07/2014  02:30:00      -80.912      -60.884        3.009       35.334       21.349       19.406     1248.477      455.791      376.577        0.617        0.104      101.260       16.022        0.025      344.342       21.092      859.212
06/07/2014  02:31:00      -31.366      -23.767        5.346       36.084       29.192       20.880     1302.049      852.198      435.984        0.208        0.130       39.354       19.068        0.235      344.417       21.221      859.235
06/07/2014  02:32:00      -11.158      -57.062        4.157       20.183       20.727       20.860      407.343      429.627      435.138        0.233        0.064       58.143        9.882        0.029      344.317       21.050      859.246
06/07/2014  02:33:00       17.738      -10.315        3.330       23.100       25.347       19.220      533.624      642.471      369.420        0.099        0.077       20.519        9.235        0.203      343.824       20.208      859.256
06/07/2014  02:34:00       54.905       22.500       29.194       20.132       34.489       30.499      405.288     1189.480      930.167        0.345        0.126       59.336       22.257        0.141      343.655       19.921      859.265
06/07/2014  02:35:00       32.093       18.011        1.464       27.216       33.686       22.231      740.717     1134.732      494.239        0.186        0.118       36.802       15.927        0.187      343.759       20.096      859.274
06/07/2014  02:36:00       73.140       38.806       16.559       28.500       29.676       20.600      812.229      880.690      424.349        0.462        0.106       82.797       11.556        0.019      343.817       20.197      859.277
06/07/2014  02:37:00       24.156      -14.996       13.349       23.077       22.215       17.494      532.539      493.496      306.026        0.116        0.067       28.433       11.895        0.175      343.539       19.720      859.277
06/07/2014  02:38:00      -15.623      -20.796        7.357       26.783       17.589       10.764      717.311      309.367      115.873        0.094        0.057       26.011        8.089        0.097      343.759       20.098      859.270
06/07/2014  02:39:00      -34.788      -23.146        5.451       21.914       11.478       12.458      480.228      131.734      155.200        0.127        0.038       41.785       11.634        0.078      343.909       20.352      859.266
06/07/2014  02:40:00      -44.001      -11.174       -1.357       21.671        9.839        6.040      469.622       96.801       36.479        0.133        0.030       45.398        5.894        0.017      343.785       20.141      859.266
06/07/2014  02:41:00        4.222        2.453        4.993       42.742        9.244       12.905     1826.852       85.448      166.528        0.106        0.104        4.883       16.955       12.058      343.644       19.902      859.255
06/07/2014  02:42:00       -2.428        9.178       -0.775       20.621       11.956       10.471      425.226      142.944      109.637        0.038        0.034        9.494        8.248        0.755      343.939       20.405      859.256
06/07/2014  02:43:00      -39.246        0.569       -4.889        6.626        7.381        4.208       43.905       54.477       17.710        0.084        0.006       39.250        3.865        0.010      344.276       20.983      859.263
06/07/2014  02:44:00      -20.740       -6.526        7.876       14.381       10.904        7.626      206.807      118.903       58.156        0.046        0.019       21.743        8.108        0.139      343.966       20.451      859.269
06/07/2014  02:45:00       -8.577      -12.624        4.839       17.365       14.397       10.605      301.560      207.265      112.458        0.044        0.031       15.262       10.229        0.449      343.511       19.675      859.264
06/07/2014  02:46:00      -39.443       -7.565       -4.238       10.726        7.714        3.537      115.049       59.512       12.508        0.091        0.009       40.162        2.595        0.004      343.959       20.438      859.272
06/07/2014  02:47:00      -14.507        2.374       -0.220       11.638        5.077        5.437      135.436       25.776       29.565        0.020        0.010       14.700        4.582        0.097      343.875       20.296      859.284
06/07/2014  02:48:00       10.796       -1.107       -0.576       11.542       10.625       12.015      133.215      112.881      144.371        0.025        0.020       10.853        9.264        0.729      343.826       20.212      859.305
06/07/2014  02:49:00       20.511       12.865        1.557       18.875       13.255        9.992      356.259      175.698       99.841        0.061        0.032       24.212        8.902        0.135      343.571       19.777      859.301
06/07/2014  02:50:00       16.460       -4.000        7.991       18.184       13.784       14.474      330.667      189.986      209.490        0.054        0.037       16.939        7.552        0.199      343.350       19.399      859.295
06/07/2014  02:51:00       -3.163       -4.140        0.171       19.393       11.308        9.832      376.078      127.873       96.666        0.031        0.030        5.210        8.808        2.859      343.627       19.873      859.305
06/07/2014  02:52:00      -39.481       -9.743       -1.162        9.618       12.819        9.627       92.500      164.326       92.671        0.100        0.017       40.666        5.687        0.020      343.581       19.794      859.313
06/07/2014  02:53:00      -41.563      -22.458       -6.703        7.693        8.053        4.846       59.190       64.851       23.486        0.121        0.007       47.243        2.360        0.002      344.082       20.650      859.304
06/07/2014  02:54:00      -46.111      -26.017       -4.617       10.892       10.072        5.990      118.626      101.454       35.877        0.154        0.013       52.945        4.678        0.008      344.407       21.204      859.301
06/07/2014  02:55:00      -17.988        2.940        7.648       15.435       16.689        8.948      238.232      278.517       80.070        0.049        0.030       18.227       11.694        0.412      344.158       20.779      859.312
06/07/2014  02:56:00      -34.653       15.987        3.705       19.876       11.981       12.514      395.061      143.544      156.589        0.108        0.035       38.163       15.138        0.157      343.998       20.507      859.331
06/07/2014  02:57:00      -21.840      -21.825       -3.966       15.439       10.372        6.863      238.376      107.575       47.095        0.068        0.020       30.876        8.172        0.070      343.724       20.037      859.347
06/07/2014  02:58:00       -2.609       10.037        5.512        8.449       14.426        8.081       71.394      208.111       65.296        0.024        0.017       10.370        2.294        0.049      343.538       19.721      859.354
06/07/2014  02:59:00        0.945        6.589        0.637       22.253       14.278       13.305      495.217      203.864      177.017        0.046        0.044        6.656       11.323        2.894      343.680       19.962      859.346
06/07/2014  03:00:00      -13.014      -29.952        4.480       31.666       17.043       15.000     1002.714      290.466      225.011        0.130        0.076       32.657       13.200        0.163      343.495       19.648      859.334
06/07/2014  03:01:00      -32.183      -33.052        3.411       25.938       22.745       15.880      672.800      517.335      252.166        0.179        0.072       46.132       16.590        0.129      343.712       20.017      859.327
06/07/2014  03:02:00      -33.526       -3.575       -3.423       17.341       16.949       12.949      300.727      287.253      167.671        0.095        0.038       33.716        8.454        0.063      343.436       19.544      859.330
06/07/2014  03:03:00        8.798       -4.115       -2.994       16.817       22.189       13.800      282.827      492.371      190.444        0.053        0.048        9.713        9.421        0.941      343.403       19.491      859.347
06/07/2014  03:04:00       37.784      -11.562        3.889       23.838       28.686       21.080      568.241      822.892      444.367        0.171        0.092       39.513       12.453        0.099      343.101       18.975      859.349
06/07/2014  03:05:00       33.414      -23.860        6.245       14.258       18.858       19.380      203.295      355.628      375.583        0.133        0.047       41.059        7.439        0.033      342.874       18.588      859.358
06/07/2014  03:06:00       17.888      -26.070       -4.324       24.576       17.875       18.088      603.997      319.509      327.188        0.113        0.063       31.617       14.117        0.199      342.906       18.644      859.352
06/07/2014  03:07:00      -20.931      -43.126        0.268       20.159       41.803       11.763      406.403     1747.522      138.364        0.229        0.115       47.937       15.319        0.102      343.205       19.153      859.336
06/07/2014  03:08:00      -27.237      -46.829       -2.730       27.466       28.593       17.472      754.380      817.539      305.262        0.241        0.094       54.174       19.175        0.125      343.557       19.751      859.331
06/07/2014  03:09:00      -14.716       45.665       12.543       17.374       25.625       15.378      301.859      656.631      236.482        0.183        0.060       47.978        8.594        0.032      343.312       19.336      859.350
06/07/2014  03:10:00      -27.444       22.569        1.704       14.736       20.637       15.871      217.152      425.870      251.893        0.108        0.045       35.532       11.997        0.114      343.514       19.679      859.351
06/07/2014  03:11:00       17.780      -17.087        1.185       35.957       15.951       16.942     1292.893      254.418      287.045        0.122        0.092       24.660       12.366        0.251      343.405       19.495      859.351
06/07/2014  03:12:00       -9.648       -9.047       19.098       46.547       25.019       22.204     2166.594      625.934      493.007        0.191        0.164       13.226       23.035        3.033      342.982       18.772      859.355
06/07/2014  03:13:00      -50.946        6.888        0.304       15.143       22.097        7.749      229.298      488.292       60.040        0.171        0.039       51.410        8.861        0.030      343.315       19.339      859.363
06/07/2014  03:14:00      -30.419       11.898       -2.678       19.462       10.552        5.825      378.755      111.340       33.928        0.080        0.026       32.663        4.946        0.023      343.377       19.446      859.375
06/07/2014  03:15:00       -0.275      -26.774        0.083       18.298       24.147       10.786      334.826      583.092      116.346        0.088        0.052       26.775        6.384        0.057      343.166       19.086      859.369
06/07/2014  03:16:00      -15.807      -71.933        6.446       26.502       55.228       20.680      702.359     3050.102      427.672        0.482        0.209       73.649       27.671        0.141      343.471       19.608      859.388
06/07/2014  03:17:00      -20.116      -66.721        1.404       15.525       27.845       15.980      241.023      775.327      255.372        0.306        0.064       69.687       12.466        0.032      343.717       20.024      859.402
06/07/2014  03:18:00      -69.072      -84.129       -4.846       17.424       24.205       10.588      303.593      585.860      112.096        0.644        0.050      108.851        7.447        0.005      343.727       20.042      859.417
06/07/2014  03:19:00      -66.425      -35.603       -3.960       17.452       26.034       11.960      304.568      677.768      143.049        0.341        0.056       75.364        8.778        0.014      343.608       19.840      859.440
06/07/2014  03:20:00      -33.301      -27.682        0.252       34.355       20.728       16.487     1180.279      429.643      271.817        0.188        0.094       43.304        6.320        0.021      343.359       19.414      859.437
06/07/2014  03:21:00      -71.969      -56.734       -2.515       34.564       23.425       17.647     1194.661      548.730      311.428        0.523        0.103       91.642       15.465        0.028      343.146       19.052      859.431
06/07/2014  03:22:00     -108.981      -48.894        2.672       31.406       24.617       16.200      986.325      606.002      262.438        0.806        0.093      119.447       13.617        0.013      343.178       19.106      859.435
06/07/2014  03:23:00      -91.973      -26.732       -0.930       31.874       32.078       18.842     1015.945     1028.983      355.018        0.579        0.120       95.780       21.863        0.052      343.169       19.089      859.436
06/07/2014  03:24:00      -80.458      -40.315       -1.998       24.280       21.616       12.694      589.512      467.272      161.128        0.466        0.061       89.993       12.371        0.019      343.171       19.096      859.427
06/07/2014  03:25:00      -68.073      -21.926        1.452       20.726       21.298       12.553      429.583      453.605      157.584        0.308        0.052       71.517        7.710        0.012      343.222       19.182      859.425
06/07/2014  03:26:00     -102.194        7.576       -9.026       20.454       13.739        9.747      418.351      188.764       95.007        0.564        0.035      102.474        8.919        0.008      343.164       19.083      859.436
06/07/2014  03:27:00     -120.116       -4.305      -12.331       12.179       12.996        9.243      148.337      168.884       85.426        0.750        0.020      120.193        5.300        0.002      343.210       19.161      859.434
06/07/2014  03:28:00     -104.055      -14.916      -10.086       19.329       12.461       11.058      373.629      155.275      122.275        0.590        0.033      105.118        9.709        0.009      343.232       19.200      859.418
06/07/2014  03:29:00      -95.038       -9.584       -7.451       19.126       14.497       12.659      365.820      210.169      160.238        0.496        0.037       95.520        8.530        0.008      343.314       19.337      859.410
06/07/2014  03:30:00      -55.880       -2.918       -0.879       25.265       20.672       12.053      638.318      427.345      145.263        0.217        0.061       55.957       10.926        0.038      343.144       19.049      859.415
06/07/2014  03:31:00      -26.420        7.275       -3.796       18.473       14.718        8.664      341.236      216.633       75.068        0.070        0.032       27.404        9.780        0.127      343.269       19.261      859.415
06/07/2014  03:32:00      -12.077       26.547       -5.352       10.891       19.450        9.886      118.612      378.295       97.727        0.074        0.030       29.165        5.700        0.038      343.602       19.829      859.403
06/07/2014  03:33:00      -26.510        8.876       -3.165       14.932       24.773        9.040      222.978      613.714       81.730        0.085        0.046       27.957        6.796        0.059      343.439       19.551      859.407
06/07/2014  03:34:00        2.299        3.053        5.846        9.888       14.331       12.979       97.782      205.370      168.467        0.026        0.024        3.821        5.529        2.093      343.346       19.393      859.409
06/07/2014  03:35:00        2.540       57.344        2.547       21.043       28.141       19.405      442.803      791.895      376.543        0.246        0.081       57.401       16.437        0.082      343.569       19.773      859.396
06/07/2014  03:36:00       -1.122       52.814       10.198       24.286       36.351       19.299      589.819     1321.389      372.445        0.259        0.114       52.826       21.200        0.161      343.494       19.645      859.399
06/07/2014  03:37:00      -10.831        9.444       -2.819       21.987       13.603       11.879      483.445      185.049      141.110        0.051        0.040       14.370        6.137        0.182      343.216       19.170      859.408
06/07/2014  03:38:00      -53.551      -25.505       -2.048       18.544       14.157        9.980      343.891      200.410       99.599        0.208        0.032       59.315        9.266        0.024      342.874       18.591      859.412
06/07/2014  03:39:00      -31.887      -36.799       -7.672       23.077       24.272       13.297      532.560      589.152      176.800        0.186        0.065       48.693       11.602        0.057      342.772       18.416      859.397
06/07/2014  03:40:00      -79.195      -37.857       -5.851       27.778       11.425       10.266      771.600      130.531      105.400        0.437        0.050       87.778        6.132        0.005      342.681       18.260      859.392
06/07/2014  03:41:00      -89.197      -14.348       -7.920       11.469       14.941        9.054      131.531      223.225       81.970        0.433        0.022       90.344        4.608        0.003      342.630       18.174      859.410
06/07/2014  03:42:00      -69.468        3.789       -9.606       15.082       12.408       11.455      227.472      153.966      131.211        0.272        0.026       69.571       10.280        0.022      342.534       18.011      859.425
06/07/2014  03:43:00      -75.524      -15.805       -9.921        9.831       13.629        7.233       96.648      185.753       52.323        0.319        0.017       77.160        4.597        0.004      342.568       18.067      859.424
06/07/2014  03:44:00     -109.775      -21.592      -16.681       20.735       11.480       10.277      429.921      131.796      105.621        0.673        0.033      111.878        9.582        0.007      342.569       18.072      859.416
06/07/2014  03:45:00     -143.401      -31.463       -9.867       22.525       17.762       15.061      507.385      315.494      226.819        1.135        0.052      146.812       10.088        0.005      342.510       17.970      859.417
06/07/2014  03:46:00     -119.865      -51.852      -10.210       31.301       19.548       15.742      979.733      382.121      247.818        0.938        0.080      130.600       15.719        0.014      342.530       18.004      859.422
06/07/2014  03:47:00      -74.078      -32.755        1.768       36.365       28.227       19.019     1322.388      796.782      361.718        0.452        0.124       80.997       19.851        0.060      342.395       17.773      859.416
06/07/2014  03:48:00     -115.072      -26.233       -5.974       18.459       27.081       14.412      340.730      733.399      207.714        0.762        0.064      118.024       10.758        0.008      342.270       17.563      859.407
06/07/2014  03:49:00      -91.919      -23.435       -3.468       36.034       33.636       16.381     1298.477     1131.372      268.348        0.585        0.135       94.859       15.755        0.028      342.368       17.728      859.412
06/07/2014  03:50:00      -82.292      -59.038       -0.214       37.084       28.350       18.657     1375.239      803.701      348.100        0.639        0.126      101.280       19.337        0.036      342.610       18.141      859.414
06/07/2014  03:51:00      -71.188      -43.094       -1.906       34.385       20.979       12.137     1182.346      440.125      147.305        0.435        0.088       83.215        2.714        0.001      342.751       18.380      859.417
06/07/2014  03:52:00      -92.967       -0.544       -5.360       24.641       26.731       15.591      607.191      714.558      243.091        0.512        0.078       92.969       12.370        0.018      342.619       18.155      859.421
06/07/2014  03:53:00     -110.899      -41.120      -11.778       22.515       31.263       18.922      506.920      977.344      358.029        0.798        0.092      118.277       13.945        0.014      342.477       17.915      859.426
06/07/2014  03:54:00      -75.759      -50.784        4.850       43.725       31.848       26.876     1911.867     1014.310      722.308        0.599        0.182       91.205       16.901        0.034      342.276       17.572      859.437
06/07/2014  03:55:00     -103.957      -49.958       -4.017       20.696       15.303       13.305      428.321      234.196      177.017        0.708        0.042      115.338        9.036        0.006      342.412       17.804      859.454
06/07/2014  03:56:00      -81.853      -36.807       -1.534       21.234       14.742       13.011      450.899      217.337      169.285        0.445        0.042       89.748       12.035        0.018      342.299       17.610      859.462
06/07/2014  03:57:00      -70.515       -7.534       -5.743       19.400       16.589       15.836      376.357      275.211      250.791        0.298        0.045       70.916       13.534        0.036      342.247       17.524      859.481
06/07/2014  03:58:00      -50.124      -23.653       -2.130       18.937       16.363        7.801      358.602      267.734       60.854        0.188        0.034       55.424        7.191        0.017      342.358       17.711      859.497
06/07/2014  03:59:00      -45.185      -17.328       -3.525       23.425       17.976       10.188      548.717      323.123      103.804        0.166        0.049       48.394        8.489        0.031      342.246       17.521      859.503
06/07/2014  04:00:00      -90.417      -24.604       -8.641       16.856       13.025        8.496      284.137      169.658       72.180        0.469        0.026       93.705        5.433        0.003      342.245       17.519      859.517
06/07/2014  04:01:00      -88.752      -49.833       -5.363       41.782       24.200       17.616     1745.746      585.616      310.325        0.651        0.132      101.785       17.890        0.031      342.223       17.481      859.528
06/07/2014  04:02:00      -74.016      -37.294       -2.546       31.331       22.535       16.671      981.632      507.838      277.923        0.432        0.088       82.881       14.734        0.032      342.206       17.454      859.550
06/07/2014  04:03:00      -73.344      -37.230       -3.632       38.957       28.451       18.845     1517.611      809.453      355.126        0.473        0.134       82.252       19.854        0.058      342.244       17.517      859.558
06/07/2014  04:04:00      -80.330      -44.930       -4.662       22.053       21.971       12.656      486.325      482.716      160.171        0.481        0.056       92.041       10.940        0.014      342.180       17.408      859.577
06/07/2014  04:05:00      -48.276      -40.297        1.534       34.816       20.935       15.265     1212.180      438.275      233.031        0.292        0.094       62.884       16.599        0.070      342.112       17.293      859.597
06/07/2014  04:06:00      -65.703      -38.787        2.624       34.758       24.137       15.357     1208.106      582.571      235.826        0.393        0.101       76.297       11.843        0.024      342.098       17.270      859.606
06/07/2014  04:07:00     -101.566      -53.808       -9.447       36.684       28.817       22.332     1345.702      830.421      498.711        0.799        0.134      114.939       18.702        0.026      342.113       17.296      859.616
06/07/2014  04:08:00     -105.706      -48.835       -2.200       31.402       25.373       20.751      986.107      643.779      430.587        0.781        0.103      116.442       20.312        0.030      342.052       17.191      859.625
06/07/2014  04:09:00      -87.699      -48.180       -2.684       27.240       23.247       16.213      742.040      540.431      262.847        0.578        0.077      100.062       11.978        0.014      342.056       17.198      859.628
06/07/2014  04:10:00      -39.722      -41.385        2.857       30.142       34.289       19.219      908.511     1175.713      369.384        0.288        0.123       57.363       12.749        0.049      341.916       16.961      859.629
06/07/2014  04:11:00     -110.110      -47.233       -6.256       40.459       26.386       20.019     1636.909      696.245      400.741        0.856        0.137      119.813       20.818        0.030      341.967       17.047      859.639
06/07/2014  04:12:00      -87.072      -55.115        5.269       50.680       32.183       21.563     2568.465     1035.745      464.966        0.736        0.203      103.049       21.175        0.042      341.931       16.986      859.626
06/07/2014  04:13:00      -84.039      -63.885       -1.362       38.802       35.899       21.606     1505.633     1288.721      466.823        0.720        0.163      105.564       19.765        0.035      341.958       17.032      859.629
06/07/2014  04:14:00      -95.751      -43.783       -4.753       34.658       31.972       21.426     1201.177     1022.221      459.060        0.689        0.134      105.287       18.594        0.031      341.896       16.928      859.642
06/07/2014  04:15:00     -102.809      -83.413        0.518       42.562       31.404       19.373     1811.532      986.194      375.298        1.035        0.159      132.391       13.073        0.010      341.988       17.084      859.647
06/07/2014  04:16:00     -120.525      -65.334       -0.268       32.216       26.161       23.438     1037.893      684.372      549.341        1.053        0.114      137.094       19.100        0.019      341.933       16.991      859.641
06/07/2014  04:17:00     -114.119      -60.469        0.070       34.840       24.658       17.919     1213.807      608.038      321.102        0.941        0.107      129.150       14.701        0.013      341.935       16.995      859.654
06/07/2014  04:18:00      -84.967      -47.578        4.654       49.300       40.031       26.302     2430.442     1602.513      691.801        0.711        0.236       97.380       25.427        0.068      341.884       16.907      859.654
06/07/2014  04:19:00     -113.705      -42.599       -8.152       23.764       22.156       10.990      564.715      490.875      120.783        0.799        0.059      121.423        5.765        0.002      341.864       16.872      859.654
06/07/2014  04:20:00      -94.660      -40.755       -4.756       38.544       25.739       17.241     1485.660      662.507      297.249        0.654        0.122      103.061       18.382        0.032      341.897       16.929      859.675
06/07/2014  04:21:00      -65.186      -49.450        2.890       44.709       26.893       16.083     1998.937      723.228      258.648        0.484        0.149       81.820       18.336        0.050      341.917       16.962      859.678
06/07/2014  04:22:00      -99.992      -46.898       -2.745       30.640       24.706       20.164      938.813      610.373      406.580        0.708        0.098      110.444       11.153        0.010      341.910       16.951      859.676
06/07/2014  04:23:00     -121.251      -84.769       -3.348       29.383       32.933       19.029      863.387     1084.587      362.092        1.210        0.116      147.945       12.914        0.008      341.876       16.894      859.690
06/07/2014  04:24:00      -50.382      -46.225        6.255       43.309       33.417       21.333     1875.659     1116.710      455.093        0.408        0.172       68.375       13.829        0.041      341.733       16.651      859.690
06/07/2014  04:25:00      -61.473      -42.732        3.745       29.965       27.187       17.764      897.886      739.129      315.556        0.379        0.098       74.866       13.852        0.034      341.818       16.795      859.709
06/07/2014  04:26:00      -79.609      -65.006       -5.206       18.302       27.574       14.633      334.959      760.338      214.131        0.595        0.065      102.778        9.697        0.009      341.882       16.905      859.714
06/07/2014  04:27:00      -97.406      -54.482       -4.179       17.566       18.438       13.598      308.553      339.970      184.908        0.665        0.042      111.607        6.790        0.004      341.889       16.915      859.722
06/07/2014  04:28:00      -82.980      -59.081        0.415       26.580       23.337       15.846      706.508      544.628      251.083        0.594        0.075      101.864       11.225        0.012      341.856       16.860      859.730
06/07/2014  04:29:00      -65.067      -41.522       11.142       62.549       37.600       22.540     3912.320     1413.762      508.046        0.596        0.292       77.187       30.003        0.151      341.678       16.558      859.727
06/07/2014  04:30:00      -17.757      -16.505       15.775       32.375       27.662       25.528     1048.147      765.174      651.665        0.165        0.123       24.243       21.613        0.795      341.713       16.617      859.721
06/07/2014  04:31:00      -85.383      -48.737        2.129       62.200       27.142       23.205     3868.842      736.707      538.456        0.741        0.257       98.314       30.135        0.094      341.814       16.788      859.730
06/07/2014  04:32:00      -95.368      -70.696       10.555       54.930       42.819       29.503     3017.316     1833.466      870.449        0.996        0.286      118.713       26.256        0.049      341.708       16.608      859.730
06/07/2014  04:33:00      -81.621      -99.015        4.952       48.519       57.586       34.393     2354.081     3316.133     1182.872        1.167        0.343      128.320       31.364        0.060      341.667       16.540      859.729
06/07/2014  04:34:00      -76.133      -67.559        0.612       50.559       54.409       32.721     2556.234     2960.384     1070.673        0.847        0.329      101.786       34.120        0.112      341.713       16.618      859.738
06/07/2014  04:35:00      -92.558      -90.130       -1.686       46.203       56.400       22.022     2134.751     3180.984      484.955        1.125        0.290      129.191       19.082        0.022      341.680       16.561      859.744
06/07/2014  04:36:00      -89.390      -60.386       -0.893       51.208       43.085       33.991     2622.294     1856.352     1155.404        0.863        0.282      107.876       31.776        0.087      341.607       16.437      859.744
06/07/2014  04:37:00     -130.595      -94.897      -19.589       34.879       29.923       18.141     1216.514      895.397      329.086        1.444        0.122      161.432       13.554        0.007      341.679       16.558      859.761
06/07/2014  04:38:00      -91.543      -88.270        0.304       45.038       50.731       27.581     2028.427     2573.584      760.688        1.077        0.268      127.168       16.010        0.016      341.657       16.522      859.751
06/07/2014  04:39:00      -69.782      -60.885        8.400       72.111       49.152       32.601     5199.977     2415.922     1062.809        0.866        0.434       92.609       40.604        0.192      341.638       16.491      859.764
06/07/2014  04:40:00     -123.110      -85.242       -4.339       33.843       36.742       24.992     1145.379     1349.949      624.606        1.278        0.156      149.741       19.364        0.017      341.680       16.561      859.788
06/07/2014  04:41:00     -138.395     -113.778       -6.210       59.355       45.874       29.008     3522.968     2104.411      841.448        1.930        0.323      179.161       32.676        0.033      341.590       16.407      859.792
06/07/2014  04:42:00      -98.541      -61.143        8.175       87.377       48.631       35.142     7634.824     2364.949     1234.982        1.237        0.562      115.968       42.643        0.135      341.487       16.232      859.803
06/07/2014  04:43:00      -79.474      -76.537        9.506       77.413       53.630       36.823     5992.803     2876.134     1355.949        1.124        0.511      110.336       30.387        0.076      341.465       16.197      859.803
06/07/2014  04:44:00     -156.104      -80.952       -5.798       74.453       48.672       41.118     5543.293     2369.012     1690.694        2.028        0.480      175.845       44.033        0.063      341.395       16.077      859.811
06/07/2014  04:45:00     -176.037      -82.803       -8.704       63.582       46.534       33.984     4042.713     2165.395     1154.904        2.264        0.368      194.539       29.498        0.023      341.425       16.126      859.810
06/07/2014  04:46:00     -185.925     -121.753      -24.241       37.587       43.550       29.512     1412.746     1896.595      870.960        2.708        0.209      222.243       23.817        0.011      341.354       16.005      859.797
06/07/2014  04:47:00     -165.700     -107.378       -7.982       43.493       34.186       25.438     1891.672     1168.649      647.115        2.138        0.185      197.450       18.621        0.009      341.329       15.965      859.805
06/07/2014  04:48:00     -164.352      -79.106       -3.064       47.209       42.435       30.935     2228.678     1800.700      956.952        1.913        0.249      182.399       29.010        0.025      341.295       15.908      859.801
06/07/2014  04:49:00     -140.826      -74.901       -5.671       66.663       36.937       27.841     4443.902     1364.309      775.140        1.603        0.329      159.506       27.331        0.029      341.312       15.936      859.798
06/07/2014  04:50:00     -154.487      -77.621       -8.376       38.357       30.639       29.089     1471.234      938.764      846.167        1.661        0.163      172.890       20.820        0.015      341.309       15.931      859.800
06/07/2014  04:51:00     -145.247      -82.416       -3.550       55.571       38.501       27.655     3088.104     1482.325      764.801        1.662        0.267      167.000       26.081        0.024      341.278       15.878      859.796
06/07/2014  04:52:00     -132.509      -89.285       -4.989       49.742       45.703       23.667     2474.243     2088.797      560.108        1.534        0.256      159.782       17.406        0.012      341.260       15.849      859.810
06/07/2014  04:53:00     -110.840      -91.585       -2.422       44.994       42.764       23.201     2024.428     1828.755      538.308        1.253        0.220      143.783       24.344        0.029      341.245       15.824      859.820
06/07/2014  04:54:00     -113.131      -76.946       -0.466       46.483       33.889       24.293     2160.686     1148.481      590.164        1.131        0.195      136.818       26.881        0.039      341.255       15.841      859.820
06/07/2014  04:55:00     -106.740      -79.828       -3.927       44.740       24.831       19.633     2001.679      616.603      385.460        1.039        0.150      133.289       21.192        0.025      341.282       15.884      859.826
06/07/2014  04:56:00     -145.280      -64.360      -15.054       47.275       34.824       25.187     2234.942     1212.686      634.364        1.478        0.204      158.898       29.113        0.034      341.295       15.907      859.828
06/07/2014  04:57:00      -90.320      -96.388       -0.363       41.265       42.273       24.912     1702.777     1786.981      620.628        1.078        0.206      132.092       24.732        0.035      341.309       15.930      859.814
06/07/2014  04:58:00     -101.975      -83.730       -1.468       43.715       40.245       30.298     1910.991     1619.624      917.968        1.093        0.222      131.946       23.517        0.032      341.266       15.860      859.808
06/07/2014  04:59:00     -110.352      -75.922      -13.501       24.285       26.750       17.081      589.764      715.540      291.765        0.986        0.080      133.947       15.429        0.013      341.278       15.881      859.812
06/07/2014  05:00:00     -102.092      -52.476      -10.491       15.907       14.248       11.412      253.026      203.014      130.223        0.694        0.029      114.789        2.836        0.001      341.254       15.838      859.821
06/07/2014  05:01:00      -82.061      -64.684       -1.770       44.154       36.630       23.040     1949.611     1341.766      530.844        0.737        0.191      104.489       26.096        0.062      341.245       15.824      859.825
06/07/2014  05:02:00      -52.325      -42.607        7.507       44.036       33.871       24.743     1939.159     1147.211      612.211        0.415        0.185       67.478       22.721        0.113      341.190       15.732      859.827
06/07/2014  05:03:00      -39.602      -39.438        7.100       35.011       20.785       21.243     1225.772      432.020      451.246        0.264        0.105       55.890       19.648        0.124      341.133       15.634      859.832
06/07/2014  05:04:00      -57.501      -53.048        5.598       46.698       42.148       32.348     2180.720     1776.435     1046.408        0.558        0.250       78.233       30.585        0.153      341.137       15.640      859.839
06/07/2014  05:05:00      -59.909      -40.182        6.266       43.476       35.648       26.388     1890.196     1270.756      696.348        0.455        0.193       72.136       28.208        0.153      341.127       15.625      859.850
06/07/2014  05:06:00     -104.344      -60.417        1.647       54.719       34.782       21.031     2994.165     1209.812      442.311        0.959        0.232      120.573       23.724        0.039      341.123       15.617      859.862
06/07/2014  05:07:00      -97.792      -64.370        3.012       49.245       34.289       21.197     2425.053     1175.758      449.313        0.888        0.203      117.076       15.999        0.019      341.050       15.494      859.865
06/07/2014  05:08:00      -75.116      -53.398       -3.862       39.471       26.633       18.149     1557.969      709.336      329.374        0.555        0.130       92.161       18.030        0.038      341.050       15.493      859.876
06/07/2014  05:09:00      -77.638      -48.289        2.408       32.732       29.481       17.235     1071.408      869.133      297.052        0.530        0.112       91.430       16.494        0.033      341.092       15.565      859.880
06/07/2014  05:10:00      -87.334      -48.474        6.894       49.222       25.307       21.111     2422.853      640.451      445.660        0.677        0.175       99.885       24.416        0.060      341.135       15.638      859.907
06/07/2014  05:11:00      -66.578      -72.275        9.310       54.139       34.113       28.221     2930.980     1163.716      796.408        0.732        0.245       98.266       31.935        0.106      341.068       15.526      859.916
06/07/2014  05:12:00      -37.799      -44.897        7.620       40.217       35.002       25.814     1617.376     1225.122      666.356        0.351        0.175       58.690       25.654        0.191      341.079       15.544      859.920
06/07/2014  05:13:00      -73.414      -49.921        2.284       41.888       28.651       20.875     1754.582      820.898      435.775        0.545        0.151       88.779       23.187        0.068      341.117       15.607      859.938
06/07/2014  05:14:00     -102.131      -57.825       -8.352       30.721       24.381       19.362      943.765      594.429      374.885        0.788        0.096      117.365       10.947        0.009      341.125       15.621      859.940
06/07/2014  05:15:00      -69.682      -57.290        0.455       45.804       37.103       25.041     2098.026     1376.596      627.031        0.612        0.205       90.209       23.662        0.069      341.072       15.532      859.946
06/07/2014  05:16:00      -45.645      -48.913        6.484       40.851       44.409       25.536     1668.818     1972.142      652.107        0.440        0.215       66.903       24.400        0.133      341.029       15.458      859.955
06/07/2014  05:17:00      -81.168      -54.697       -2.329       42.044       33.478       20.043     1767.722     1120.782      401.710        0.644        0.165       97.877       21.399        0.048      341.015       15.434      859.961
06/07/2014  05:18:00      -91.576      -77.777       -0.611       44.005       43.584       26.163     1936.420     1899.539      684.529        0.948        0.226      120.148       28.396        0.056      341.003       15.415      859.973
06/07/2014  05:19:00      -90.038      -83.107        4.780       46.542       35.335       24.021     2166.112     1248.543      577.004        0.951        0.200      122.531       22.170        0.033      341.016       15.437      859.972
06/07/2014  05:20:00      -90.648      -66.905       -3.642       34.846       20.199       25.562     1214.267      407.994      653.425        0.749        0.114      112.665       20.907        0.034      341.054       15.501      859.989
06/07/2014  05:21:00     -118.662      -80.652       -0.393       22.993       27.887       16.567      528.685      777.664      274.477        1.108        0.079      143.476       13.595        0.009      341.006       15.420      860.015
06/07/2014  05:22:00      -68.124      -70.793       -2.691       34.226       41.498       20.146     1171.445     1722.061      405.875        0.648        0.165       98.247       17.483        0.032      341.015       15.435      860.018
06/07/2014  05:23:00      -61.236      -49.747        2.883       43.538       26.450       18.176     1895.583      699.579      330.372        0.458        0.146       78.896       21.565        0.075      341.023       15.446      860.028
06/07/2014  05:24:00      -67.270      -38.760        2.121       37.673       27.799       23.072     1419.283      772.810      532.336        0.438        0.136       77.638       20.525        0.070      341.002       15.413      860.045
06/07/2014  05:25:00      -93.601      -37.061        1.333       34.362       25.908       15.530     1180.743      671.226      241.189        0.611        0.105      100.671       17.445        0.030      341.067       15.523      860.059
06/07/2014  05:26:00      -11.091      -15.928        7.597       37.809       24.328       22.937     1429.536      591.852      526.105        0.149        0.127       19.409       23.292        1.440      341.003       15.415      860.070
06/07/2014  05:27:00      -50.655      -51.087        7.121       57.574       30.101       24.342     3314.718      906.061      592.516        0.502        0.241       71.943       29.365        0.167      341.004       15.418      860.099
06/07/2014  05:28:00      -52.199      -41.545        7.904       45.974       39.786       21.545     2113.582     1582.932      464.185        0.434        0.208       66.714       20.737        0.097      340.949       15.325      860.106
06/07/2014  05:29:00      -70.572      -81.305        0.764       44.111       43.236       24.609     1945.819     1869.374      605.625        0.801        0.221      107.661       27.152        0.064      340.992       15.394      860.112
06/07/2014  05:30:00      -95.597      -85.111        1.937       57.885       47.694       28.500     3350.683     2274.696      812.276        1.141        0.322      127.995       30.833        0.058      340.993       15.397      860.131
06/07/2014  05:31:00     -117.589     -110.395       -2.560       40.597       52.301       33.323     1648.124     2735.393     1110.396        1.576        0.275      161.289       28.872        0.032      340.959       15.339      860.155
06/07/2014  05:32:00     -169.055     -111.514       -9.668       52.287       57.784       36.717     2733.925     3338.966     1348.148        2.426        0.371      202.522       27.802        0.019      340.909       15.253      860.170
06/07/2014  05:33:00     -144.298     -122.744      -10.204       64.668       57.307       34.554     4181.927     3284.057     1194.006        2.232        0.433      189.441       35.228        0.035      340.839       15.135      860.177
06/07/2014  05:34:00     -171.063     -114.152      -12.769       50.056       54.944       33.155     2505.597     3018.885     1099.281        2.454        0.331      205.653       32.897        0.026      340.844       15.143      860.171
06/07/2014  05:35:00     -169.368     -126.145       -6.758       47.317       57.908       33.453     2238.945     3353.291     1119.085        2.568        0.336      211.183       21.634        0.010      340.730       14.951      860.181
06/07/2014  05:36:00     -139.100      -79.745       -7.524       42.202       49.984       29.441     1781.050     2498.385      866.766        1.545        0.257      160.337       24.840        0.024      340.762       15.006      860.179
06/07/2014  05:37:00     -125.000      -53.825       -3.759       48.179       35.453       27.567     2321.197     1256.931      759.920        1.144        0.217      136.096       21.679        0.025      340.760       15.004      860.167
06/07/2014  05:38:00     -140.396      -82.869       -8.674       35.513       33.764       22.990     1261.163     1139.984      528.519        1.479        0.146      163.028       10.503        0.004      340.765       15.011      860.165
06/07/2014  05:39:00     -107.018      -62.202        6.901       48.481       34.890       20.487     2350.411     1217.326      419.723        0.968        0.199      123.782       17.093        0.019      340.742       14.972      860.187
06/07/2014  05:40:00      -57.863      -36.599        3.657       41.091       30.455       18.070     1688.500      927.537      326.536        0.382        0.147       68.466       16.119        0.055      340.760       15.003      860.189
06/07/2014  05:41:00      -92.935      -50.416        2.855       32.180       20.363       16.904     1035.571      414.662      285.740        0.646        0.087      105.730       12.494        0.014      340.767       15.013      860.193
06/07/2014  05:42:00      -82.846      -50.061        5.732       31.027       26.844       20.432      962.670      720.596      417.452        0.575        0.105       96.797       19.438        0.040      340.787       15.048      860.201
06/07/2014  05:43:00     -122.998      -50.286       -7.809       21.508       20.200       12.187      462.605      408.053      148.531        0.937        0.051      132.880       10.416        0.006      340.791       15.055      860.223
06/07/2014  05:44:00      -97.357      -65.734       -7.574       38.627       20.520       16.874     1492.070      421.070      284.731        0.803        0.110      117.471       12.475        0.011      340.787       15.048      860.227
06/07/2014  05:45:00      -60.615      -41.299        4.193       50.527       28.257       16.994     2552.990      798.455      288.784        0.452        0.182       73.347       23.895        0.106      340.744       14.976      860.228
06/07/2014  05:46:00      -97.279      -63.632        0.916       48.087       34.900       26.131     2312.360     1218.020      682.841        0.886        0.211      116.243       19.155        0.027      340.738       14.967      860.242
06/07/2014  05:47:00     -114.962      -89.583       -1.759       35.497       36.854       24.443     1260.012     1358.246      597.452        1.223        0.161      145.744       18.229        0.016      340.747       14.981      860.254
06/07/2014  05:48:00     -125.920     -106.692      -12.459       64.258       57.881       29.591     4129.109     3350.213      875.635        1.787        0.418      165.043       29.628        0.032      340.728       14.947      860.260
06/07/2014  05:49:00     -121.853      -91.662       -9.202       76.236       49.138       39.872     5811.929     2414.528     1589.766        1.657        0.491      152.480       36.095        0.056      340.616       14.758      860.266
06/07/2014  05:50:00     -164.752      -84.813      -10.604       57.628       64.004       35.776     3321.020     4096.451     1279.902        2.157        0.435      185.301       18.232        0.010      340.593       14.719      860.260
06/07/2014  05:51:00     -163.554     -120.018       -3.607       63.388       49.249       34.312     4017.999     2425.511     1177.331        2.439        0.381      202.865       27.256        0.018      340.596       14.722      860.268
06/07/2014  05:52:00     -145.796      -85.992       -0.823       59.213       52.361       30.890     3506.164     2741.634      954.176        1.793        0.360      169.267       36.797        0.047      340.640       14.799      860.268
06/07/2014  05:53:00     -139.711      -71.698       -5.535       52.109       41.247       32.103     2715.323     1701.305     1030.574        1.507        0.272      157.035       21.461        0.019      340.563       14.670      860.267
06/07/2014  05:54:00     -131.595      -52.152       -5.856       33.462       50.008       27.734     1119.730     2500.779      769.196        1.223        0.219      141.553       26.210        0.034      340.605       14.741      860.271
06/07/2014  05:55:00     -125.345      -55.715      -10.660       30.460       26.281       18.550      927.785      690.682      344.102        1.045        0.098      137.170       14.084        0.011      340.632       14.785      860.287
06/07/2014  05:56:00      -26.815      -32.044        4.046       26.301       30.095       14.667      691.734      905.699      215.126        0.179        0.091       41.783       13.875        0.110      340.694       14.891      860.300
06/07/2014  05:57:00      -49.005      -54.058        9.175       44.148       39.423       21.885     1949.028     1554.158      478.955        0.469        0.199       72.965       20.985        0.083      340.642       14.803      860.305
06/07/2014  05:58:00      -87.188      -69.141        3.584       37.217       36.746       23.057     1385.121     1350.262      531.608        0.783        0.163      111.275       20.509        0.034      340.661       14.837      860.304
06/07/2014  05:59:00      -61.221      -64.154        8.607       46.704       28.595       26.931     2181.259      817.651      725.291        0.583        0.186       88.678       23.567        0.071      340.680       14.868      860.292
06/07/2014  06:00:00      -67.801      -55.891        2.620       53.845       37.584       31.691     2899.332     1412.559     1004.321        0.652        0.266       87.868       26.912        0.094      340.678       14.864      860.288
06/07/2014  06:01:00     -127.922      -60.786       -4.827       53.389       29.464       23.127     2850.383      868.116      534.847        1.217        0.213      141.630       19.196        0.018      340.687       14.878      860.304
06/07/2014  06:02:00     -129.997      -75.662      -12.659       54.624       36.936       24.207     2983.748     1364.300      586.001        1.386        0.247      150.413       23.729        0.025      340.681       14.868      860.311
06/07/2014  06:03:00     -133.222      -84.584       -9.086       34.301       38.900       23.634     1176.591     1513.249      558.564        1.412        0.162      157.805       16.475        0.011      340.649       14.818      860.317
06/07/2014  06:04:00     -128.613      -87.192       -3.320       49.551       38.379       29.575     2455.333     1472.943      874.691        1.448        0.240      155.383       24.461        0.025      340.654       14.823      860.315
06/07/2014  06:05:00     -117.272      -98.234       -1.552       44.304       34.726       27.322     1962.874     1205.886      746.492        1.366        0.196      152.979       23.778        0.024      340.645       14.807      860.318
06/07/2014  06:06:00     -115.817      -81.145        2.344       44.501       39.240       26.260     1980.344     1539.790      689.584        1.211        0.210      141.415       22.256        0.025      340.677       14.863      860.324
06/07/2014  06:07:00      -89.757      -49.869        6.726       43.244       30.915       26.309     1870.070      955.741      692.165        0.705        0.176      102.680       24.732        0.058      340.687       14.880      860.320
06/07/2014  06:08:00      -91.226      -67.954       -2.715       40.159       27.245       20.844     1612.738      742.317      434.460        0.787        0.139      113.753       10.045        0.008      340.705       14.911      860.310
06/07/2014  06:09:00      -87.872      -55.979        0.665       39.984       38.099       25.946     1598.683     1451.520      673.175        0.729        0.186      104.187       21.908        0.044      340.755       14.994      860.312
06/07/2014  06:10:00     -110.519      -18.971       -2.148       39.780       30.968       21.688     1582.467      959.004      470.354        0.779        0.151      112.135       19.938        0.032      340.701       14.905      860.315
06/07/2014  06:11:00     -142.994      -38.459       -5.516       40.240       28.818       17.601     1619.246      830.477      309.807        1.236        0.138      148.075       12.696        0.007      340.663       14.839      860.321
06/07/2014  06:12:00     -113.436      -35.908       -4.520       24.788       31.083       18.541      614.465      966.128      343.757        0.805        0.096      118.984       12.665        0.011      340.598       14.728      860.327
06/07/2014  06:13:00     -133.288      -15.730        1.542       49.003       33.283       22.266     2401.326     1107.770      495.782        1.101        0.200      134.213       26.239        0.038      340.631       14.784      860.333
06/07/2014  06:14:00     -141.433      -18.420       -5.451       34.916       30.359       21.214     1219.149      921.691      450.052        1.148        0.130      142.627       20.364        0.020      340.583       14.705      860.342
06/07/2014  06:15:00     -148.142      -37.220       -5.308       33.072       19.838       18.415     1093.753      393.559      339.116        1.259        0.091      152.747       18.002        0.014      340.639       14.798      860.344
06/07/2014  06:16:00     -115.236      -54.427       -4.095       27.648       24.441       20.424      764.411      597.370      417.120        0.902        0.089      127.443       14.977        0.014      340.720       14.935      860.348
06/07/2014  06:17:00      -92.840      -62.565        2.843       44.210       33.769       22.068     1954.504     1140.331      486.986        0.806        0.179      111.954       20.945        0.035      340.760       15.003      860.345
06/07/2014  06:18:00      -75.082      -64.431        6.667       52.834       34.963       27.513     2791.383     1222.388      756.944        0.730        0.239       98.937       27.789        0.079      340.816       15.097      860.351
06/07/2014  06:19:00      -99.234      -67.867       -0.069       41.547       35.319       21.256     1726.131     1247.448      451.812        0.894        0.171      120.222       23.883        0.039      340.870       15.188      860.361
06/07/2014  06:20:00      -91.533      -59.932        0.234       48.278       34.029       18.592     2330.755     1157.973      345.670        0.790        0.192      109.408       22.693        0.043      340.884       15.213      860.359
06/07/2014  06:21:00     -102.812      -79.317       -0.921       39.551       24.910       17.450     1564.317      620.513      304.515        0.968        0.124      129.852       15.936        0.015      340.925       15.280      860.353
06/07/2014  06:22:00      -59.782      -72.367        0.963       43.635       36.958       21.902     1904.010     1365.903      479.695        0.628        0.187       93.866       26.150        0.078      340.908       15.254      860.358
06/07/2014  06:23:00      -70.989      -75.317        2.789       30.768       39.776       17.503      946.691     1582.161      306.351        0.678        0.142      103.500       15.836        0.023      340.927       15.287      860.357
06/07/2014  06:24:00      -59.074      -42.281        4.994       35.658       26.842       17.882     1271.470      720.495      319.749        0.381        0.116       72.646       12.992        0.032      340.963       15.346      860.365
06/07/2014  06:25:00      -79.234      -93.741       -0.412       22.842       21.466       14.530      521.760      460.780      211.121        0.813        0.060      122.741       13.247        0.012      341.001       15.411      860.388
06/07/2014  06:26:00      -73.101      -75.844       -8.400       39.396       36.059       19.902     1552.013     1300.257      396.091        0.721        0.162      105.337       19.186        0.033      341.010       15.427      860.405
06/07/2014  06:27:00      -89.712     -108.197       -5.424       39.006       33.643       19.926     1521.484     1131.871      397.064        1.142        0.153      140.552       19.448        0.019      341.034       15.467      860.411
06/07/2014  06:28:00      -92.344      -85.217      -10.999       28.773       36.362       21.730      827.867     1322.212      472.199        0.927        0.131      125.655       13.141        0.011      341.065       15.519      860.424
06/07/2014  06:29:00     -109.827      -74.963       -6.248       36.394       48.390       28.610     1324.537     2341.589      818.506        1.110        0.224      132.971       20.950        0.025      341.032       15.465      860.442
06/07/2014  06:30:00      -76.586      -39.364        2.119       39.914       38.363       22.008     1593.088     1471.737      484.361        0.548        0.177       86.111       17.376        0.041      341.027       15.455      860.456
06/07/2014  06:31:00      -63.883      -30.412       10.738       51.208       34.749       26.249     2622.233     1207.470      688.999        0.482        0.226       70.753       23.703        0.112      341.114       15.602      860.470
06/07/2014  06:32:00      -80.632      -59.327        8.603       60.090       55.843       42.780     3610.837     3118.389     1830.115        0.933        0.428      100.106       35.710        0.127      341.006       15.419      860.471
06/07/2014  06:33:00     -139.147     -105.930       -4.106       47.045       47.838       28.073     2213.196     2288.473      788.116        1.794        0.264      174.880       20.379        0.014      341.007       15.420      860.480
06/07/2014  06:34:00     -121.281      -87.825       -2.710       42.549       34.822       25.087     1810.428     1212.537      629.358        1.304        0.183      149.741       22.508        0.023      341.035       15.469      860.483
06/07/2014  06:35:00     -130.242      -78.856       -2.169       36.877       28.021       25.117     1359.903      785.181      630.869        1.298        0.139      152.254       20.159        0.018      341.118       15.611      860.484
06/07/2014  06:36:00     -115.291      -55.713       -1.829       28.140       26.245       16.166      791.837      688.796      261.326        0.907        0.087      128.047       11.748        0.008      341.132       15.632      860.496
06/07/2014  06:37:00     -113.573      -70.570       -0.492       41.774       32.178       26.189     1745.029     1035.422      685.852        1.067        0.173      133.713       28.321        0.045      341.180       15.714      860.488
06/07/2014  06:38:00      -95.899      -80.843       -0.321       40.274       30.935       21.373     1622.014      956.959      456.814        0.938        0.152      125.428       22.873        0.033      341.185       15.722      860.493
06/07/2014  06:39:00     -110.272      -80.107       -2.760       36.968       21.465       18.819     1366.646      460.741      354.165        1.038        0.109      136.298       18.468        0.018      341.232       15.801      860.485
06/07/2014  06:40:00     -113.397      -89.014       -4.402       27.195       25.732       18.281      739.568      662.143      334.177        1.127        0.087      144.161       16.709        0.013      341.258       15.846      860.498
06/07/2014  06:41:00      -81.431      -50.556        3.369       48.702       32.268       24.399     2371.901     1041.207      595.332        0.660        0.200       95.849       25.940        0.073      341.406       16.096      860.507
06/07/2014  06:42:00      -77.172      -54.066       -3.336       45.737       37.052       23.301     2091.873     1372.838      542.915        0.645        0.200       94.227       22.844        0.059      341.326       15.962      860.514
06/07/2014  06:43:00     -126.244      -96.228        0.501       45.007       30.634       25.818     2025.663      938.425      666.552        1.441        0.182      158.737       24.792        0.024      341.311       15.936      860.521
06/07/2014  06:44:00     -115.041      -87.002        6.566       53.003       39.881       27.574     2809.286     1590.474      760.350        1.300        0.258      144.235       26.438        0.034      341.338       15.979      860.518
06/07/2014  06:45:00     -112.940      -85.936        1.673       51.182       40.003       25.913     2619.611     1600.243      671.459        1.252        0.245      141.917       23.140        0.027      341.316       15.944      860.537
06/07/2014  06:46:00     -135.064      -91.237        1.308       51.093       45.263       27.519     2610.536     2048.702      757.273        1.599        0.271      162.992       28.032        0.030      341.362       16.021      860.536
06/07/2014  06:47:00     -114.370      -87.230       -6.289       51.046       40.067       23.472     2605.684     1605.364      550.952        1.274        0.238      143.839       23.172        0.026      341.410       16.101      860.550
06/07/2014  06:48:00      -72.287      -67.510        3.326       55.575       43.285       27.320     3088.528     1873.579      746.364        0.775        0.285       98.909       29.067        0.086      341.523       16.294      860.569
06/07/2014  06:49:00      -52.759      -65.577       13.795       47.770       45.330       29.624     2281.982     2054.784      877.579        0.624        0.261       84.166       33.425        0.158      341.641       16.496      860.592
06/07/2014  06:50:00     -103.425      -89.547       -5.662       30.006       32.714       25.532      900.356     1070.199      651.896        1.068        0.131      136.804       25.835        0.036      341.523       16.294      860.598
06/07/2014  06:51:00      -80.810      -72.691       -0.248       28.123       35.103       19.742      790.891     1232.196      389.743        0.711        0.121      108.693       18.284        0.028      341.554       16.347      860.608
06/07/2014  06:52:00      -47.554      -67.222        5.327       43.355       42.961       24.296     1879.613     1845.652      590.320        0.556        0.216       82.342       30.935        0.141      341.797       16.758      860.613
06/07/2014  06:53:00      -77.504      -66.386        2.818       38.405       30.229       22.118     1474.926      913.821      489.209        0.665        0.144      102.049       24.995        0.060      341.681       16.563      860.628
06/07/2014  06:54:00      -69.054     -103.630       -6.475       31.263       35.662       21.869      977.384     1271.785      478.238        0.914        0.136      124.529       19.340        0.024      341.627       16.470      860.632
06/07/2014  06:55:00      -56.272      -83.483        0.491       24.393       39.055       19.867      595.000     1525.293      394.713        0.633        0.126      100.677        7.458        0.005      341.614       16.449      860.634
06/07/2014  06:56:00      -61.549      -69.916       -2.922       49.296       47.022       28.001     2430.059     2211.058      784.083        0.705        0.271       93.148       27.904        0.090      341.632       16.479      860.627
06/07/2014  06:57:00      -63.809      -30.611        3.898       50.419       31.679       27.332     2542.100     1003.539      747.014        0.466        0.215       70.772       26.805        0.143      341.635       16.483      860.616
06/07/2014  06:58:00     -121.104      -74.675       -2.795       29.501       36.098       22.009      870.299     1303.095      484.390        1.145        0.133      142.276        5.554        0.002      341.609       16.439      860.608
06/07/2014  06:59:00     -110.369      -99.449      -11.851       38.741       36.933       23.808     1500.848     1364.061      566.842        1.282        0.172      148.564       18.546        0.016      341.624       16.465      860.604
06/07/2014  07:00:00     -121.107     -112.084       -9.806       30.479       36.602       21.254      928.995     1339.728      451.749        1.502        0.136      165.014       15.753        0.009      341.637       16.488      860.615
06/07/2014  07:01:00     -122.218     -107.977       -9.760       33.038       26.034       21.987     1091.516      677.788      483.428        1.447        0.113      163.083       17.510        0.012      341.648       16.508      860.614
06/07/2014  07:02:00     -108.537      -87.538       -9.508       35.985       45.636       26.933     1294.948     2082.688      725.412        1.182        0.205      139.439       18.852        0.018      341.672       16.549      860.621
06/07/2014  07:03:00     -138.700     -100.943      -11.724       41.263       39.242       27.515     1702.615     1539.901      757.078        1.678        0.200      171.544       19.964        0.014      341.704       16.601      860.626
06/07/2014  07:04:00     -118.467      -90.612       -0.023       54.212       41.223       23.798     2938.951     1699.329      566.361        1.372        0.260      149.147       30.817        0.043      341.758       16.692      860.625
06/07/2014  07:05:00     -120.939     -108.725      -18.904       37.931       39.561       26.210     1438.765     1565.036      686.979        1.525        0.185      162.626       12.783        0.006      341.743       16.667      860.641
06/07/2014  07:06:00     -101.390     -102.592       -6.558       39.255       45.396       23.431     1540.937     2060.837      549.006        1.250        0.208      144.240       20.019        0.019      341.754       16.687      860.648
06/07/2014  07:07:00      -64.612      -79.424        0.100       49.708       46.225       29.671     2470.870     2136.714      880.377        0.798        0.274      102.386       25.233        0.061      341.821       16.799      860.677
06/07/2014  07:08:00      -99.203      -93.099      -14.804       47.556       52.767       34.350     2261.598     2784.385     1179.891        1.248        0.311      136.046       26.868        0.039      341.740       16.663      860.692
06/07/2014  07:09:00      -89.321     -118.357       -2.290       43.893       53.641       22.138     1926.605     2877.404      490.104        1.364        0.265      148.279       22.610        0.023      341.755       16.688      860.694
06/07/2014  07:10:00     -117.418     -110.871       -9.968       41.852       41.137       27.837     1751.607     1692.268      774.895        1.520        0.211      161.491       23.887        0.022      341.777       16.725      860.696
06/07/2014  07:11:00     -137.984     -132.429       -6.466       47.184       49.009       27.797     2226.287     2401.871      772.670        2.101        0.270      191.251       23.159        0.015      341.793       16.751      860.684
06/07/2014  07:12:00      -95.528      -82.042       -1.390       48.905       36.402       28.619     2391.720     1325.134      819.048        1.020        0.227      125.923       29.675        0.056      341.855       16.857      860.684
06/07/2014  07:13:00      -91.123      -78.952       -2.599       40.317       61.786       26.321     1625.458     3817.458      692.816        1.034        0.307      120.569       26.041        0.047      341.914       16.957      860.683
06/07/2014  07:14:00      -73.575      -68.377       -7.211       32.862       31.073       19.209     1079.924      965.525      368.973        0.628        0.121      100.442       11.222        0.012      341.914       16.958      860.677
06/07/2014  07:15:00      -69.693      -38.576       -7.989       33.127       21.030       20.802     1097.383      442.258      432.715        0.419        0.099       79.657       15.396        0.037      342.019       17.135      860.682
06/07/2014  07:16:00      -52.597      -84.728       -5.196       37.053       25.587       17.514     1372.905      654.708      306.755        0.615        0.117       99.726       13.529        0.018      342.018       17.135      860.679
06/07/2014  07:17:00      -37.320      -65.145        7.005       39.298       42.365       25.766     1544.298     1794.798      663.873        0.484        0.200       75.078       19.661        0.069      342.072       17.227      860.683
06/07/2014  07:18:00      -69.225      -76.609       -1.925       39.786       33.828       22.695     1582.899     1144.337      515.046        0.695        0.162      103.252       23.844        0.053      342.035       17.165      860.696
06/07/2014  07:19:00      -63.957      -30.850        7.632       38.449       31.688       19.116     1478.311     1004.102      365.422        0.397        0.142       71.009       21.044        0.088      342.242       17.516      860.710
06/07/2014  07:20:00      -21.859      -30.575        8.626       34.458       39.489       21.375     1187.326     1559.398      456.891        0.234        0.160       37.585       25.612        0.464      342.405       17.791      860.724
06/07/2014  07:21:00      -65.882      -77.794        8.358       49.743       42.823       30.947     2474.399     1833.777      957.717        0.786        0.263      101.942       33.310        0.107      342.107       17.284      860.725
06/07/2014  07:22:00      -46.246      -60.278        1.646       39.927       39.915       24.320     1594.172     1593.211      591.441        0.478        0.189       75.975       23.719        0.097      342.203       17.447      860.736
06/07/2014  07:23:00      -58.081      -43.813       10.051       33.234       22.273       22.337     1104.501      496.070      498.933        0.375        0.105       72.753       20.388        0.079      342.176       17.403      860.755
06/07/2014  07:24:00      -23.620      -45.610        4.352       26.931       21.964       15.167      725.253      482.402      230.026        0.205        0.072       51.363       11.082        0.047      342.298       17.611      860.753
06/07/2014  07:25:00      -24.543       11.040       10.329       24.585       21.959       21.594      604.414      482.198      466.322        0.119        0.078       26.912       14.032        0.272      342.615       18.150      860.752
06/07/2014  07:26:00      -26.603       -3.271        6.106       36.763       26.225       22.953     1351.545      687.744      526.859        0.166        0.128       26.803        9.441        0.124      342.512       17.973      860.748
06/07/2014  07:27:00      -46.311      -44.309       -6.520       44.877       42.064       29.373     2013.940     1769.379      862.773        0.440        0.232       64.094       15.062        0.055      342.447       17.864      860.742
06/07/2014  07:28:00      -50.229      -47.665        1.075       29.459       30.051       25.564      867.856      903.063      653.532        0.361        0.121       69.246       10.904        0.025      342.398       17.781      860.751
06/07/2014  07:29:00      -25.304      -64.918       13.057       27.072       33.379       20.120      732.872     1114.146      404.807        0.364        0.113       69.675       18.460        0.070      342.510       17.971      860.748
06/07/2014  07:30:00      -58.387      -63.694        2.421       20.372       26.624       13.875      415.011      708.824      192.526        0.439        0.066       86.406       13.240        0.023      342.392       17.769      860.755
06/07/2014  07:31:00      -38.796      -91.919       -5.454       21.836       25.151       16.125      476.807      632.577      260.019        0.568        0.068       99.771       10.825        0.012      342.384       17.756      860.763
06/07/2014  07:32:00      -42.726      -84.367        1.891       24.328       42.535       21.308      591.838     1809.192      454.026        0.590        0.143       94.569       23.170        0.060      342.453       17.874      860.760
06/07/2014  07:33:00      -15.719      -48.609        8.522       39.333       37.037       24.103     1547.122     1371.773      580.931        0.309        0.175       51.087       21.488        0.177      342.826       18.509      860.757
06/07/2014  07:34:00       -6.590      -19.705        9.883       24.339       23.140       23.880      592.376      535.458      570.245        0.111        0.085       20.778       20.554        0.979      343.104       18.981      860.764
06/07/2014  07:35:00      -47.159       -3.063        1.928       27.517       21.072       18.344      757.184      444.037      336.496        0.189        0.077       47.259       15.064        0.102      342.720       18.329      860.770
06/07/2014  07:36:00      -39.384       -9.955       -3.347       22.632       21.633       13.525      512.193      467.990      182.922        0.141        0.058       40.623       13.348        0.108      342.655       18.217      860.776
06/07/2014  07:37:00      -49.126        0.926        2.072       30.347       30.723       31.717      920.955      943.906     1005.976        0.264        0.144       49.135       29.107        0.351      343.013       18.827      860.789
06/07/2014  07:38:00      -38.240       17.506       -5.208       38.834       26.812       25.997     1508.065      718.904      675.828        0.235        0.145       42.057       20.770        0.244      342.749       18.375      860.797
06/07/2014  07:39:00       -3.171       -8.455        1.521       37.429       20.785       20.239     1400.941      432.011      409.623        0.116        0.112        9.030       10.359        1.316      342.935       18.694      860.805
06/07/2014  07:40:00      -21.400        7.201        3.524       27.033       28.730       23.041      730.792      825.407      530.875        0.130        0.104       22.579       10.393        0.212      343.010       18.820      860.820
06/07/2014  07:41:00      -32.788      -23.624        4.987       15.016       18.341       20.201      225.466      336.402      408.081        0.131        0.048       40.412        6.738        0.028      342.905       18.641      860.837
06/07/2014  07:42:00      -21.411      -21.083        2.873       23.850       17.610       22.573      568.816      310.121      509.526        0.115        0.069       30.049       10.875        0.131      343.175       19.102      860.852
06/07/2014  07:43:00      -29.218      -57.088        4.700       24.810       47.024       17.684      615.530     2211.295      312.707        0.364        0.157       64.131        9.926        0.024      343.053       18.894      860.857
06/07/2014  07:44:00      -40.514      -96.300        4.008       34.019       24.977       18.236     1157.315      623.874      332.540        0.652        0.106      104.475       16.382        0.025      342.902       18.637      860.863
06/07/2014  07:45:00      -61.082      -92.896        4.095       27.992       26.937       17.580      783.552      725.617      309.071        0.710        0.091      111.178       15.233        0.019      342.888       18.613      860.864
06/07/2014  07:46:00      -31.486      -63.700        4.746       20.108       54.498       18.557      404.322     2969.982      344.358        0.439        0.186       71.057       16.222        0.052      343.127       19.019      860.875
06/07/2014  07:47:00      -52.915      -60.759       11.936       45.703       30.867       22.758     2088.757      952.762      517.940        0.510        0.178       80.571       16.985        0.044      343.040       18.872      860.883
06/07/2014  07:48:00      -57.004      -21.725        4.996       41.447       26.297       21.846     1717.851      691.526      477.268        0.332        0.144       61.003       14.685        0.058      343.022       18.841      860.902
06/07/2014  07:49:00      -47.161      -58.520        9.098       38.212       35.166       25.760     1460.150     1236.675      663.596        0.455        0.168       75.158       22.379        0.089      343.074       18.929      860.925
06/07/2014  07:50:00      -56.153      -29.334       -8.164       29.753       22.589       14.977      885.235      510.283      224.317        0.285        0.081       63.353       10.677        0.028      343.008       18.817      860.944
06/07/2014  07:51:00      -27.866      -15.906        6.076       24.491       31.702       20.067      599.806     1005.034      402.672        0.154        0.100       32.087       20.890        0.424      343.409       19.500      860.944
06/07/2014  07:52:00      -47.738      -80.082        5.795       62.087       33.739       25.663     3854.752     1138.352      658.606        0.719        0.283       93.231       30.497        0.107      343.055       18.898      860.947
06/07/2014  07:53:00       -9.178      -23.599       11.852       33.013       26.638       22.091     1089.825      709.559      488.008        0.153        0.114       25.320       19.677        0.604      343.308       19.329      860.951
06/07/2014  07:54:00      -43.297      -70.043        4.352       31.270       43.783       19.207      977.811     1916.953      368.910        0.503        0.163       82.345       18.098        0.048      343.094       18.963      860.952
06/07/2014  07:55:00      -66.149      -54.905        9.399       37.785       41.113       27.326     1427.728     1690.269      746.708        0.567        0.193       85.966       24.840        0.083      343.064       18.913      860.949
06/07/2014  07:56:00      -55.287      -83.023       -1.461       24.952       24.960       17.809      622.578      623.016      317.161        0.576        0.078       99.747       14.295        0.021      342.980       18.768      860.944
06/07/2014  07:57:00      -41.662      -30.514        8.899       26.921       20.151       20.029      724.744      406.074      401.143        0.214        0.077       51.641       11.627        0.051      343.148       19.056      860.932
06/07/2014  07:58:00      -70.358      -33.343       -5.721       21.036       20.595       14.634      442.513      424.140      214.152        0.359        0.054       77.859       12.745        0.027      343.085       18.948      860.925
06/07/2014  07:59:00      -44.564      -69.808        4.030       36.810       32.428       17.175     1354.969     1051.553      294.977        0.479        0.135       82.820       16.062        0.038      343.123       19.012      860.917
06/07/2014  08:00:00      -33.812      -94.864       -1.750       16.067       18.657       14.179      258.138      348.089      201.039        0.548        0.040      100.710        9.273        0.008      343.051       18.892      860.904
06/07/2014  08:01:00      -25.674      -57.580        5.236       19.075       22.898       15.911      363.838      524.310      253.145        0.257        0.057       63.045       11.297        0.032      343.203       19.150      860.900
06/07/2014  08:02:00      -11.411      -22.921        9.888       18.566       33.765       17.479      344.688     1140.050      305.524        0.127        0.090       25.605       16.876        0.434      343.767       20.112      860.900
06/07/2014  08:03:00      -12.499      -30.842       19.725       21.610       24.098       24.528      466.971      580.699      601.620        0.157        0.082       33.278       21.824        0.430      343.773       20.122      860.904
06/07/2014  08:04:00       -3.559      -12.942       25.210       30.872       29.080       24.938      953.060      845.639      621.897        0.162        0.121       13.423       25.293        3.551      343.782       20.140      860.908
06/07/2014  08:05:00      -37.255      -54.292       -1.892       15.748       14.532       13.956      247.999      211.190      194.781        0.250        0.033       65.845        9.399        0.020      343.249       19.228      860.916
06/07/2014  08:06:00      -32.858      -26.281        0.399       15.749       16.440        9.362      248.043      270.267       87.656        0.119        0.030       42.076        8.598        0.042      343.398       19.481      860.919
06/07/2014  08:07:00      -31.123      -21.541       -4.704       26.736       11.724        9.581      714.840      137.452       91.797        0.120        0.047       37.851       10.327        0.074      343.314       19.336      860.922
06/07/2014  08:08:00       10.777       -9.318       19.978       34.773       23.169       24.609     1209.195      536.798      605.609        0.148        0.118       14.247       13.496        0.897      343.633       19.883      860.922
06/07/2014  08:09:00       31.408       -7.965       11.022       32.973       27.362       23.827     1087.188      748.679      567.749        0.179        0.120       32.402       18.572        0.329      343.579       19.790      860.928
06/07/2014  08:10:00       26.287       -4.052       11.212       31.815       23.348       20.652     1012.175      545.129      426.520        0.141        0.099       26.597       14.440        0.295      343.399       19.484      860.926
06/07/2014  08:11:00       11.249       12.519       27.050       19.760       15.875       19.836      390.447      252.011      393.450        0.103        0.052       16.830        9.698        0.332      344.002       20.513      860.917
06/07/2014  08:12:00       41.288       39.298        9.073       36.187       21.719       25.854     1309.535      471.709      668.421        0.289        0.122       57.000       11.892        0.044      343.369       19.431      860.913
06/07/2014  08:13:00       45.374      -17.922       12.616       27.266       30.497       29.699      743.446      930.096      882.015        0.255        0.128       48.785       15.743        0.104      343.424       19.526      860.916
06/07/2014  08:14:00       18.228       -7.745       21.372       25.378       18.224       22.399      644.059      332.113      501.712        0.116        0.074       19.805       18.029        0.829      343.849       20.252      860.914
06/07/2014  08:15:00       22.129       33.744       -2.228       23.297       27.991       24.950      542.762      783.515      622.479        0.179        0.097       40.353       11.204        0.077      343.385       19.462      860.909
06/07/2014  08:16:00       25.523       41.671       -5.290       18.575       19.239       23.663      345.013      370.136      559.956        0.185        0.064       48.867        8.398        0.030      343.595       19.817      860.904
06/07/2014  08:17:00       37.899       17.740        8.886       21.674       23.484       22.425      469.749      551.504      502.883        0.168        0.076       41.846       14.242        0.116      343.770       20.116      860.901
06/07/2014  08:18:00       45.879       -1.073       17.895       22.358       18.595       24.913      499.874      345.771      620.650        0.195        0.073       45.892       15.047        0.107      343.667       19.942      860.892
06/07/2014  08:19:00       33.425       11.026       20.462       25.188       24.151       22.652      634.429      583.265      513.121        0.169        0.087       35.197       14.402        0.167      343.515       19.683      860.884
06/07/2014  08:20:00       -1.884        5.530       21.524       23.332       14.900       18.285      544.400      221.995      334.357        0.080        0.055        5.842       12.999        4.950      344.199       20.849      860.873
06/07/2014  08:21:00       -1.984       28.106       43.913       27.828       27.260       24.133      774.422      743.098      582.399        0.241        0.105       28.176       17.561        0.388      344.091       20.664      860.864
06/07/2014  08:22:00       40.634      -16.867       26.206       29.859       30.027       30.919      891.563      901.640      956.003        0.269        0.137       43.995       17.669        0.161      343.959       20.440      860.866
06/07/2014  08:23:00       47.359       -6.101       21.258       30.218       30.673       30.564      913.121      940.848      934.177        0.276        0.139       47.751       24.716        0.268      343.769       20.115      860.866
06/07/2014  08:24:00        8.315        3.111       34.581       18.953       26.486       22.059      359.199      701.506      486.601        0.141        0.077        8.878       16.333        3.385      344.471       21.314      860.860
06/07/2014  08:25:00       38.724       22.752       26.177       44.899       40.216       31.714     2015.881     1617.330     1005.778        0.367        0.232       44.913       28.300        0.397      343.796       20.161      860.854
06/07/2014  08:26:00       46.446      -17.456       -4.121       33.462       57.102       35.202     1119.723     3260.590     1239.200        0.405        0.281       49.618       25.346        0.261      343.583       19.797      860.853
06/07/2014  08:27:00       16.885       29.600       49.450       39.536       37.684       29.010     1563.058     1420.047      841.581        0.371        0.191       34.077       27.878        0.669      344.127       20.727      860.836
06/07/2014  08:28:00        0.690       17.993       48.618       27.378       30.460       19.015      749.535      927.798      361.586        0.236        0.102       18.006       15.745        0.765      344.526       21.408      860.836
06/07/2014  08:29:00       50.168        6.162       11.470       22.151       28.418       28.574      490.668      807.601      816.461        0.240        0.106       50.545       18.671        0.136      343.715       20.022      860.823
06/07/2014  08:30:00       30.668       28.237        9.915       30.570       30.004       27.473      934.545      900.260      754.751        0.221        0.129       41.687       13.336        0.102      343.519       19.687      860.821
06/07/2014  08:31:00       28.843       29.916      -12.737       16.958       20.411       20.924      287.558      416.612      437.804        0.152        0.057       41.556       13.975        0.113      343.598       19.823      860.820
06/07/2014  08:32:00       86.459       52.206       21.354       47.015       34.885       32.149     2210.407     1216.944     1033.585        0.756        0.223      100.998       16.254        0.026      343.874       20.294      860.821
06/07/2014  08:33:00      101.577       85.450       48.865       40.124       39.991       39.909     1609.972     1599.283     1592.735        1.240        0.240      132.738       10.132        0.006      344.069       20.627      860.820
06/07/2014  08:34:00       52.637        2.812       30.773       46.782       43.336       50.438     2188.567     1878.010     2543.999        0.517        0.331       52.712       33.788        0.411      344.241       20.921      860.827
06/07/2014  08:35:00       55.103      -41.940        4.539       35.390       34.888       33.047     1252.452     1217.144     1092.128        0.419        0.178       69.248       21.224        0.094      343.862       20.272      860.824
06/07/2014  08:36:00       16.843       -2.504       24.607       28.734       39.504       31.548      825.614     1560.557      995.292        0.214        0.169       17.028       28.511        2.804      344.327       21.069      860.832
06/07/2014  08:37:00       41.572       26.561       24.014       39.279       40.382       30.933     1542.855     1630.729      956.851        0.357        0.207       49.333       21.329        0.187      343.879       20.302      860.839
06/07/2014  08:38:00       41.466       10.555        1.471       24.487       19.762       24.651      599.606      390.519      607.669        0.172        0.080       42.788       15.889        0.138      343.895       20.329      860.844
06/07/2014  08:39:00       12.973       16.821        2.981       15.551       15.835       20.746      241.833      250.743      430.415        0.069        0.046       21.242       13.455        0.401      344.260       20.953      860.848
06/07/2014  08:40:00       11.524        2.925        6.047       18.284       32.551       19.703      334.293     1059.574      388.216        0.098        0.089       11.889       14.354        1.457      344.131       20.733      860.851
06/07/2014  08:41:00       33.950      -28.902        5.064       28.584       24.046       27.152      817.025      578.226      737.233        0.207        0.107       44.586       17.254        0.150      343.905       20.347      860.860
06/07/2014  08:42:00       21.846      -11.247        8.299       19.625       15.943       19.364      385.147      254.172      374.974        0.084        0.051       24.572       10.768        0.192      344.233       20.908      860.864
06/07/2014  08:43:00       29.870       21.600       -8.930       33.002       16.113       20.736     1089.138      259.629      429.987        0.161        0.089       36.861       18.044        0.240      344.185       20.824      860.866
06/07/2014  08:44:00       13.201       16.601       33.558       18.406       19.224       13.918      338.779      369.576      193.717        0.124        0.045       21.210        8.956        0.178      345.082       22.359      860.872
06/07/2014  08:45:00       -8.150       26.604       25.030       33.711       22.939       28.521     1136.426      526.180      813.471        0.194        0.124       27.825       21.538        0.599      345.110       22.408      860.863
06/07/2014  08:46:00       34.455       12.505       24.148       33.730       25.678       27.913     1137.682      659.336      779.129        0.225        0.129       36.654       13.538        0.136      344.296       21.015      860.866
06/07/2014  08:47:00       42.617        4.124        9.161       41.017       27.060       31.672     1682.434      732.267     1003.119        0.267        0.171       42.816       24.486        0.327      344.139       20.747      860.863
06/07/2014  08:48:00       43.458       -0.887       23.678       28.810       21.656       21.066      830.025      468.962      443.795        0.210        0.087       43.467       15.441        0.126      344.417       21.221      860.857
06/07/2014  08:49:00       70.248       40.640       23.506       42.287       27.974       30.457     1788.180      782.547      927.619        0.532        0.175       81.156       15.681        0.037      344.574       21.489      860.853
06/07/2014  08:50:00       63.321       35.205       22.701       55.721       35.096       31.005     3104.817     1231.723      961.314        0.553        0.265       72.450       28.138        0.151      344.811       21.895      860.847
06/07/2014  08:51:00      119.722       61.203       26.575       65.312       43.843       33.897     4265.715     1922.220     1149.019        1.306        0.367      134.459       24.625        0.034      344.675       21.662      860.846
06/07/2014  08:52:00       78.360       59.503       28.097       56.932       39.908       36.158     3241.307     1592.649     1307.380        0.830        0.307       98.392       20.843        0.045      344.700       21.706      860.832
06/07/2014  08:53:00      -11.863       43.738       11.343       34.022       52.833       25.843     1157.478     2791.340      667.835        0.340        0.231       45.318       30.414        0.450      345.111       22.409      860.838
06/07/2014  08:54:00      -10.006       45.652       32.407       30.212       35.225       33.002      912.738     1240.780     1089.122        0.324        0.162       46.736       21.096        0.204      345.477       23.036      860.829
06/07/2014  08:55:00       10.802       -0.385       36.727       35.025       43.982       35.009     1226.739     1934.428     1225.622        0.293        0.219       10.809       29.483        7.440      345.051       22.306      860.826
06/07/2014  08:56:00       31.337       13.636        1.455       27.289       36.008       32.472      744.698     1296.607     1054.461        0.213        0.155       34.175       23.678        0.480      344.337       21.085      860.816
06/07/2014  08:57:00       48.895       36.146       33.353       56.115       52.748       42.254     3148.943     2782.329     1785.422        0.626        0.386       60.805       36.193        0.354      344.595       21.525      860.794
06/07/2014  08:58:00       39.394        8.150       42.554       41.008       36.897       36.682     1681.652     1361.394     1345.538        0.391        0.219       40.228       28.790        0.512      344.703       21.710      860.794
06/07/2014  08:59:00       35.539       24.789       30.040       41.023       46.299       31.052     1682.865     2143.583      964.197        0.378        0.240       43.330       16.946        0.153      344.677       21.665      860.782
06/07/2014  09:00:00       59.121       58.375       37.361       42.704       41.497       31.407     1823.629     1722.021      986.401        0.641        0.227       83.084       23.984        0.083      344.846       21.953      860.776
06/07/2014  09:01:00      -15.607       21.142        5.652       39.252       35.668       28.947     1540.712     1272.224      837.928        0.219        0.183       26.279       25.892        0.971      344.511       21.383      860.767
06/07/2014  09:02:00       53.110       43.366       69.316       39.920       39.945       30.228     1593.602     1595.621      913.734        0.680        0.205       68.566       14.535        0.045      344.990       22.202      860.758
06/07/2014  09:03:00      105.424       89.814       10.074       42.847       31.933       44.604     1835.850     1019.699     1989.520        1.206        0.242      138.495       30.825        0.050      344.730       21.756      860.751
06/07/2014  09:04:00       86.328       48.217       25.865       33.788       42.915       27.740     1141.617     1841.728      769.493        0.710        0.188       98.881       19.066        0.037      344.778       21.839      860.748
06/07/2014  09:05:00       47.253       50.975       -3.813       28.519       31.967       23.731      813.334     1021.891      563.147        0.362        0.120       69.508       16.545        0.057      344.678       21.668      860.747
06/07/2014  09:06:00       26.421      -15.765       30.987       25.209       36.332       20.079      635.483     1320.040      403.166        0.213        0.118       30.767       12.766        0.172      345.226       22.607      860.742
06/07/2014  09:07:00       -0.492      -17.867       32.595       19.644       24.630       18.087      385.869      606.638      327.129        0.135        0.066       17.873       18.343        1.053      345.262       22.667      860.730
06/07/2014  09:08:00       -8.003       -3.146       26.206       14.625       17.074       15.233      213.895      291.506      232.052        0.075        0.037        8.599        8.811        1.050      345.923       23.802      860.722
06/07/2014  09:09:00       48.495       21.719       33.833       41.671       28.570       20.416     1736.445      816.262      416.808        0.347        0.148       53.136       23.583        0.197      345.485       23.049      860.705
06/07/2014  09:10:00       87.576       63.184        4.128       61.870       43.261       37.839     3827.849     1871.474     1431.780        0.940        0.357      107.990       28.440        0.069      345.438       22.968      860.702
06/07/2014  09:11:00      108.673       82.144       23.701       56.558       34.586       40.290     3198.858     1196.223     1623.272        1.257        0.301      136.226       23.940        0.031      345.255       22.655      860.692
06/07/2014  09:12:00       73.302       69.390       22.096       40.683       36.984       37.123     1655.129     1367.844     1378.136        0.754        0.220      100.936       22.976        0.052      345.392       22.890      860.685
06/07/2014  09:13:00       27.429       35.016       -8.534       36.535       27.488       26.120     1334.835      755.563      682.249        0.241        0.139       44.480        6.915        0.024      345.163       22.497      860.679
06/07/2014  09:14:00      -43.829       25.256        9.081       15.838       13.511       20.219      250.846      182.539      408.800        0.174        0.042       50.585       11.761        0.054      345.202       22.564      860.685
06/07/2014  09:15:00      -23.307       -4.424        8.746       19.597       10.133       17.857      384.024      102.687      318.873        0.072        0.040       23.723       12.803        0.291      345.679       23.383      860.688
06/07/2014  09:16:00       -4.398        2.079       51.793       53.955       50.857       41.491     2911.109     2586.391     1721.497        0.496        0.361        4.865       38.861       63.809      345.758       23.518      860.683
06/07/2014  09:17:00       55.547      -35.801       27.996       73.817      111.094       77.379     5448.935    12341.790     5987.433        1.446        1.189       66.085       86.653        1.719      345.716       23.446      860.671
06/07/2014  09:18:00        6.805        5.404       71.007       36.026       52.236       39.491     1297.879     2728.619     1559.555        0.535        0.279        8.690       30.201       12.078      345.960       23.865      860.664
06/07/2014  09:19:00        2.705      -63.156       27.977       36.986       59.442       41.051     1367.956     3533.332     1685.218        0.568        0.329       63.214       35.997        0.324      345.726       23.461      860.656
06/07/2014  09:20:00      -13.979      -50.542       16.825       32.487       50.785       37.962     1055.378     2579.160     1441.116        0.405        0.254       52.440       27.586        0.277      345.839       23.658      860.646
06/07/2014  09:21:00       32.698       54.888       50.846       64.168       32.983       41.559     4117.515     1087.862     1727.139        0.680        0.347       63.890       31.569        0.244      345.817       23.620      860.632
06/07/2014  09:22:00       68.028       77.322        7.907       59.741       43.109       26.653     3568.974     1858.360      710.375        0.840        0.307      102.988       14.246        0.019      345.313       22.755      860.620
06/07/2014  09:23:00       31.510       47.138       17.452       36.125       46.127       34.746     1305.002     2127.733     1207.292        0.408        0.232       56.700       31.631        0.311      345.888       23.741      860.611
06/07/2014  09:24:00       26.472       38.259       38.157       48.124       34.161       28.061     2315.884     1166.982      787.419        0.394        0.214       46.524       26.131        0.315      346.231       24.330      860.596
06/07/2014  09:25:00       34.128       43.609       35.733       50.283       50.509       34.457     2528.340     2551.170     1187.258        0.530        0.313       55.375       34.503        0.388      345.997       23.930      860.598
06/07/2014  09:26:00       62.084       50.452        7.681       50.522       28.651       36.225     2552.457      820.876     1312.272        0.557        0.234       79.999       29.076        0.132      345.700       23.417      860.601
06/07/2014  09:27:00       20.101       19.596       57.126       52.398       63.076       35.582     2745.539     3978.562     1266.112        0.602        0.400       28.072       32.851        1.369      346.119       24.137      860.598
06/07/2014  09:28:00       13.548       46.931       70.718       41.121       42.089       31.069     1690.914     1771.471      965.300        0.591        0.221       48.848       26.439        0.293      346.285       24.424      860.597
06/07/2014  09:29:00       65.508       41.361       70.142       61.408       64.520       48.210     3770.918     4162.876     2324.174        1.059        0.513       77.472       45.258        0.341      345.853       23.680      860.591
06/07/2014  09:30:00       79.538       93.396       83.717       69.458       43.464       54.582     4824.446     1889.088     2979.230        1.587        0.485      122.675       42.202        0.118      345.738       23.483      860.587
06/07/2014  09:31:00       83.155       53.085       20.744       75.998       41.330       43.375     5775.696     1708.145     1881.410        0.976        0.468       98.655       41.964        0.181      345.894       23.751      860.592
06/07/2014  09:32:00      114.170       74.618       29.324       59.235       41.593       43.534     3508.826     1730.005     1895.198        1.330        0.357      136.392       32.770        0.058      345.774       23.543      860.591
06/07/2014  09:33:00       68.023       47.676       15.665       35.824       22.016       26.958     1283.350      484.722      726.718        0.482        0.125       83.067       20.205        0.059      345.451       22.994      860.595
06/07/2014  09:34:00       12.674       32.636       -2.157       16.395       21.011       22.358      268.796      441.443      499.867        0.122        0.061       35.010        8.319        0.056      345.408       22.918      860.597
06/07/2014  09:35:00      -17.342       11.387       23.397       19.567       24.103       18.881      382.884      580.935      356.494        0.115        0.066       20.747       18.432        0.789      346.228       24.326      860.586
06/07/2014  09:36:00      -33.268        0.849       -3.708       18.491       12.043        7.231      341.935      145.028       52.281        0.083        0.027       33.279        8.074        0.059      345.232       22.615      860.582
06/07/2014  09:37:00       14.783      -44.512       -9.942       55.300       55.822       28.485     3058.126     3116.047      811.378        0.464        0.349       46.902       21.444        0.209      345.688       23.398      860.577
06/07/2014  09:38:00       44.429     -102.410       -5.602       37.907       53.482       31.170     1436.936     2860.309      971.585        0.888        0.263      111.632       15.776        0.020      345.671       23.368      860.566
06/07/2014  09:39:00      -28.661      -28.047        4.662       23.467       23.675       17.200      550.678      560.491      295.826        0.152        0.070       40.101       14.940        0.139      345.805       23.599      860.556
06/07/2014  09:40:00      -15.271       25.028       32.945       17.233       28.522       23.035      296.986      813.512      530.629        0.179        0.082       29.319        7.890        0.072      346.515       24.819      860.545
06/07/2014  09:41:00      -30.562       28.718       15.397       29.119       21.856       21.696      847.902      477.671      470.717        0.190        0.090       41.938       13.729        0.107      346.390       24.606      860.539
06/07/2014  09:42:00       15.052       52.021       27.403       84.056       49.233       32.336     7065.461     2423.854     1045.607        0.711        0.527       54.155       42.686        0.621      345.804       23.596      860.535
06/07/2014  09:43:00      152.257       90.762       25.683       52.030       36.518       39.129     2707.078     1333.537     1531.096        1.882        0.279      177.257       19.706        0.012      345.812       23.609      860.526
06/07/2014  09:44:00      111.672       68.803        6.557       86.857       56.224       51.729     7544.096     3161.180     2675.907        1.531        0.669      131.166       24.416        0.035      345.911       23.778      860.506
06/07/2014  09:45:00      113.902       82.910       30.701       71.497       57.454       42.571     5111.815     3300.976     1812.267        1.551        0.511      140.882       27.161        0.037      345.977       23.892      860.500
06/07/2014  09:46:00      105.834       81.857       10.517       78.160       47.382       36.992     6108.993     2245.096     1368.436        1.387        0.486      133.796       26.065        0.038      346.090       24.088      860.488
06/07/2014  09:47:00       84.069       68.661       44.246       61.630       53.153       51.371     3798.258     2825.275     2639.029        1.150        0.463      108.544       37.899        0.122      346.431       24.673      860.476
06/07/2014  09:48:00       49.392       15.233       27.568       51.784       82.994       44.946     2681.569     6888.041     2020.177        0.751        0.579       51.688       12.603        0.059      346.212       24.297      860.463
06/07/2014  09:49:00       -1.239       46.115       22.662       34.474       58.301       53.212     1188.427     3398.972     2831.472        0.503        0.371       46.132       30.380        0.434      346.213       24.298      860.454
06/07/2014  09:50:00       14.004      -33.942       38.840       48.458       95.051       41.510     2348.197     9034.776     1723.068        0.798        0.655       36.717       56.063        2.331      346.511       24.812      860.446
06/07/2014  09:51:00       42.751      -13.201       41.730       49.816       79.147       45.389     2481.634     6264.203     2060.136        0.727        0.540       44.743       58.030        1.682      346.434       24.678      860.431
06/07/2014  09:52:00      -11.685       14.668       44.241       26.084       49.777       35.011      680.357     2477.704     1225.795        0.335        0.219       18.753       33.423        3.176      346.515       24.818      860.424
06/07/2014  09:53:00       79.960       55.026        5.137       58.317       47.840       46.080     3400.876     2288.632     2123.351        0.863        0.391       97.064       28.149        0.084      346.318       24.480      860.411
06/07/2014  09:54:00       94.417       68.989       16.620       52.465       43.934       44.278     2752.614     1930.154     1960.575        1.030        0.332      116.936       20.186        0.030      346.448       24.703      860.403
06/07/2014  09:55:00       44.785       36.149       46.807       36.175       31.909       34.178     1308.637     1018.166     1168.139        0.450        0.175       57.553       21.554        0.140      346.850       25.396      860.386
06/07/2014  09:56:00        7.651      110.363      134.687       49.666       83.683       66.890     2466.693     7002.912     4474.261        2.216        0.697      110.628       66.476        0.361      346.545       24.868      860.376
06/07/2014  09:57:00      171.097      117.963       99.461      111.162       96.097       75.575    12357.030     9234.722     5711.543        4.019        1.365      207.821       70.055        0.114      345.915       23.782      860.369
06/07/2014  09:58:00       94.368       90.235       95.551       99.533       87.575       77.983     9906.738     7669.328     6081.315        2.491        1.183      130.566       67.758        0.269      346.235       24.334      860.351
06/07/2014  09:59:00      115.542       93.158       72.998       84.011       76.665       61.335     7057.822     5877.526     3762.020        2.202        0.835      148.419       35.135        0.056      346.315       24.473      860.346
06/07/2014  10:00:00      159.536      101.900       57.817       69.876       64.514       63.151     4882.689     4162.072     3988.095        2.610        0.652      189.302       49.161        0.067      346.025       23.973      860.351
06/07/2014  10:01:00      119.181       94.048       33.668       50.201       51.174       44.469     2520.091     2618.806     1977.466        1.565        0.356      151.819       27.383        0.033      345.889       23.743      860.344
06/07/2014  10:02:00      111.746       85.554       39.197       32.761       22.490       38.493     1073.270      505.815     1481.685        1.220        0.153      140.737       21.640        0.024      345.931       23.816      860.331
06/07/2014  10:03:00      137.385       35.221       18.311       43.038       34.055       36.934     1852.310     1159.741     1364.118        1.241        0.219      141.828       23.594        0.028      345.914       23.786      860.319
06/07/2014  10:04:00       95.198       78.739       34.473       47.128       38.419       40.443     2221.090     1476.043     1635.612        1.089        0.267      123.542       34.712        0.079      346.279       24.413      860.293
06/07/2014  10:05:00       40.272       53.959       82.280       56.079       51.837       35.547     3144.847     2687.061     1263.591        0.920        0.355       67.331       39.033        0.336      346.736       25.198      860.278
06/07/2014  10:06:00       34.017        4.023       19.946       48.899       30.734       35.485     2391.093      944.593     1259.195        0.308        0.230       34.254       25.951        0.574      346.212       24.297      860.268
06/07/2014  10:07:00       19.460       -2.527       41.626       26.029       41.585       26.446      677.525     1729.302      699.410        0.261        0.155       19.624       23.547        1.440      346.645       25.042      860.244
06/07/2014  10:08:00        5.947       -2.521       37.562       21.977       45.554       23.270      482.990     2075.201      541.501        0.228        0.155        6.460       22.915       12.584      346.695       25.128      860.233
06/07/2014  10:09:00       30.024       37.197       61.622       66.945       43.006       46.750     4481.616     1849.491     2185.587        0.730        0.426       47.802       42.580        0.793      347.125       25.869      860.225
06/07/2014  10:10:00      104.973       76.133       56.261       92.150       71.359       64.010     8491.618     5092.069     4097.326        1.883        0.884      129.674       49.602        0.146      346.606       24.974      860.215
06/07/2014  10:11:00      179.541      118.544       55.689       89.314       66.694       57.562     7976.997     4448.099     3313.353        3.256        0.787      215.146       35.209        0.027      346.179       24.238      860.195
06/07/2014  10:12:00      125.592       85.398       63.846       79.283       69.699       58.313     6285.782     4857.891     3400.457        2.084        0.727      151.876       47.787        0.099      346.414       24.643      860.174
06/07/2014  10:13:00       66.380       51.414       73.431       58.691       73.190       56.121     3444.633     5356.766     3149.529        1.219        0.598       83.962       55.791        0.442      346.805       25.317      860.185
06/07/2014  10:14:00       50.510        3.347       58.919       55.566       92.185       63.742     3087.555     8498.090     4063.013        1.084        0.782       50.620       66.142        1.707      347.075       25.782      860.172
06/07/2014  10:15:00       84.187      -70.412       28.612       72.784      114.892       68.068     5297.525    13200.243     4633.268        1.799        1.157      109.751       81.211        0.548      346.712       25.157      860.178
06/07/2014  10:16:00      107.217      -63.249       37.626       72.462       76.356       56.296     5250.768     5830.307     3169.210        1.558        0.713      124.482       50.187        0.163      346.571       24.913      860.168
06/07/2014  10:17:00       29.746      -91.635       29.864       54.765       80.517       55.282     2999.202     6482.918     3056.079        1.135        0.627       96.343       51.660        0.288      346.487       24.770      860.155
06/07/2014  10:18:00       -7.746      -26.980       41.136       33.018       70.807       43.528     1090.216     5013.598     1894.653        0.524        0.400       28.070       45.600        2.639      346.975       25.609      860.138
06/07/2014  10:19:00       19.961       41.414       41.404       37.327       35.233       32.836     1393.317     1241.391     1078.192        0.377        0.186       45.973       19.250        0.175      346.692       25.124      860.132
06/07/2014  10:20:00       37.581       -8.704        5.222       65.138       50.912       26.155     4242.950     2592.030      684.096        0.452        0.376       38.576       11.309        0.086      346.640       25.033      860.129
06/07/2014  10:21:00       23.459       28.284       68.850       59.995       43.760       49.506     3599.438     1914.914     2450.821        0.703        0.398       36.746       38.702        1.109      346.987       25.631      860.134
06/07/2014  10:22:00       48.861      -40.976       26.841       65.851       55.882       34.127     4336.295     3122.844     1164.644        0.670        0.431       63.768       30.124        0.223      346.374       24.576      860.119
06/07/2014  10:23:00       67.385       29.147       43.649       52.865       54.329       43.768     2794.679     2951.624     1915.677        0.748        0.383       73.418       35.901        0.239      346.995       25.644      860.124
06/07/2014  10:24:00       59.746       32.348       38.593       77.837       65.410       47.398     6058.671     4278.496     2246.550        0.934        0.629       67.941       37.610        0.306      346.795       25.300      860.124
06/07/2014  10:25:00       92.718       84.756       60.042       79.443       68.367       74.168     6311.154     4674.050     5500.833        1.793        0.824      125.620       50.702        0.163      347.000       25.653      860.120
06/07/2014  10:26:00      204.314       95.436       15.889       95.657       88.667       61.866     9150.272     7861.889     3827.423        3.597        1.042      225.505       49.115        0.047      346.746       25.213      860.125
06/07/2014  10:27:00      125.852       98.288      103.487      101.254       81.585       75.918    10252.408     6656.046     5763.499        2.944        1.134      159.685       54.423        0.116      347.218       26.026      860.133
06/07/2014  10:28:00      139.628       29.567       69.954      136.074       89.612       66.738    18516.101     8030.246     4453.930        2.813        1.550      142.724       59.323        0.173      346.952       25.569      860.138
06/07/2014  10:29:00      182.978       88.691       89.642      115.201       90.381       83.902    13271.178     8168.769     7039.612        3.893        1.424      203.340       69.216        0.116      346.439       24.683      860.158
06/07/2014  10:30:00      130.407       47.934       58.018      113.944       71.016       61.149    12983.241     5043.289     3739.207        2.221        1.088      138.938       41.413        0.089      346.583       24.934      860.150
06/07/2014  10:31:00      147.657       88.707      130.257      113.581      114.420       99.943    12900.703    13091.916     9988.665        4.130        1.799      172.254       86.005        0.249      346.356       24.541      860.133
06/07/2014  10:32:00       89.505      107.560      102.285       87.500       55.109       65.212     7656.231     3036.953     4252.610        2.249        0.747      139.930       51.715        0.137      346.545       24.867      860.138
06/07/2014  10:33:00       99.212       93.147       42.130       92.704       79.427       55.290     8594.109     6308.705     3056.941        1.912        0.898      136.086       35.346        0.067      346.628       25.010      860.120
06/07/2014  10:34:00      -10.972       -4.877       11.942       43.770       49.944       39.002     1915.774     2494.434     1521.146        0.311        0.297       12.007       39.405       10.771      346.849       25.392      860.117
06/07/2014  10:35:00      104.071     -102.609       18.966       94.028      102.701       53.787     8841.352    10547.453     2893.062        2.200        1.114      146.149       67.240        0.212      346.823       25.346      860.090
06/07/2014  10:36:00       47.041       60.352       70.056       52.102       78.395       52.469     2714.653     6145.722     2753.015        1.119        0.581       76.520       46.811        0.374      347.155       25.921      860.078
06/07/2014  10:37:00      113.485      104.356       47.668       85.897       56.540       61.484     7378.315     3196.771     3780.243        2.020        0.718      154.172       58.654        0.145      347.052       25.742      860.091
06/07/2014  10:38:00      143.691       93.593       21.960      102.477       89.809       82.071    10501.540     8065.644     6735.619        2.759        1.265      171.484       50.871        0.088      346.891       25.463      860.105
06/07/2014  10:39:00      218.215      112.990        5.208       92.650       80.408       61.558     8584.004     6465.369     3789.411        3.962        0.942      245.733       21.516        0.008      346.582       24.931      860.103
06/07/2014  10:40:00      122.721      128.830       25.547       92.146       65.963       58.659     8490.954     4351.094     3440.903        2.429        0.814      177.926       37.635        0.045      346.714       25.160      860.116
06/07/2014  10:41:00       57.034       88.066        0.145       77.394       46.191       44.011     5989.904     2133.623     1936.992        1.053        0.503      104.922       29.611        0.080      346.582       24.933      860.130
06/07/2014  10:42:00       -2.211       26.291       37.807       31.316       39.641       24.253      980.691     1571.405      588.213        0.263        0.157       26.383       21.224        0.647      347.343       26.244      860.110
06/07/2014  10:43:00       43.496       24.275       19.106       75.421       48.695       34.089     5688.292     2371.215     1162.028        0.603        0.461       49.811       25.604        0.264      347.121       25.861      860.099
06/07/2014  10:44:00       98.113       48.948       35.447       99.634       58.887       54.597     9926.893     3467.658     2980.859        1.482        0.819      109.645       33.871        0.095      347.142       25.895      860.096
06/07/2014  10:45:00       50.215       83.822       -6.190       43.054       75.444       39.419     1853.614     5691.793     1553.832        0.934        0.455       97.712       39.879        0.167      346.986       25.628      860.092
06/07/2014  10:46:00       73.663      245.441      -34.604      103.311      154.001       63.606    10673.176    23716.188     4045.661        5.264        1.922      256.256       79.383        0.096      346.717       25.164      860.068
06/07/2014  10:47:00       18.343      347.693      -50.475       71.861       97.785       48.363     5164.045     9561.821     2338.995        7.042        0.853      348.177       55.480        0.025      346.276       24.403      860.064
06/07/2014  10:48:00      -49.256      262.705      -25.759       66.152       96.882       46.566     4376.071     9386.077     2168.420        4.401        0.797      267.283       44.381        0.028      346.434       24.676      860.045
06/07/2014  10:49:00       72.823       99.570        5.522       76.063       65.615       48.826     5785.634     4305.391     2383.970        1.386        0.624      123.359       41.801        0.115      346.839       25.374      860.033
06/07/2014  10:50:00       67.377       73.977      -14.300       42.704       63.812       38.092     1823.603     4072.033     1451.013        0.878        0.367      100.061       37.239        0.139      346.963       25.589      860.010
06/07/2014  10:51:00       -7.569      190.820      -25.267       46.564       53.855       29.028     2168.249     2900.364      842.644        2.151        0.296      190.970       22.066        0.013      346.846       25.387      860.020
06/07/2014  10:52:00      -26.313      339.315      -28.353       49.642       61.506       42.617     2464.336     3783.028     1816.234        6.235        0.403      340.334       27.651        0.007      346.713       25.154      860.013
06/07/2014  10:53:00       93.513      142.139      -12.878       78.806      109.892       56.725     6210.413    12076.340     3217.744        2.530        1.075      170.141       50.690        0.089      346.826       25.352      860.020
06/07/2014  10:54:00       -3.091      190.121      -11.319       47.478       92.684       42.160     2254.186     8590.382     1777.475        2.445        0.631      190.146       53.645        0.080      346.987       25.631      860.025
06/07/2014  10:55:00       19.885      121.638        6.844       64.653       99.061       43.105     4180.027     9813.084     1858.055        1.554        0.793      123.252       44.737        0.132      347.069       25.771      860.021
06/07/2014  10:56:00       78.943      153.870       -2.613      121.154       97.679       57.945    14678.200     9541.097     3357.616        2.874        1.379      172.939       54.082        0.098      346.704       25.140      860.027
06/07/2014  10:57:00      150.886      107.332       21.993       72.012       47.506       45.928     5185.663     2256.804     2109.377        2.216        0.478      185.167       15.732        0.007      346.558       24.890      860.039
06/07/2014  10:58:00       41.743       73.403       -6.334       49.194       79.465       30.188     2420.096     6314.644      911.289        0.841        0.482       84.442       20.094        0.057      346.497       24.787      860.046
06/07/2014  10:59:00       -4.271       46.471       10.096       31.319       83.930       28.636      980.907     7044.322      820.003        0.556        0.442       46.667       38.527        0.682      347.255       26.092      860.043
06/07/2014  11:00:00       76.271       39.083       26.327       49.606       44.271       36.415     2460.777     1959.909     1326.029        0.689        0.287       85.702       29.441        0.118      347.099       25.824      860.039
06/07/2014  11:01:00       48.387       56.357       12.470       48.783       28.771       34.703     2379.790      827.795     1204.289        0.504        0.221       74.279       13.904        0.035      347.072       25.777      860.034
06/07/2014  11:02:00      -10.143       83.782        4.253       29.797       72.789       33.275      887.889     5298.252     1107.251        0.722        0.365       84.394       35.775        0.180      347.435       26.403      860.036
06/07/2014  11:03:00       -2.875       81.383        2.596       27.125       43.875       31.629      735.791     1925.038     1000.369        0.515        0.183       81.434       21.236        0.068      347.310       26.186      860.039
06/07/2014  11:04:00      -38.963       71.297        0.764       73.259      106.230       42.816     5366.931    11284.893     1833.240        1.254        0.924       81.249       43.627        0.288      347.025       25.696      860.023
06/07/2014  11:05:00      145.036      134.114       20.168      133.537       76.972       68.523    17832.091     5924.761     4695.465        3.393        1.423      197.540       51.372        0.068      347.275       26.124      860.014
06/07/2014  11:06:00      110.299      122.305        1.317       87.474       90.580       58.501     7651.730     8204.773     3422.328        2.320        0.964      164.695       45.497        0.076      347.142       25.896      860.014
06/07/2014  11:07:00       94.645      115.386       11.552       84.495       85.986       53.270     7139.455     7393.565     2837.673        1.988        0.869      149.237       50.204        0.113      347.335       26.228      860.005
06/07/2014  11:08:00      169.330      102.456       46.876       86.270       68.632       48.861     7442.466     4710.374     2387.399        2.795        0.727      197.914       37.385        0.036      347.117       25.851      860.008
06/07/2014  11:09:00       88.926      110.733       84.921       92.769       90.241       75.331     8606.151     8143.372     5674.690        2.490        1.121      142.019       63.580        0.200      347.372       26.292      860.004
06/07/2014  11:10:00      118.555       99.415       18.595      114.198       84.661       64.803    13041.110     7167.421     4199.444        2.434        1.220      154.721       45.169        0.085      347.410       26.357      860.017
06/07/2014  11:11:00       76.623      171.548      -11.128       90.206      101.547       67.998     8137.185    10311.715     4623.719        2.924        1.154      187.883       57.986        0.095      347.212       26.015      860.034
06/07/2014  11:12:00       81.292      100.613        1.849       73.174       76.183       48.401     5354.434     5803.805     2342.652        1.512        0.675      129.350       46.491        0.129      347.036       25.714      860.037
06/07/2014  11:13:00       97.739      116.085        5.249       83.024       77.981       47.555     6893.000     6081.052     2261.465        1.914        0.762      151.752       36.221        0.057      347.033       25.707      860.033
06/07/2014  11:14:00      159.116       87.589       40.259       95.744       66.139       64.515     9166.917     4374.314     4162.141        2.615        0.885      181.631       38.646        0.045      347.158       25.921      860.039
06/07/2014  11:15:00      110.549       88.844       45.979       86.253       57.828       53.556     7439.660     3344.068     2868.298        1.794        0.683      141.825       38.740        0.075      347.384       26.314      860.036
06/07/2014  11:16:00       46.819      124.633        7.654       58.698      110.129       55.576     3445.506    12128.294     3088.705        1.822        0.933      133.137       46.308        0.121      347.105       25.831      860.048
06/07/2014  11:17:00       12.150      216.768      -26.444       71.096       65.269       43.689     5054.700     4260.017     1908.755        2.953        0.561      217.109       38.640        0.032      346.779       25.268      860.050
06/07/2014  11:18:00      -32.554       54.024       -6.445       66.562       72.323       36.152     4430.553     5230.579     1306.935        0.749        0.548       63.075       47.754        0.573      346.987       25.632      860.035
06/07/2014  11:19:00       73.501       75.910       49.644       86.895       61.997       39.260     7550.682     3843.681     1541.331        1.328        0.647      105.664       41.819        0.157      347.578       26.649      860.028
06/07/2014  11:20:00      109.033       90.874        7.514       71.723       54.205       33.988     5144.193     2938.218     1155.156        1.472        0.462      141.938       17.556        0.015      346.651       25.052      860.019
06/07/2014  11:21:00      123.955      112.114       -0.421       87.946       61.647       46.798     7734.442     3800.358     2190.066        2.083        0.686      167.136       42.063        0.063      346.977       25.612      860.026
06/07/2014  11:22:00       58.749      100.480       -3.947       54.216       68.848       46.874     2939.387     4740.004     2197.159        1.172        0.494      116.394       45.244        0.151      347.007       25.665      860.016
06/07/2014  11:23:00       61.029       64.486       35.255       27.299       25.341       31.864      745.234      642.147     1015.294        0.576        0.120       88.786       19.140        0.046      347.017       25.681      859.987
06/07/2014  11:24:00       39.460       42.734       48.080       33.556       28.408       20.113     1126.007      807.005      404.527        0.402        0.117       58.166       12.415        0.046      347.068       25.770      859.965
06/07/2014  11:25:00      -10.089       34.056       -2.562       26.159       44.964       21.598      684.315     2021.806      466.455        0.222        0.159       35.519       16.848        0.225      347.228       26.046      859.944
06/07/2014  11:26:00      -33.281      -38.136        4.337       18.307       28.234       20.476      335.155      797.170      419.276        0.207        0.078       50.616       12.404        0.060      347.405       26.350      859.928
06/07/2014  11:27:00       59.399       57.680       52.719       40.611       38.728       34.958     1649.213     1499.851     1222.059        0.700        0.219       82.796       19.468        0.055      347.342       26.243      859.917
06/07/2014  11:28:00       59.182       83.586       23.518       69.267       39.726       71.445     4797.942     1578.129     5104.353        1.126        0.574      102.416       31.927        0.097      347.008       25.666      859.897
06/07/2014  11:29:00       13.664       33.101       21.272       35.193       33.222       36.540     1238.574     1103.708     1335.165        0.271        0.184       35.811       19.410        0.294      347.738       26.925      859.890
06/07/2014  11:30:00       49.176        9.113       58.244       60.964       52.972       46.395     3716.618     2806.053     2152.515        0.728        0.434       50.013       40.093        0.643      347.749       26.944      859.881
06/07/2014  11:31:00      -56.699       11.503      -25.740       65.526       40.640       24.596     4293.615     1651.600      604.970        0.528        0.328       57.854        8.840        0.023      346.841       25.379      859.863
06/07/2014  11:32:00      -20.630       -2.788       18.984       33.192       27.259       35.374     1101.680      743.030     1251.319        0.194        0.155       20.817       27.202        1.707      347.812       27.053      859.839
06/07/2014  11:33:00       96.329       82.694       28.346       56.684       41.930       39.583     3213.039     1758.090     1566.842        1.173        0.327      126.955       25.332        0.040      347.399       26.341      859.810
06/07/2014  11:34:00       66.804      149.867       -6.151       63.652      102.259       59.273     4051.631    10456.902     3513.321        2.249        0.901      164.082       60.480        0.136      347.288       26.146      859.801
06/07/2014  11:35:00        2.072      268.680      -36.878       46.348      104.336       39.095     2148.132    10885.914     1528.389        4.406        0.728      268.688       48.403        0.032      346.874       25.433      859.770
06/07/2014  11:36:00      -36.790       78.613        3.200       34.868       58.106       36.450     1215.750     3376.357     1328.616        0.673        0.296       86.796       36.149        0.173      347.663       26.796      859.752
06/07/2014  11:37:00       80.364      117.820       24.127      117.894       73.627       63.631    13898.967     5420.956     4048.923        2.214        1.168      142.618       50.485        0.125      347.586       26.661      859.740
06/07/2014  11:38:00      103.268      122.985        7.609       88.709       76.562       49.608     7869.336     5861.789     2460.970        2.102        0.810      160.591       46.993        0.086      347.175       25.951      859.731
06/07/2014  11:39:00       -1.769       85.419       13.717       57.371       94.047       46.504     3291.450     8844.916     2162.587        1.089        0.715       85.438       46.858        0.301      347.864       27.143      859.713
06/07/2014  11:40:00      134.672       89.774       11.575       61.385       50.276       46.685     3768.136     2527.662     2179.481        1.740        0.424      161.851       29.861        0.034      347.467       26.458      859.719
06/07/2014  11:41:00      -52.611       48.248      -16.843       41.048       44.506       23.652     1684.937     1980.817      559.423        0.480        0.211       71.385       18.606        0.068      347.152       25.915      859.698
06/07/2014  11:42:00      -18.598       44.660       26.076       73.944       29.985       47.147     5467.763      899.112     2222.811        0.580        0.429       48.378       48.226        0.994      347.717       26.890      859.679
06/07/2014  11:43:00       49.072       53.728        2.897       65.273       48.449       35.753     4260.590     2347.293     1278.308        0.659        0.394       72.765       28.379        0.152      347.884       27.177      859.650
06/07/2014  11:44:00      134.264       92.904       11.088       73.684       50.667       43.331     5429.366     2567.119     1877.591        1.833        0.494      163.273       33.676        0.043      347.577       26.645      859.633
06/07/2014  11:45:00       79.619      112.705        6.666       93.773       71.289       51.996     8793.450     5082.170     2703.535        1.783        0.829      137.991       49.396        0.128      347.556       26.610      859.634
06/07/2014  11:46:00      166.687      120.924       19.234       77.998       57.221       45.074     6083.616     3274.206     2031.690        2.708        0.569      205.930       32.565        0.025      347.544       26.588      859.620
06/07/2014  11:47:00      143.996      133.184       10.948       78.500       63.930       62.172     6162.305     4087.094     3865.338        2.635        0.706      196.145       42.659        0.047      347.636       26.747      859.610
06/07/2014  11:48:00       91.057       93.323      -11.685      105.582       63.920       29.934    11147.490     4085.779      896.064        1.663        0.806      130.387       23.488        0.032      347.272       26.119      859.608
06/07/2014  11:49:00      -56.712      143.405      -14.951       38.487       46.716       31.243     1481.238     2182.421      976.133        1.432        0.232      154.211       25.029        0.026      347.260       26.101      859.606
06/07/2014  11:50:00      -20.895       83.155       -2.147       36.791       53.263       34.308     1353.573     2836.936     1177.005        0.636        0.268       85.741       16.564        0.037      347.641       26.757      859.595
06/07/2014  11:51:00       22.636       35.156       27.411       73.341       54.509       44.920     5378.859     2971.246     2017.816        0.643        0.518       41.813       46.409        1.232      347.453       26.433      859.592
06/07/2014  11:52:00      -12.103      -44.328        7.579       39.146       43.705       25.731     1532.401     1910.153      662.100        0.314        0.205       45.950       18.120        0.155      347.848       27.117      859.564
06/07/2014  11:53:00        2.720      -34.509       52.988       52.441       49.398       37.165     2750.012     2440.135     1381.266        0.529        0.329       34.616       26.490        0.586      348.257       27.822      859.547
06/07/2014  11:54:00       -7.672      -44.087       26.765       23.424       37.677       35.630      548.675     1419.523     1269.506        0.298        0.162       44.749       22.562        0.254      348.094       27.540      859.532
06/07/2014  11:55:00        9.980        7.376       69.746       31.831       56.234       38.553     1013.213     3162.288     1486.325        0.534        0.283       12.410       36.391        8.599      348.260       27.827      859.528
06/07/2014  11:56:00       50.769      -10.027       37.821       48.098       54.636       42.874     2313.393     2985.071     1838.183        0.562        0.357       51.750       39.576        0.585      348.160       27.654      859.523
06/07/2014  11:57:00      131.357       89.993       19.686       56.113       77.799       52.612     3148.707     6052.646     2768.003        1.885        0.598      159.227       28.314        0.032      347.534       26.572      859.518
06/07/2014  11:58:00      113.080     -101.386       18.734       82.065       84.988       52.227     6734.657     7222.953     2727.676        2.005        0.834      151.876       59.638        0.154      347.887       27.182      859.488
06/07/2014  11:59:00       48.516       24.104       70.974       49.341       99.678       58.051     2434.537     9935.635     3369.932        1.185        0.787       54.174       61.320        1.281      348.056       27.475      859.474
06/07/2014  12:00:00       87.195       61.101        5.839      113.693       79.109       48.108    12926.173     6258.311     2314.403        1.643        1.075      106.472       42.273        0.158      347.650       26.772      859.481
06/07/2014  12:01:00      201.617      138.178       46.727      106.294       80.404       75.426    11298.497     6464.778     5689.145        4.268        1.173      244.423       49.559        0.041      347.410       26.356      859.471
06/07/2014  12:02:00      125.632      102.868       23.193      111.293       80.937       70.091    12386.121     6550.866     4912.778        2.537        1.192      162.374       48.723        0.090      347.561       26.618      859.442
06/07/2014  12:03:00      181.840      139.465        6.114      122.082       86.297       80.027    14903.983     7447.253     6404.355        4.065        1.438      229.164       51.899        0.051      347.713       26.879      859.448
06/07/2014  12:04:00      110.218       84.188       22.196       96.732       52.831       58.261     9357.172     2791.119     3394.349        1.763        0.777      138.693       47.892        0.119      347.825       27.073      859.429
06/07/2014  12:05:00      143.939      126.669       38.421       88.651       59.830       68.998     7858.917     3579.680     4760.729        2.722        0.810      191.738       38.306        0.040      347.784       27.002      859.432
06/07/2014  12:06:00       82.838       95.895       41.677       81.952       87.725       63.828     6716.211     7695.636     4074.018        1.814        0.924      126.720       42.964        0.115      347.976       27.334      859.435
06/07/2014  12:07:00      210.909      110.854       38.411      103.358       87.383       66.105    10682.812     7635.796     4369.877        4.046        1.134      238.267       32.373        0.018      347.897       27.195      859.418
06/07/2014  12:08:00      265.805      190.027       16.054      116.603       84.275       71.878    13596.256     7102.196     5166.454        6.644        1.293      326.745       44.654        0.019      347.672       26.809      859.427
06/07/2014  12:09:00      297.189      215.883       22.417       98.142       84.171       71.669     9631.794     7084.809     5136.428        7.864        1.093      367.323       48.258        0.017      347.245       26.072      859.442
06/07/2014  12:10:00       45.719       49.650        8.477       90.430       67.839       34.925     8177.565     4602.096     1219.784        0.931        0.700       67.493       33.931        0.253      347.515       26.540      859.453
06/07/2014  12:11:00       42.606       58.063       14.354       59.696       40.994       36.476     3563.554     1680.532     1330.518        0.598        0.329       72.018       29.504        0.168      347.883       27.175      859.442
06/07/2014  12:12:00      152.369      117.834       12.554       69.099       41.677       39.380     4774.645     1736.961     1550.754        2.266        0.403      192.617       31.035        0.026      347.329       26.216      859.439
06/07/2014  12:13:00       21.890       75.338       -0.216       56.224       49.142       32.554     3161.125     2414.944     1059.741        0.639        0.332       78.454       21.426        0.075      347.761       26.965      859.431
06/07/2014  12:14:00      -12.541       56.536       -9.502       38.141       61.394       24.375     1454.750     3769.274      594.159        0.463        0.291       57.910       20.281        0.123      347.798       27.029      859.419
06/07/2014  12:15:00       19.413       67.295      -13.052       47.582       39.953       28.469     2264.080     1596.235      810.458        0.487        0.234       70.040       23.349        0.111      348.029       27.428      859.398
06/07/2014  12:16:00      -89.244       40.718      -20.357       39.701       49.944       25.842     1576.166     2494.372      667.810        0.739        0.237       98.094       24.464        0.062      347.540       26.583      859.381
06/07/2014  12:17:00      -41.144       49.955        1.105       36.001       46.281       30.174     1296.082     2141.971      910.442        0.427        0.217       64.718       20.533        0.101      348.193       27.711      859.361
06/07/2014  12:18:00      -14.428       21.758       29.031       27.193       23.469       25.931      739.457      550.777      672.440        0.174        0.098       26.108       21.012        0.648      348.769       28.706      859.349
06/07/2014  12:19:00      -84.131       10.551        5.614       65.794       47.654       30.793     4328.819     2270.863      948.222        0.738        0.377       84.790       33.813        0.159      348.366       28.009      859.317
06/07/2014  12:20:00     -139.763      140.392      -21.005       59.984       71.940       46.290     3598.121     5175.398     2142.799        2.530        0.546      198.101       41.352        0.044      347.684       26.829      859.297
06/07/2014  12:21:00     -102.186       37.734       -2.442       91.548       54.198       39.840     8381.046     2937.431     1587.199        1.239        0.645      108.931       48.759        0.200      348.278       27.859      859.281
06/07/2014  12:22:00     -172.406       -8.307       -2.668       80.417      141.365       47.081     6466.873    19984.032     2216.617        2.923        1.433      172.606       41.997        0.059      347.824       27.071      859.244
06/07/2014  12:23:00     -113.914      -44.468        4.973       83.015       81.992       44.406     6891.569     6722.621     1971.933        1.528        0.779      122.286       38.927        0.101      348.030       27.430      859.215
06/07/2014  12:24:00     -156.759      -24.194       -3.306      111.993       78.868       55.216    12542.396     6220.092     3048.848        2.349        1.091      158.615       52.124        0.108      347.998       27.371      859.206
06/07/2014  12:25:00     -222.714       34.012      -16.714       56.931       50.836       30.144     3241.089     2584.348      908.673        2.888        0.337      225.296       31.797        0.020      347.501       26.513      859.196
06/07/2014  12:26:00     -116.962        2.263       -8.987       63.900       50.323       30.011     4083.198     2532.371      900.687        1.064        0.376      116.984       31.436        0.072      347.857       27.129      859.177
06/07/2014  12:27:00        3.171       -3.722       15.272       33.073       23.475       22.477     1093.801      551.071      505.231        0.120        0.108        4.889        6.311        1.666      348.382       28.039      859.192
06/07/2014  12:28:00       34.234       46.655       28.116       47.756       43.108       33.061     2280.656     1858.296     1093.003        0.468        0.262       57.868       27.661        0.228      348.575       28.373      859.185
06/07/2014  12:29:00       55.970       69.362       -3.262       98.131       67.812       46.472     9629.774     4598.456     2159.607        1.217        0.819       89.128       34.796        0.152      348.192       27.708      859.172
06/07/2014  12:30:00      -48.088       44.807        6.379       59.563       62.580       37.904     3547.695     3916.213     1436.712        0.663        0.445       65.727       49.128        0.559      348.523       28.283      859.180
06/07/2014  12:31:00       48.904       81.711        3.366       81.157       94.487       59.760     6586.396     8927.720     3571.205        1.408        0.954       95.227       52.137        0.300      348.346       27.974      859.149
06/07/2014  12:32:00      131.806      142.110       24.425      108.728       80.612       74.601    11821.671     6498.253     5565.239        3.102        1.194      193.825       54.026        0.078      348.211       27.738      859.138
06/07/2014  12:33:00       26.709      236.912      -13.068       89.521      123.357       75.127     8014.040    15216.974     5644.103        4.294        1.444      238.413       77.484        0.106      348.034       27.434      859.133
06/07/2014  12:34:00       58.448      118.342       -3.552       69.084      105.803       42.957     4772.534    11194.271     1845.336        1.762        0.891      131.989       50.204        0.145      347.943       27.279      859.142
06/07/2014  12:35:00      -53.088      115.936       -6.549       37.321       77.406       34.971     1392.893     5991.717     1222.980        1.245        0.430      127.513       33.677        0.070      348.242       27.795      859.124
06/07/2014  12:36:00      -26.302      207.391      -14.288       45.631       58.364       38.565     2082.208     3406.385     1487.252        2.544        0.349      209.052       33.030        0.025      348.057       27.472      859.111
06/07/2014  12:37:00     -134.199      104.413      -20.413      106.449       75.968       44.824    11331.461     5771.067     2009.157        2.422        0.956      170.034       41.564        0.060      348.230       27.772      859.090
06/07/2014  12:38:00     -119.917      172.119      -28.948       57.809       70.769       47.796     3341.895     5008.265     2284.484        2.774        0.532      209.773       50.614        0.058      348.047       27.455      859.071
06/07/2014  12:39:00       86.241      121.650        6.318      108.899       64.865       52.737    11859.033     4207.477     2781.150        2.056        0.942      149.118       49.034        0.108      348.542       28.312      859.065
06/07/2014  12:40:00      113.986      116.231       92.958      115.266       60.208       70.948    13286.273     3625.051     5033.611        2.854        1.097      162.796       73.801        0.206      348.376       28.024      859.057
06/07/2014  12:41:00      121.111       66.913       97.142      124.371       89.357       77.423    15468.150     7984.692     5994.390        2.901        1.472      138.366       72.403        0.274      348.654       28.505      859.035
06/07/2014  12:42:00      239.315      112.348       41.785      123.975       86.819       69.967    15369.888     7537.517     4895.326        4.972        1.390      264.374       30.594        0.013      348.138       27.614      859.043
06/07/2014  12:43:00      226.868      132.133       24.347      114.493       82.240       68.209    13108.686     6763.458     4652.490        4.702        1.226      262.542       31.924        0.015      347.971       27.323      859.040
06/07/2014  12:44:00      222.555      154.559        3.808      120.050       79.080       63.807    14411.908     6253.638     4071.347        4.908        1.237      270.960       41.521        0.023      347.865       27.141      859.033
06/07/2014  12:45:00       98.089       92.524       12.232       85.040       62.038       44.169     7231.804     3848.737     1950.866        1.568        0.652      134.842       38.193        0.080      348.169       27.670      859.027
06/07/2014  12:46:00      -10.597      163.961      -22.826       51.238       56.689       23.803     2625.348     3213.591      566.568        1.696        0.320      164.303       21.172        0.017      347.737       26.924      859.013
06/07/2014  12:47:00       43.679       72.617        3.136       65.890       53.504       34.901     4341.483     2862.681     1218.096        0.780        0.421       84.741       20.545        0.059      348.387       28.047      858.991
06/07/2014  12:48:00      130.559       84.523       24.294       51.188       36.768       49.165     2620.214     1351.859     2417.229        1.558        0.319      155.530       14.551        0.009      347.989       27.360      858.985
06/07/2014  12:49:00       95.796       71.202       20.322       33.053       23.790       25.666     1092.488      565.943      658.737        0.849        0.116      119.359       12.037        0.010      347.585       26.661      858.977
06/07/2014  12:50:00      -29.165      -34.801       -5.378       48.249       35.607       25.243     2327.956     1267.864      637.209        0.316        0.212       45.406       22.456        0.245      347.853       27.123      858.956
06/07/2014  12:51:00      -18.267      -22.020       27.849       56.627       56.103       29.909     3206.648     3147.561      894.536        0.442        0.362       28.611       31.927        1.245      348.789       28.742      858.914
06/07/2014  12:52:00      -50.762      -88.707       -6.500       51.126       55.074       36.837     2613.879     3033.128     1356.951        0.874        0.350      102.204       31.089        0.093      348.372       28.019      858.902
06/07/2014  12:53:00      -99.072      -43.793        5.888       70.146       43.653       31.920     4920.500     1905.608     1018.881        0.980        0.392      108.320       18.911        0.030      348.348       27.978      858.881
06/07/2014  12:54:00      -75.339      -49.710        2.123       80.745       47.389       36.337     6519.768     2245.714     1320.347        0.912        0.504       90.261       31.275        0.120      348.394       28.057      858.854
06/07/2014  12:55:00     -120.994      -65.783        3.463       79.772       50.534       31.417     6363.608     2553.669      987.053        1.444        0.495      137.720       37.458        0.074      348.185       27.698      858.838
06/07/2014  12:56:00     -125.126      -96.987        2.724       84.560       50.554       48.921     7150.430     2555.681     2393.261        1.858        0.605      158.313       42.051        0.071      348.116       27.576      858.827
06/07/2014  12:57:00     -174.458      -89.727       -4.310       76.171       68.989       39.442     5802.021     4759.418     1555.672        2.531        0.606      196.180       39.029        0.040      347.882       27.169      858.806
06/07/2014  12:58:00     -120.055      -76.194        6.247       67.968       43.007       35.002     4619.673     1849.619     1225.120        1.397        0.385      142.193       37.118        0.068      347.954       27.296      858.779
06/07/2014  12:59:00     -125.290      -64.350       -6.729       50.911       46.123       26.673     2591.883     2127.325      711.439        1.266        0.272      140.849       26.261        0.035      347.923       27.243      858.771
06/07/2014  13:00:00      -77.151        7.420       -0.692       46.245       33.936       27.870     2138.601     1151.642      776.717        0.504        0.203       77.507       22.346        0.083      348.181       27.691      858.761
06/07/2014  13:01:00      -47.419      -32.475       12.714       53.965       48.993       21.986     2912.235     2400.333      483.379        0.463        0.290       57.474       14.064        0.060      348.491       28.226      858.763
06/07/2014  13:02:00       50.108       20.944       38.241       36.206       72.409       43.790     1310.910     5243.129     1917.603        0.644        0.424       54.309       42.237        0.605      348.678       28.549      858.748
06/07/2014  13:03:00       28.899       66.918      104.283       71.921       78.089       56.209     5172.655     6097.876     3159.406        1.531        0.721       72.891       42.785        0.345      348.663       28.523      858.749
06/07/2014  13:04:00       14.750       73.745       85.238       64.231       61.119       52.783     4125.592     3735.495     2786.052        1.178        0.532       75.206       47.104        0.392      348.999       29.106      858.716
06/07/2014  13:05:00       17.539      -10.203       56.724       47.334       75.981       32.161     2240.515     5773.075     1034.335        0.634        0.452       20.291       29.315        2.087      348.891       28.918      858.704
06/07/2014  13:06:00       27.153      121.284      161.522       79.471       92.703       74.616     6315.668     8593.881     5567.571        3.100        1.024      124.287       69.505        0.313      348.751       28.673      858.695
06/07/2014  13:07:00       52.216      103.490      149.496       77.844       93.325       71.173     6059.668     8709.610     5065.561        2.781        0.992      115.917       68.999        0.354      348.575       28.370      858.701
06/07/2014  13:08:00       90.364       64.653       94.252       79.051       84.435       68.364     6249.132     7129.198     4673.601        1.964        0.903      111.111       67.132        0.365      348.426       28.112      858.705
06/07/2014  13:09:00       77.523      141.962      110.961       74.129       71.448       68.024     5495.156     5104.826     4627.239        2.685        0.761      161.750       41.014        0.064      348.460       28.170      858.695
06/07/2014  13:10:00      111.709       93.956       93.811       98.471       81.856       68.304     9696.440     6700.411     4665.399        2.558        1.053      145.968       70.321        0.232      348.151       27.635      858.699
06/07/2014  13:11:00       95.290       66.667       46.970       39.536       44.045       37.566     1563.108     1939.950     1411.212        1.032        0.246      116.296       20.438        0.031      347.921       27.241      858.699
06/07/2014  13:12:00       61.758       45.441        5.141       42.658       42.072       29.369     1819.708     1770.069      862.513        0.518        0.223       76.674       25.331        0.109      348.041       27.447      858.670
06/07/2014  13:13:00       87.240       98.483       54.312       54.266       42.880       44.760     2944.816     1838.672     2003.460        1.352        0.339      131.566       29.120        0.049      348.189       27.702      858.663
06/07/2014  13:14:00      103.002       71.672       59.395       98.421       46.316       48.531     9686.690     2145.147     2355.244        1.673        0.709      125.484       52.662        0.176      348.651       28.502      858.655
06/07/2014  13:15:00       53.957       96.712       64.842       91.870       61.907       58.839     8440.120     3832.503     3462.009        1.610        0.787      110.746       41.259        0.139      348.639       28.483      858.663
06/07/2014  13:16:00       77.033       44.950        6.805       54.889       30.867       23.159     3012.830      952.796      536.340        0.625        0.225       89.189       16.933        0.036      347.941       27.276      858.667
06/07/2014  13:17:00      -36.156        1.092      -16.618       25.437       19.414       26.658      647.052      376.888      710.659        0.166        0.087       36.173       20.412        0.318      348.256       27.819      858.656
06/07/2014  13:18:00      -53.280       49.902       -8.163       47.704       38.639       30.597     2275.659     1493.011      936.156        0.505        0.235       73.000       15.346        0.044      348.618       28.445      858.621
06/07/2014  13:19:00      -84.127      -40.815        6.956       70.261       64.693       32.139     4936.632     4185.173     1032.928        0.947        0.508       93.505       34.180        0.134      348.749       28.673      858.607
06/07/2014  13:20:00      -30.988      -62.959        8.164       49.541       57.231       30.023     2454.277     3275.388      901.403        0.581        0.332       70.171       33.959        0.234      348.394       28.058      858.609
06/07/2014  13:21:00     -120.727     -102.080        2.647       67.913       75.278       40.122     4612.129     5666.723     1609.786        1.844        0.594      158.099       38.565        0.060      348.347       27.974      858.596
06/07/2014  13:22:00     -133.064      -78.270       19.994      111.059       85.275       51.138    12334.037     7271.789     2615.088        2.322        1.111      154.377       46.509        0.091      348.698       28.581      858.572
06/07/2014  13:23:00     -117.364     -179.822      -13.478       43.007       71.084       31.705     1849.565     5052.986     1005.196        2.710        0.395      214.732       24.988        0.014      348.192       27.706      858.565
06/07/2014  13:24:00      -72.848      -60.402       -4.067       79.925       51.530       35.105     6388.068     2655.317     1232.348        0.962        0.514       94.632       51.727        0.299      348.694       28.578      858.554
06/07/2014  13:25:00     -108.337      -54.277       13.800       87.273       66.077       40.904     7616.605     4366.219     1673.168        1.426        0.683      121.173       45.113        0.139      348.935       28.994      858.551
06/07/2014  13:26:00      -80.854      -17.135       22.258       90.472       75.806       45.455     8185.143     5746.585     2066.119        1.166        0.800       82.649       52.344        0.401      349.136       29.342      858.528
06/07/2014  13:27:00     -114.543      -52.860       15.240       96.727       66.842       42.760     9356.170     4467.838     1828.405        1.590        0.783      126.152       44.602        0.125      349.111       29.298      858.515
06/07/2014  13:28:00     -119.047      -88.677       11.150       74.766       72.272       41.792     5589.936     5223.233     1746.545        1.736        0.628      148.444       39.540        0.071      348.669       28.533      858.517
06/07/2014  13:29:00      -28.892        9.519       17.641       47.263       56.783       39.112     2233.750     3224.288     1529.722        0.411        0.349       30.420       31.253        1.056      349.309       29.643      858.507
06/07/2014  13:30:00      -96.891     -122.513        2.216       77.553       79.752       42.308     6014.422     6360.431     1789.927        1.928        0.708      156.196       36.675        0.055      348.847       28.840      858.522
06/07/2014  13:31:00      -49.064     -154.991       -6.540       39.794       69.260       24.024     1583.526     4796.975      577.173        1.671        0.348      162.571       20.977        0.017      348.236       27.785      858.532
06/07/2014  13:32:00      -65.776     -109.266      -10.488       48.307       54.639       30.604     2333.547     2985.424      936.624        1.131        0.313      127.536       28.336        0.049      348.452       28.158      858.533
06/07/2014  13:33:00     -129.224     -110.180        5.374       65.942       49.657       34.434     4348.339     2465.803     1185.717        1.843        0.400      169.819       29.349        0.030      348.490       28.223      858.516
06/07/2014  13:34:00     -126.485     -106.313       -1.569      109.577       65.765       45.472    12007.103     4325.056     2067.727        2.285        0.920      165.230       49.789        0.091      348.460       28.169      858.496
06/07/2014  13:35:00     -118.666      -71.544       13.637       74.813       55.448       35.304     5597.051     3074.501     1246.376        1.465        0.496      138.565       36.515        0.069      348.592       28.400      858.491
06/07/2014  13:36:00     -179.424      -43.706       -6.459       60.184       56.409       30.778     3622.096     3182.010      947.288        2.095        0.388      184.671       23.402        0.016      348.424       28.108      858.486
06/07/2014  13:37:00      -75.913      -31.050       10.105       71.135       39.941       27.463     5060.143     1595.270      754.225        0.712        0.370       82.017       35.365        0.186      348.794       28.750      858.469
06/07/2014  13:38:00      -38.631       38.759        2.498       44.599       57.378       35.245     1989.053     3292.267     1242.190        0.476        0.326       54.723       26.479        0.234      349.132       29.336      858.460
06/07/2014  13:39:00      -44.200      178.384      -12.962       41.813       87.034       39.222     1748.303     7574.930     1538.370        2.240        0.543      183.778       38.604        0.044      348.591       28.396      858.454
06/07/2014  13:40:00        3.037      122.045       -8.534       47.566       85.401       38.057     2262.493     7293.358     1448.332        1.299        0.550      122.083       38.854        0.101      348.741       28.658      858.422
06/07/2014  13:41:00       46.570       51.098       24.501       58.782       36.753       28.022     3455.296     1350.787      785.230        0.548        0.280       69.136       23.665        0.117      349.083       29.251      858.409
06/07/2014  13:42:00       70.954       55.884       42.384      112.631       74.291       63.023    12685.819     5519.118     3971.944        1.606        1.109       90.318       50.372        0.311      349.025       29.149      858.394
06/07/2014  13:43:00      115.486       55.980       32.489       75.882      102.948       48.661     5758.140    10598.303     2367.906        1.812        0.936      128.339       42.982        0.112      348.776       28.718      858.358
06/07/2014  13:44:00       76.365       60.289       59.910      104.157       88.936       73.689    10848.615     7909.690     5430.137        1.862        1.209       97.296       66.469        0.467      348.995       29.097      858.326
06/07/2014  13:45:00      105.782       17.649       90.866      102.699      152.755       89.285    10546.996    23334.212     7971.747        3.080        2.093      107.245      107.136        0.998      348.618       28.442      858.310
06/07/2014  13:46:00       97.133       37.098       86.500       93.398       95.398       67.182     8723.199     9100.791     4513.422        2.031        1.117      103.976       65.101        0.392      348.702       28.589      858.286
06/07/2014  13:47:00      124.146       75.797       29.409      121.792       97.717       80.749    14833.195     9548.647     6520.345        2.646        1.545      145.456       60.328        0.172      348.705       28.596      858.283
06/07/2014  13:48:00      183.278      140.654       49.850      135.468       65.400       64.189    18351.668     4277.203     4120.188        4.130        1.337      231.029       74.370        0.104      348.872       28.883      858.251
06/07/2014  13:49:00      275.422      178.401       26.703      109.989       76.525       69.480    12097.544     5856.127     4827.507        6.558        1.139      328.153       49.586        0.023      348.500       28.237      858.256
06/07/2014  13:50:00      250.767      163.336        7.810       88.699       65.937       50.224     7867.487     4347.672     2522.482        5.218        0.737      299.270       28.675        0.009      348.380       28.029      858.255
06/07/2014  13:51:00      148.768      109.060       45.550       78.227       36.627       56.871     6119.453     1341.544     3234.294        2.340        0.535      184.462       47.904        0.067      348.401       28.067      858.224
06/07/2014  13:52:00      103.615       93.868       12.843       39.552       49.561       46.755     1564.334     2456.246     2186.076        1.296        0.310      139.812       29.574        0.045      348.469       28.187      858.202
06/07/2014  13:53:00      138.609       89.758       21.797       94.443       59.741       46.530     8919.506     3569.014     2165.055        2.120        0.733      165.133       32.643        0.039      348.997       29.101      858.180
06/07/2014  13:54:00      191.818      154.239        6.679       84.650       65.603       59.484     7165.636     4303.807     3538.324        3.782        0.750      246.138       39.527        0.026      348.728       28.633      858.162
06/07/2014  13:55:00      114.244      122.914       17.217       93.289       60.495       56.836     8702.872     3659.652     3230.356        2.202        0.780      167.808       41.830        0.062      348.701       28.588      858.154
06/07/2014  13:56:00      196.561       76.528       26.486       81.042       71.078       52.632     6567.881     5052.103     2770.138        2.979        0.720      210.933       38.489        0.033      348.624       28.452      858.137
06/07/2014  13:57:00       47.454       66.721       63.156       58.133       42.931       40.220     3379.454     1843.047     1617.686        0.876        0.342       81.876       28.195        0.119      349.129       29.330      858.127
06/07/2014  13:58:00       71.784       70.651       73.937      109.496       73.645       59.415    11989.376     5423.553     3530.142        1.827        1.047      100.720       63.756        0.401      348.896       28.925      858.117
06/07/2014  13:59:00       93.727      104.273       16.681       82.036       80.800       62.097     6729.874     6528.625     3855.985        1.852        0.856      140.206       56.332        0.161      348.917       28.960      858.116
06/07/2014  14:00:00      -15.498       70.784       -8.805       48.882       68.143       36.895     2389.422     4643.510     1361.234        0.686        0.420       72.460       28.384        0.153      348.830       28.814      858.111
06/07/2014  14:01:00        6.237      152.812       -2.843       56.328       87.785       51.161     3172.867     7706.222     2617.491        1.844        0.675      152.940       49.891        0.106      348.712       28.607      858.106
06/07/2014  14:02:00       26.296      147.541      -15.948       50.282       88.901       41.183     2528.242     7903.417     1696.039        1.742        0.606      149.866       49.236        0.108      348.747       28.668      858.095
06/07/2014  14:03:00      -47.007      156.257      -31.743       41.501       67.867       32.921     1722.351     4605.981     1083.820        1.752        0.371      163.175       14.986        0.008      348.465       28.179      858.106
06/07/2014  14:04:00       -7.319       -9.927       -5.730       24.323       44.046       21.119      591.595     1940.013      445.997        0.158        0.149       12.333       11.169        0.820      348.768       28.705      858.086
06/07/2014  14:05:00        3.108      -38.738       -2.013       31.932       36.736       21.296     1019.643     1349.533      453.499        0.217        0.141       38.863       15.845        0.166      349.080       29.248      858.058
06/07/2014  14:06:00        0.218      -40.544       12.970       36.819       24.901       22.713     1355.629      620.066      515.863        0.215        0.125       40.544       13.117        0.105      348.957       29.033      858.038
06/07/2014  14:07:00       -0.011       -4.670       27.615       31.634       28.890       24.915     1000.728      834.659      620.743        0.162        0.123        4.671       17.981       14.823      349.330       29.679      858.017
06/07/2014  14:08:00       15.417       36.484       16.556       45.242       47.657       29.202     2046.837     2271.183      852.757        0.351        0.259       39.608       21.852        0.304      349.046       29.188      858.004
06/07/2014  14:09:00       15.110       19.214       34.852       34.497       34.650       39.361     1190.040     1200.621     1549.271        0.288        0.197       24.443       29.522        1.459      349.360       29.731      857.996
06/07/2014  14:10:00       48.122       25.693       60.200       59.518       65.060       40.077     3542.435     4232.752     1606.134        0.799        0.469       54.552       36.539        0.449      349.171       29.403      857.982
06/07/2014  14:11:00       43.429      -33.675       22.719       55.651       43.983       46.053     3097.087     1934.474     2120.917        0.534        0.358       54.955       34.366        0.391      348.869       28.882      857.966
06/07/2014  14:12:00       42.255       27.063       40.008       38.744       66.801       26.062     1501.099     4462.414      679.209        0.538        0.332       50.179       18.169        0.131      349.039       29.174      857.936
06/07/2014  14:13:00       58.337       60.282       18.825       82.708       50.345       35.044     6840.648     2534.660     1228.117        0.900        0.530       83.888       35.281        0.177      349.159       29.382      857.914
06/07/2014  14:14:00      105.371       91.985       13.649       72.507       59.854       54.400     5257.273     3582.456     2959.320        1.577        0.590      139.873       32.485        0.054      349.188       29.432      857.903
06/07/2014  14:15:00      169.110       76.375       26.293       96.004       70.582       56.329     9216.861     4981.796     3172.977        2.624        0.869      185.556       39.901        0.046      349.255       29.547      857.891
06/07/2014  14:16:00      238.240       94.846       69.328      134.468       86.082       66.701    18081.694     7410.074     4449.040        5.024        1.497      256.426       53.524        0.044      348.745       28.661      857.887
06/07/2014  14:17:00       40.976       34.525       40.033       64.276       43.981       36.955     4131.398     1934.338     1365.703        0.595        0.372       53.581       29.359        0.300      349.003       29.113      857.883
06/07/2014  14:18:00       84.861       40.226       14.621       75.196       54.193       39.064     5654.431     2936.854     1526.012        0.957        0.506       93.912       24.289        0.067      348.831       28.817      857.851
06/07/2014  14:19:00      149.240      -53.067       50.299      112.774      110.554       66.774    12718.047    12222.230     4458.829        2.850        1.470      158.394       65.474        0.171      349.067       29.222      857.829
06/07/2014  14:20:00      188.512      -87.691       44.500      117.356       92.084       70.537    13772.421     8479.469     4975.477        3.621        1.361      207.910       62.789        0.091      349.109       29.293      857.807
06/07/2014  14:21:00      124.753      -31.937       62.514      106.195      116.989       72.764    11277.308    13686.315     5294.576        2.537        1.513      128.776       67.342        0.273      349.120       29.313      857.809
06/07/2014  14:22:00      105.221       37.595       40.204       73.366       66.927       85.110     5382.503     4479.164     7243.703        1.560        0.855      111.736       59.084        0.280      348.900       28.932      857.822
06/07/2014  14:23:00      133.100       40.900       35.462       70.260       50.210       53.368     4936.515     2521.014     2848.162        1.547        0.515      139.243       41.823        0.090      348.813       28.782      857.788
06/07/2014  14:24:00       60.343       41.412       38.665       65.732       45.308       45.379     4320.729     2052.819     2059.293        0.764        0.422       73.186       40.967        0.313      349.230       29.506      857.772
06/07/2014  14:25:00      200.628      100.607       57.671      102.036       73.173       61.457    10411.395     5354.322     3776.943        3.662        0.977      224.441       59.611        0.071      349.006       29.113      857.758
06/07/2014  14:26:00      159.096       69.781       49.285       97.435       82.875       66.359     9493.498     6868.206     4403.474        2.668        1.038      173.726       47.042        0.073      348.815       28.785      857.774
06/07/2014  14:27:00       53.136      -65.222       36.032       57.804      123.852       52.283     3341.261    15339.295     2733.542        1.489        1.071       84.127       66.521        0.625      349.021       29.143      857.763
06/07/2014  14:28:00       52.339      -66.453        9.704       61.047       57.869       42.393     3726.736     3348.875     1797.181        0.806        0.444       84.590       28.783        0.116      349.382       29.769      857.729
06/07/2014  14:29:00       66.682        4.141       10.166       43.297       65.422       41.027     1874.648     4280.085     1683.217        0.620        0.392       66.810       35.375        0.280      349.341       29.697      857.714
06/07/2014  14:30:00       36.461      -68.168       13.701       64.088       90.726       44.227     4107.306     8231.275     1956.066        1.023        0.715       77.306       45.650        0.349      349.291       29.611      857.708
06/07/2014  14:31:00       71.749      -19.263       46.811       91.598      120.778       62.579     8390.273    14587.357     3916.098        1.730        1.345       74.290       70.263        0.895      349.503       29.978      857.689
06/07/2014  14:32:00      114.403       77.434       65.989       66.293       84.093       67.888     4394.765     7071.631     4608.805        1.975        0.804      138.145       52.031        0.142      349.196       29.446      857.684
06/07/2014  14:33:00      165.884       68.456       61.889      108.732       85.425       67.751    11822.639     7297.400     4590.170        2.987        1.186      179.454       64.538        0.129      349.371       29.747      857.660
06/07/2014  14:34:00      161.841       72.237       43.380      133.163      101.522       62.283    17732.506    10306.807     3879.184        3.260        1.596      177.231       56.037        0.100      349.441       29.869      857.652
06/07/2014  14:35:00      278.611      209.482       23.804      115.705       79.953       90.374    13387.686     6392.421     8167.436        7.500        1.397      348.578       52.111        0.022      348.911       28.949      857.639
06/07/2014  14:36:00      164.029      163.503        1.130      117.485       86.284       80.883    13802.642     7444.876     6541.987        4.071        1.389      231.600       63.851        0.076      349.037       29.168      857.638
06/07/2014  14:37:00      138.607      116.309       15.715      108.236       76.769       59.621    11715.082     5893.555     3554.625        2.707        1.058      180.941       48.711        0.072      348.930       28.983      857.636
06/07/2014  14:38:00       91.187      115.913        9.248       92.692       92.439       81.719     8591.798     8545.053     6677.933        2.282        1.191      147.482       58.434        0.157      349.015       29.131      857.620
06/07/2014  14:39:00      134.805       -2.530       36.512       98.027      106.809       57.038     9609.223    11408.136     3253.311        2.189        1.214      134.829       31.652        0.055      349.139       29.346      857.618
06/07/2014  14:40:00      109.856      -28.482       15.636       63.258       45.810       38.370     4001.517     2098.547     1472.252        1.035        0.379      113.488       19.467        0.029      348.766       28.701      857.609
06/07/2014  14:41:00       60.763       31.744       19.763       51.218       50.994       31.283     2623.285     2600.381      978.605        0.565        0.310       68.555       17.400        0.064      349.030       29.158      857.580
06/07/2014  14:42:00       77.128       52.861       30.341       46.773       27.618       30.224     2187.721      762.728      913.486        0.676        0.193       93.504       14.399        0.024      349.141       29.351      857.560
06/07/2014  14:43:00      108.224       78.953       31.857       81.123       63.499       53.713     6580.863     4032.094     2885.127        1.623        0.675      133.963       41.496        0.096      349.293       29.613      857.543
06/07/2014  14:44:00      143.520       68.837       71.017      104.591       63.755       59.440    10939.379     4064.726     3533.113        2.445        0.927      159.174       42.749        0.072      349.509       29.988      857.527
06/07/2014  14:45:00      163.084      104.158       24.448      100.328       63.534       52.645    10065.648     4036.555     2771.526        2.746        0.844      193.508       46.868        0.059      349.342       29.697      857.523
06/07/2014  14:46:00       91.300      121.577        8.427       82.158       84.051       45.031     6749.950     7064.578     2027.761        1.951        0.792      152.041       48.433        0.101      349.395       29.788      857.523
06/07/2014  14:47:00       94.462       80.864       20.465       95.543       56.729       42.569     9128.558     3218.193     1812.130        1.502        0.708      124.347       29.686        0.057      349.415       29.825      857.499
06/07/2014  14:48:00       94.023       69.772       68.138      114.177       79.905       82.041    13036.296     6384.803     6730.690        2.225        1.308      117.083       72.456        0.383      349.529       30.021      857.475
06/07/2014  14:49:00       86.293       49.021       42.981       86.154       50.882       65.858     7422.577     2589.011     4337.241        1.302        0.717       99.245       43.219        0.190      349.118       29.310      857.471
06/07/2014  14:50:00       35.870      -14.879       33.789       42.316       29.465       23.367     1790.623      868.185      546.024        0.293        0.160       38.833       24.389        0.394      349.660       30.252      857.458
06/07/2014  14:51:00       61.681       50.023       -1.241       47.147       44.909       38.016     2222.802     2016.844     1445.250        0.600        0.284       79.416       22.209        0.078      349.227       29.500      857.454
06/07/2014  14:52:00        6.632       87.278       -2.244       50.330       70.361       27.043     2533.115     4950.646      731.332        0.794        0.411       87.530       32.711        0.140      349.274       29.582      857.446
06/07/2014  14:53:00       33.728       17.046       30.512       27.933       51.800       35.634      780.227     2683.204     1269.817        0.355        0.237       37.791       37.729        0.997      349.289       29.607      857.462
06/07/2014  14:54:00       -8.254       23.477      -16.467       27.071       44.440       20.388      732.825     1974.943      415.661        0.201        0.156       24.886        9.941        0.160      349.532       30.028      857.476
06/07/2014  14:55:00      -68.913      -24.707        7.785       50.624       43.529       30.381     2562.820     1894.759      923.032        0.540        0.269       73.208       18.754        0.066      349.740       30.391      857.475
06/07/2014  14:56:00     -115.004      -24.946       -2.150       32.527       40.332       21.573     1058.021     1626.659      465.398        0.850        0.158      117.678       13.290        0.013      349.434       29.861      857.446
06/07/2014  14:57:00      -51.014       -6.679        7.127       54.032       24.699       19.593     2919.436      610.061      383.879        0.330        0.196       51.449       16.897        0.108      349.734       30.379      857.424
06/07/2014  14:58:00       19.189        6.648       15.744       31.600       36.558       29.317      998.570     1336.478      859.512        0.193        0.160       20.308       23.687        1.360      349.784       30.467      857.413
06/07/2014  14:59:00     -108.998       35.717      -15.190       80.335       36.125       30.130     6453.723     1304.983      907.844        1.103        0.433      114.701       24.594        0.046      349.479       29.938      857.374
06/07/2014  15:00:00       78.388     -129.808        4.071      135.779      114.510       58.368    18435.854    13112.639     3406.846        2.898        1.748      151.640       57.275        0.143      349.458       29.900      857.341
06/07/2014  15:01:00      120.164     -199.919      -14.808      122.839      132.589       69.335    15089.315    17579.861     4807.309        4.604        1.874      233.253       77.764        0.111      349.463       29.907      857.295
06/07/2014  15:02:00       20.770     -143.550       -1.948      119.626       95.953       65.038    14310.495     9206.903     4229.981        2.439        1.387      145.045       55.537        0.147      349.543       30.047      857.308
06/07/2014  15:03:00      -92.932      -67.933       -6.708       86.308       52.784       39.322     7449.019     2786.184     1546.205        1.254        0.589      115.114       21.346        0.034      349.511       29.992      857.326
06/07/2014  15:04:00      -61.621        9.463        2.213       55.265       30.844       28.328     3054.221      951.346      802.448        0.435        0.240       62.344       29.528        0.224      349.506       29.983      857.308
06/07/2014  15:05:00        9.142        8.852       16.388       15.172       16.312       19.606      230.190      266.088      384.395        0.066        0.044       12.725       12.054        0.897      349.898       30.664      857.298
06/07/2014  15:06:00        0.817       15.530       20.311       17.713       19.701       12.276      313.761      388.118      150.704        0.075        0.043       15.552        9.510        0.374      350.137       31.079      857.285
06/07/2014  15:07:00       25.223       14.299        4.448       15.042       21.770       19.988      226.258      473.915      399.518        0.098        0.055       28.994        6.118        0.045      349.646       30.227      857.264
06/07/2014  15:08:00       57.162       15.696       17.871       49.747       40.961       35.270     2474.780     1677.822     1243.992        0.461        0.270       59.277       28.120        0.225      349.586       30.123      857.245
06/07/2014  15:09:00      108.899      -30.832       47.915       77.862      107.047       66.615     6062.489    11459.024     4437.517        1.853        1.098      113.180       50.480        0.199      349.666       30.259      857.219
06/07/2014  15:10:00       95.510       -9.452       35.359       70.956      122.920       61.786     5034.694    15109.305     3817.562        1.721        1.198       95.977       68.775        0.513      349.324       29.667      857.228
06/07/2014  15:11:00      123.843       25.897       22.316      106.062       98.653       45.041    11249.161     9732.496     2028.725        1.975        1.151      126.522       26.003        0.042      349.747       30.400      857.203
06/07/2014  15:12:00      128.720       95.311       81.792      102.260       97.508       70.451    10457.177     9507.902     4963.319        2.863        1.246      160.166       62.759        0.154      349.733       30.375      857.192
06/07/2014  15:13:00      158.893     -134.420      -22.033      159.935      176.843       80.289    25579.165    31273.431     6446.394        5.354        3.165      208.125      107.123        0.265      349.680       30.284      857.202
06/07/2014  15:14:00      185.811     -188.004       -1.690      121.572      167.650       91.234    14779.863    28106.653     8323.569        6.053        2.561      264.332      110.981        0.176      349.326       29.669      857.186
06/07/2014  15:15:00       97.754      -77.900       35.698       95.971      110.897       84.922     9210.503    12298.067     7211.773        2.280        1.436      124.997       76.572        0.375      349.672       30.269      857.191
06/07/2014  15:16:00      152.332     -156.439       -8.233       72.422       94.768       44.631     5245.013     8980.982     1991.941        3.198        0.811      218.353       44.216        0.041      349.128       29.325      857.213
06/07/2014  15:17:00       18.366       -2.106       31.870       22.521       41.545       30.715      507.178     1725.982      943.389        0.227        0.159       18.486       29.437        2.536      349.340       29.697      857.178
06/07/2014  15:18:00       11.494       44.923       43.615       58.926       59.457       48.175     3472.232     3535.128     2320.801        0.669        0.466       46.370       27.102        0.342      349.209       29.469      857.149
06/07/2014  15:19:00      171.894       65.047       -2.621       93.327       71.655       57.626     8710.015     5134.370     3320.809        2.547        0.858      183.790       36.051        0.038      349.273       29.577      857.119
06/07/2014  15:20:00      146.374      101.869       55.466      107.299       77.498       83.531    11513.041     6005.972     6977.378        2.968        1.225      178.333       54.830        0.095      349.378       29.760      857.109
06/07/2014  15:21:00       93.077       57.193       27.698       96.868       77.919       60.513     9383.339     6071.369     3661.802        1.591        0.956      109.244       32.636        0.089      349.396       29.792      857.100
06/07/2014  15:22:00       51.511       31.684        2.976       77.925       47.822       38.237     6072.379     2286.900     1462.087        0.674        0.491       60.475       20.022        0.110      349.375       29.757      857.084
06/07/2014  15:23:00       97.807       44.131       32.014       85.701       53.539       49.327     7344.605     2866.436     2433.135        1.259        0.632      107.303       40.120        0.140      349.596       30.140      857.070
06/07/2014  15:24:00      127.924       75.469       21.156       88.509       73.930       52.504     7833.757     5465.654     2756.647        1.928        0.803      148.527       33.570        0.051      349.502       29.976      857.059
06/07/2014  15:25:00      116.661       73.991       76.039      116.897       85.661       69.970    13664.920     7337.854     4895.834        2.538        1.295      138.146       47.956        0.121      349.554       30.064      857.057
06/07/2014  15:26:00      138.271      126.432      116.178      112.088       85.572       82.716    12563.667     7322.513     6841.974        3.766        1.336      187.360       72.577        0.150      349.345       29.701      857.052
06/07/2014  15:27:00      103.952      133.133       -0.740       70.111       67.577       47.673     4915.602     4566.686     2272.706        2.014        0.588      168.910       34.527        0.042      349.128       29.327      857.073
06/07/2014  15:28:00       58.373       59.850        1.564       58.834       47.377       39.582     3461.443     2244.541     1566.772        0.713        0.364       83.602       20.616        0.061      349.132       29.337      857.078
06/07/2014  15:29:00       43.305       32.782       16.312       46.396       32.324       25.607     2152.552     1044.852      655.717        0.353        0.193       54.314       14.527        0.072      349.335       29.686      857.075
06/07/2014  15:30:00       79.049       80.606        8.515       68.201       68.441       36.230     4651.371     4684.129     1312.614        1.173        0.532      112.898       37.055        0.108      349.262       29.560      857.075
06/07/2014  15:31:00       25.414       82.983       12.042       50.613       69.578       43.007     2561.707     4841.121     1849.616        0.846        0.463       86.788       34.763        0.160      349.378       29.761      857.075
06/07/2014  15:32:00       53.725      119.940      -12.589       65.009       80.339       54.594     4226.135     6454.357     2980.466        1.554        0.683      131.423       51.205        0.152      349.468       29.917      857.081
06/07/2014  15:33:00      122.799      107.160       14.145       73.938       48.044       55.363     5466.765     2308.199     3065.099        1.880        0.542      162.981       38.977        0.057      349.347       29.707      857.090
06/07/2014  15:34:00      158.244      116.361        4.251      106.345       75.917       54.939    11309.256     5763.400     3018.345        2.934        1.005      196.421       55.879        0.081      349.364       29.735      857.085
06/07/2014  15:35:00      104.230       84.638       20.235       64.638       52.614       35.819     4178.039     2768.279     1283.018        1.333        0.411      134.267       14.707        0.012      349.359       29.728      857.085
06/07/2014  15:36:00       90.424      214.700       -5.786      100.122      115.714       81.632    10024.444    13389.650     6663.764        4.219        1.504      232.965       77.165        0.110      349.354       29.717      857.077
06/07/2014  15:37:00       51.664      115.750       -8.811       64.973       62.541       37.088     4221.537     3911.326     1375.486        1.282        0.475      126.757       31.207        0.061      349.476       29.931      857.093
06/07/2014  15:38:00       30.688       94.245       -1.344       33.505       54.998       33.552     1122.588     3024.791     1125.705        0.755        0.264       99.116       36.203        0.133      349.336       29.688      857.098
06/07/2014  15:39:00       11.471       43.369        5.493       36.799       46.308       29.193     1354.169     2144.391      852.244        0.320        0.218       44.860       30.164        0.452      349.458       29.901      857.090
06/07/2014  15:40:00       24.178       26.894        7.179       45.985       36.562       22.243     2114.584     1336.784      494.761        0.265        0.197       36.164       13.050        0.130      349.723       30.360      857.076
06/07/2014  15:41:00       25.781        8.917       13.781       50.620       52.365       32.530     2562.386     2742.106     1058.193        0.365        0.318       27.280       29.656        1.182      349.787       30.471      857.055
06/07/2014  15:42:00       76.789       69.259       -8.105       53.877       41.486       38.248     2902.695     1721.093     1462.904        0.842        0.304      103.409       16.282        0.025      349.423       29.839      857.054
06/07/2014  15:43:00       12.272      -17.765      -19.592       36.376       21.166       21.794     1323.200      447.980      474.967        0.155        0.112       21.591       19.488        0.815      349.536       30.036      857.055
06/07/2014  15:44:00       41.020       30.157        6.023       35.355       26.971       22.320     1249.971      727.418      498.180        0.255        0.124       50.913       14.796        0.084      349.461       29.906      857.063
06/07/2014  15:45:00       61.925     -106.705       -2.638       29.002       84.253       25.193      841.140     7098.504      634.676        1.190        0.429      123.372       21.881        0.031      349.447       29.881      857.059
06/07/2014  15:46:00       16.236      -33.533       23.717       48.535       70.283       35.202     2355.639     4939.652     1239.151        0.524        0.427       37.257       37.081        0.991      349.931       30.722      857.055
06/07/2014  15:47:00      -36.251      -80.295       -9.082       65.940       47.718       36.741     4348.028     2276.966     1349.903        0.791        0.399       88.099       28.457        0.104      349.511       29.992      857.045
06/07/2014  15:48:00      -81.097      -20.491       -3.373       38.797       29.221       24.387     1505.221      853.891      594.720        0.498        0.148       83.646       16.749        0.040      349.234       29.513      857.044
06/07/2014  15:49:00      -26.064      -22.023       -4.009       45.349       21.224       17.929     2056.492      450.445      321.454        0.200        0.141       34.122       13.788        0.163      349.473       29.925      857.022
06/07/2014  15:50:00      -15.122      -17.362       -2.350       22.716       26.751       21.291      516.004      715.598      453.313        0.111        0.084       23.024       19.698        0.732      349.738       30.386      857.012
06/07/2014  15:51:00        4.310      -24.462       11.252       24.014       25.411       20.049      576.690      645.694      401.978        0.118        0.081       24.839       15.513        0.390      349.888       30.647      856.999
06/07/2014  15:52:00       42.428      -52.631       16.047       44.025       58.448       40.259     1938.188     3416.187     1620.816        0.590        0.349       67.603       39.888        0.348      349.873       30.621      856.979
06/07/2014  15:53:00       23.427     -122.542       -9.185       43.232       49.485       30.741     1869.004     2448.752      945.029        1.046        0.263      124.761       27.892        0.050      349.687       30.297      856.958
06/07/2014  15:54:00       46.267       39.627       15.700       45.015       51.971       32.158     2026.329     2701.036     1034.166        0.486        0.288       60.917       19.658        0.104      349.882       30.636      856.952
06/07/2014  15:55:00       54.813       34.697       20.848       39.393       36.376       33.400     1551.811     1323.210     1115.558        0.432        0.200       64.872       21.843        0.113      349.688       30.300      856.954
06/07/2014  15:56:00        8.795       32.746        3.086       17.719       41.474       18.689      313.947     1720.080      349.285        0.177        0.119       33.907        4.561        0.018      349.685       30.295      856.948
06/07/2014  15:57:00        4.796       82.478      -14.293       47.429       77.850       30.263     2249.499     6060.596      915.865        0.813        0.461       82.618       33.615        0.166      349.560       30.077      856.959
06/07/2014  15:58:00      133.913       90.648       20.747       77.519       49.868       48.044     6009.240     2486.840     2308.210        1.869        0.540      161.709       30.561        0.036      349.486       29.948      856.963
06/07/2014  15:59:00       27.552       49.377        4.574       53.740       58.410       41.239     2888.022     3411.670     1700.622        0.561        0.400       56.544       13.176        0.054      349.479       29.937      856.985
06/07/2014  16:00:00      -11.357       80.638       -6.716       39.891       44.382       30.151     1591.310     1969.789      909.090        0.557        0.224       81.434       22.895        0.079      349.422       29.839      856.993
06/07/2014  16:01:00      -33.561       22.046      -10.505       39.611       32.459       24.898     1569.017     1053.569      619.924        0.248        0.162       40.154       11.364        0.080      349.338       29.693      857.005
06/07/2014  16:02:00       -1.317       10.035       35.044       34.941       39.007       27.692     1220.839     1521.544      766.868        0.242        0.175       10.121       25.610        6.402      349.650       30.234      856.998
06/07/2014  16:03:00       -0.670       69.084       90.401       33.382       58.952       31.983     1114.346     3475.385     1022.895        0.928        0.281       69.087       30.259        0.192      349.252       29.542      856.968
06/07/2014  16:04:00       46.642       52.113       27.361       50.419       46.426       32.177     2542.070     2155.371     1035.385        0.569        0.287       69.937       32.790        0.220      349.383       29.772      856.997
06/07/2014  16:05:00      -31.891       32.743       -5.269       46.023       34.704       19.755     2118.112     1204.342      390.242        0.291        0.186       45.707       19.240        0.177      349.486       29.949      857.021
06/07/2014  16:06:00      -56.495       33.587        2.284       31.359       25.823       21.987      983.400      666.850      483.416        0.323        0.107       65.725       17.587        0.072      349.607       30.158      857.016
06/07/2014  16:07:00      -56.775       95.944      -19.359       57.371       53.193       26.161     3291.381     2829.500      684.424        0.980        0.340      111.483       31.332        0.079      349.396       29.794      857.017
06/07/2014  16:08:00     -126.955      171.560      -28.136       77.955       84.595       46.848     6077.048     7156.309     2194.712        3.088        0.771      213.426       43.461        0.041      349.407       29.809      857.018
06/07/2014  16:09:00     -119.812      105.851      -23.886       65.365       80.856       35.685     4272.588     6537.622     1273.437        1.910        0.604      159.873       27.623        0.030      349.534       30.030      857.004
06/07/2014  16:10:00      -62.675      106.781       -0.770       72.855       73.635       52.063     5307.857     5422.122     2710.591        1.438        0.672      123.816       48.018        0.150      349.620       30.181      857.002
06/07/2014  16:11:00      -75.294      160.924      -10.503       58.113       58.299       47.742     3377.110     3398.757     2279.327        2.036        0.453      177.667       39.074        0.048      349.538       30.037      856.997
06/07/2014  16:12:00     -124.530      112.576      -19.725      100.144       66.807       41.587    10028.887     4463.154     1729.503        2.239        0.811      167.872       57.749        0.118      349.399       29.796      856.991
06/07/2014  16:13:00     -145.598      120.059      -34.179       73.018       52.557       39.091     5331.556     2762.229     1528.080        2.320        0.481      188.714       44.303        0.055      349.407       29.811      856.974
06/07/2014  16:14:00     -131.588       14.148       -6.867       68.155       66.223       34.597     4645.075     4385.530     1196.920        1.389        0.511      132.346       19.456        0.022      349.330       29.677      856.956
06/07/2014  16:15:00      -92.480       79.133      -21.350       64.974       86.138       41.745     4221.683     7419.836     1742.623        1.432        0.669      121.715       42.496        0.122      349.471       29.923      856.940
06/07/2014  16:16:00     -104.078      126.237      -19.601       42.712       56.604       36.592     1824.310     3203.964     1338.972        1.676        0.318      163.610       35.470        0.047      349.381       29.767      856.942
06/07/2014  16:17:00      -54.711      120.200        1.695       34.621       65.598       32.377     1198.611     4303.158     1048.267        1.200        0.328      132.066       34.767        0.069      349.802       30.498      856.938
06/07/2014  16:18:00      -39.371        2.086       18.925       40.497       37.657       26.358     1639.979     1418.072      694.751        0.283        0.188       39.426       16.992        0.186      350.125       31.059      856.928
06/07/2014  16:19:00     -148.800      -33.216       16.898      111.429       94.989       50.049    12416.338     9022.858     2504.912        2.373        1.197      152.462       42.279        0.077      349.871       30.615      856.910
06/07/2014  16:20:00     -166.107     -101.099       -0.401       97.620       69.366       40.694     9529.670     4811.625     1656.022        2.690        0.800      194.455       39.360        0.041      349.378       29.759      856.916
06/07/2014  16:21:00     -171.127      -79.382       -1.216       93.313       87.681       40.364     8707.235     7688.012     1629.259        2.680        0.901      188.643       28.562        0.023      349.511       29.991      856.919
06/07/2014  16:22:00     -164.761      -91.942        5.831      117.156       88.224       49.236    13725.623     7783.446     2424.199        2.978        1.197      188.678       51.760        0.075      349.368       29.743      856.920
06/07/2014  16:23:00     -123.483      -23.173       -6.524       48.786       35.345       31.171     2380.103     1249.288      971.650        1.021        0.230      125.639       28.176        0.050      349.273       29.579      856.917
06/07/2014  16:24:00     -214.261      -65.063      -11.990      126.380       92.717       40.757    15971.789     8596.422     1661.115        3.825        1.311      223.922       42.799        0.037      349.406       29.809      856.891
06/07/2014  16:25:00     -318.799      -17.367      -15.202      157.761       95.781       58.001    24888.376     9173.958     3364.140        6.979        1.871      319.272       71.870        0.051      349.413       29.819      856.893
06/07/2014  16:26:00     -254.450       70.847      -35.025      107.375       62.111       39.603    11529.340     3857.726     1568.421        4.397        0.848      264.129       43.373        0.027      349.333       29.679      856.919
06/07/2014  16:27:00     -111.392       34.857        8.371       64.025       70.116       41.115     4099.231     4916.258     1690.433        1.220        0.535      116.719       29.037        0.062      349.429       29.850      856.929
06/07/2014  16:28:00     -109.825      -21.710      -11.681       47.247       52.456       23.930     2232.240     2751.592      572.648        0.911        0.278      111.950       21.083        0.035      349.409       29.816      856.932
06/07/2014  16:29:00      -69.601      -38.524        4.376       48.471       42.860       27.116     2349.479     1837.004      735.259        0.563        0.246       79.551       25.697        0.104      349.432       29.855      856.930
06/07/2014  16:30:00      -41.484      -19.105       23.473       64.293       49.285       40.264     4133.599     2429.054     1621.175        0.541        0.409       45.672       39.901        0.763      349.450       29.888      856.921
06/07/2014  16:31:00      -88.216      -28.003       -0.189       65.191       39.323       29.139     4249.839     1546.324      849.059        0.760        0.332       92.554       37.894        0.168      349.272       29.578      856.925
06/07/2014  16:32:00     -118.901      -48.639      -10.278       47.053       49.958       26.630     2213.997     2495.783      709.168        1.101        0.271      128.465       20.080        0.024      349.168       29.396      856.933
06/07/2014  16:33:00      -25.997      -65.863       19.096       65.282       41.630       31.355     4261.785     1733.065      983.109        0.618        0.349       70.808       32.566        0.212      349.297       29.623      856.925
06/07/2014  16:34:00       -6.538        5.834       16.739       39.767       34.817       34.951     1581.429     1212.210     1221.600        0.219        0.201        8.762       33.431       14.557      349.445       29.880      856.927
06/07/2014  16:35:00      -33.167       -3.036        6.971       55.210       32.152       21.836     3048.147     1033.762      476.804        0.286        0.228       33.306       16.069        0.233      349.382       29.769      856.923
06/07/2014  16:36:00      -20.279      -28.781       21.393       51.605       40.015       31.050     2663.083     1601.178      964.095        0.346        0.261       35.207       34.728        0.973      349.487       29.951      856.925
06/07/2014  16:37:00     -103.528      -70.342       11.810       75.539       39.394       40.244     5706.213     1551.893     1619.592        1.234        0.444      125.164       43.755        0.122      349.329       29.677      856.936
06/07/2014  16:38:00     -138.239      -85.045       -0.097       66.088       45.218       33.339     4367.683     2044.709     1111.480        1.693        0.376      162.305       29.918        0.034      349.244       29.529      856.932
06/07/2014  16:39:00      -11.391      -31.857       17.816       39.980       32.227       31.869     1598.411     1038.568     1015.630        0.256        0.183       33.832       28.502        0.710      349.351       29.714      856.914
06/07/2014  16:40:00      -77.882      -12.778       -3.754       23.791       36.298       22.997      566.004     1317.565      528.879        0.433        0.121       78.923       13.390        0.029      349.277       29.587      856.908
06/07/2014  16:41:00      -29.194       15.044        9.423       39.305       29.956       23.857     1544.921      897.346      569.141        0.209        0.151       32.842       25.789        0.617      349.563       30.084      856.915
06/07/2014  16:42:00       43.197       53.389       15.927       52.609       16.022       20.731     2767.672      256.697      429.754        0.421        0.173       68.676       16.879        0.060      349.309       29.640      856.898
06/07/2014  16:43:00       65.663       19.247        6.498       29.436       21.690       20.115      866.488      470.470      404.632        0.323        0.087       68.426        9.416        0.019      349.172       29.406      856.873
06/07/2014  16:44:00       -0.615       44.950       -6.028       62.403       48.373       27.755     3894.181     2339.992      770.353        0.453        0.350       44.954       32.176        0.512      349.245       29.531      856.866
06/07/2014  16:45:00      -47.971       50.527       -8.755       31.422       30.236       19.655      987.318      914.192      386.335        0.361        0.114       69.672       23.312        0.112      349.332       29.683      856.852
06/07/2014  16:46:00       16.653       67.451        3.380       24.323       42.392       30.604      591.612     1797.053      936.589        0.408        0.166       69.476       26.468        0.145      349.367       29.744      856.831
06/07/2014  16:47:00      -31.984       54.489       -4.358       22.577       28.370       15.726      509.713      804.849      247.310        0.279        0.078       63.183       12.771        0.041      349.325       29.669      856.815
06/07/2014  16:48:00      -15.548       49.612       -3.237       29.499       30.611       18.206      870.202      937.014      331.441        0.243        0.107       51.992       13.115        0.064      349.320       29.662      856.819
06/07/2014  16:49:00      -61.920      101.851      -23.581       50.111       47.241       24.920     2511.100     2231.713      621.009        1.006        0.268      119.196       23.404        0.039      349.251       29.540      856.810
06/07/2014  16:50:00      -92.106       83.248      -25.840       23.591       40.944       18.439      556.530     1676.448      339.980        0.933        0.129      124.152       15.687        0.016      349.194       29.443      856.804
06/07/2014  16:51:00      -79.190       17.541        1.570       76.795       41.189       29.230     5897.540     1696.551      854.386        0.751        0.422       81.109       41.296        0.259      349.315       29.652      856.809
06/07/2014  16:52:00      -80.810       -5.420       -3.444       36.531       35.019       19.402     1334.532     1226.336      376.436        0.475        0.147       80.992       18.108        0.050      349.378       29.762      856.799
06/07/2014  16:53:00      -95.928      -24.313       -6.094       31.575       25.967       17.996      996.984      674.292      323.860        0.591        0.100       98.961       13.551        0.019      349.335       29.687      856.780
06/07/2014  16:54:00      -41.226       -9.494       12.341       34.434       41.252       21.652     1185.684     1701.688      468.812        0.265        0.168       42.305       19.605        0.215      349.371       29.750      856.763
06/07/2014  16:55:00      -10.978       25.054       21.453       32.171       22.670       14.132     1034.999      513.947      199.712        0.148        0.087       27.353       18.129        0.439      349.252       29.544      856.745
06/07/2014  16:56:00       52.330       33.695       10.875       61.852       32.853       25.577     3825.630     1079.291      654.170        0.477        0.278       62.240       18.789        0.091      349.208       29.466      856.756
06/07/2014  16:57:00      145.260      100.771       26.596       80.181       75.796       50.461     6428.923     5745.054     2546.345        2.334        0.736      176.791       23.773        0.018      349.202       29.455      856.778
06/07/2014  16:58:00      184.032      138.857       17.019       71.192       54.310       45.424     5068.268     2949.552     2063.349        3.176        0.504      230.540       29.912        0.017      349.172       29.402      856.782
06/07/2014  16:59:00      151.608      114.850       25.440       59.754       53.088       46.195     3570.486     2818.339     2134.023        2.267        0.426      190.198       31.678        0.028      349.188       29.431      856.795
06/07/2014  17:00:00      168.921      142.082       17.754       74.995       52.308       46.776     5624.282     2736.169     2188.023        2.979        0.527      220.730       35.091        0.025      349.169       29.396      856.811
06/07/2014  17:01:00       89.221      108.006       53.670       97.843       90.384       80.939     9573.239     8169.243     6551.060        2.340        1.215      140.092       49.081        0.123      349.132       29.335      856.813
06/07/2014  17:02:00      134.720      192.458        2.885      120.360       98.806       85.863    14486.605     9762.570     7372.442        4.340        1.581      234.925       71.956        0.094      349.065       29.215      856.856
06/07/2014  17:03:00       52.782      158.637        9.513       89.406      105.375       84.763     7993.487    11103.853     7184.706        2.716        1.314      167.188       78.820        0.222      349.000       29.105      856.873
06/07/2014  17:04:00       69.663      238.089      -25.939       81.656       84.794       55.901     6667.764     7190.024     3124.971        3.959        0.849      248.071       50.762        0.042      348.996       29.096      856.864
06/07/2014  17:05:00       36.023      156.409        1.394       77.987       95.168       52.164     6081.934     9056.855     2721.088        2.181        0.893      160.504       44.648        0.077      349.031       29.160      856.854
06/07/2014  17:06:00       69.833      106.922       12.632       54.690       91.308       50.238     2990.990     8337.225     2523.844        1.516        0.693      127.706       49.251        0.149      349.038       29.173      856.873
06/07/2014  17:07:00      -25.630      405.202      -59.494       81.198      141.501       50.291     6593.088    20022.586     2529.157        9.876        1.457      406.012       49.384        0.015      348.986       29.080      856.875
06/07/2014  17:08:00        3.500      310.266      -42.930       97.897      101.768       52.419     9583.729    10356.759     2747.738        6.040        1.134      310.286       54.494        0.031      349.026       29.148      856.870
06/07/2014  17:09:00       11.783      159.258      -12.110       76.198       96.800       59.858     5806.136     9370.177     3582.959        2.220        0.938      159.693       60.724        0.145      349.089       29.260      856.895
06/07/2014  17:10:00      106.073      123.523        3.600       85.110      113.856       51.889     7243.732    12963.239     2692.492        2.471        1.145      162.817       48.060        0.087      349.084       29.251      856.908
06/07/2014  17:11:00       82.485      198.963      -18.932       70.763      119.205       69.303     5007.358    14209.818     4802.853        3.538        1.201      215.383       64.390        0.089      349.039       29.172      856.921
06/07/2014  17:12:00       45.829      226.071      -25.782       64.239      115.372       54.466     4126.711    13310.712     2966.495        3.713        1.020      230.670       54.626        0.056      349.043       29.179      856.930
06/07/2014  17:13:00      -32.822      332.597      -39.826       90.186       96.783       51.750     8133.491     9366.902     2678.111        6.673        1.009      334.212       47.115        0.020      349.071       29.225      856.929
06/07/2014  17:14:00       31.714      351.638      -45.213       77.085      128.804       66.330     5942.038    16590.502     4399.681        7.681        1.347      353.065       75.470        0.046      349.089       29.256      856.929
06/07/2014  17:15:00       56.128      171.151      -10.841       82.099      101.774       55.154     6740.231    10357.847     3041.927        2.635        1.007      180.119       55.641        0.095      349.084       29.248      856.929
06/07/2014  17:16:00       87.433      167.474      -17.139       81.532       85.199       71.823     6647.410     7258.810     5158.498        2.752        0.953      188.923       66.442        0.124      349.050       29.191      856.922
06/07/2014  17:17:00      119.007      205.515       -3.904      103.170      122.336       80.384    10644.149    14966.067     6461.609        4.424        1.604      237.485       73.991        0.097      349.038       29.169      856.891
06/07/2014  17:18:00      132.983      147.364       -9.912      112.147       89.167       60.329    12576.973     7950.699     3639.581        3.183        1.208      198.496       39.436        0.039      349.044       29.179      856.865
06/07/2014  17:19:00      123.148      118.707        2.628      110.587       74.053       54.402    12229.381     5483.777     2959.551        2.496        1.034      171.046       36.532        0.046      349.032       29.161      856.840
06/07/2014  17:20:00      209.126      211.455       11.201      185.301      139.645       92.577    34336.376    19500.781     8570.561        7.548        3.120      297.400       73.912        0.062      348.990       29.087      856.815
06/07/2014  17:21:00      248.793      182.904       21.743       96.329       89.176       72.451     9279.341     7952.362     5249.202        5.915        1.124      308.791       54.267        0.031      348.973       29.057      856.776
06/07/2014  17:22:00      250.534      188.563       51.055      167.312      137.327      105.570    27993.403    18858.678    11145.125        7.945        2.900      313.565       75.474        0.058      348.956       29.028      856.766
06/07/2014  17:23:00      189.493      169.729       18.562      164.845      123.935       92.813    27174.036    15359.924     8614.226        5.809        2.557      254.393       63.704        0.063      348.908       28.944      856.768
06/07/2014  17:24:00      124.196      197.993        2.296      131.897      149.295       71.574    17396.871    22289.042     5122.815        4.971        2.240      233.722       65.266        0.078      348.840       28.828      856.779
06/07/2014  17:25:00      115.947      223.632        7.971      131.691      175.274       98.958    17342.569    30720.829     9792.702        6.068        2.893      251.903       97.534        0.150      348.599       28.409      856.799
06/07/2014  17:26:00       63.309      287.509      -47.372       91.651      109.382       54.413     8399.995    11964.419     2960.812        5.611        1.166      294.396       54.247        0.034      348.431       28.119      856.821
06/07/2014  17:27:00      -91.556      274.098      -51.409      159.581       97.625       62.152    25466.199     9530.701     3862.929        6.250        1.943      288.985       77.192        0.071      348.468       28.182      856.849
06/07/2014  17:28:00     -133.259      207.907      -27.888       56.760       60.007       39.860     3221.679     3600.789     1588.801        3.508        0.421      246.948       35.592        0.021      348.478       28.199      856.853
06/07/2014  17:29:00      -83.634      243.014      -31.412       92.502       86.952       57.082     8556.691     7560.638     3258.360        4.320        0.969      257.003       57.082        0.049      348.529       28.287      856.901
06/07/2014  17:30:00      -92.691      251.981      -22.618      104.455      116.220       67.266    10910.909    13507.187     4524.781        5.076        1.447      268.488       58.593        0.048      348.635       28.470      856.932
06/07/2014  17:31:00       12.937      351.806      -52.634      101.033      109.497       56.903    10207.731    11989.562     3237.954        7.607        1.272      352.044       59.334        0.028      348.621       28.446      857.014
06/07/2014  17:32:00       59.498      386.745      -53.758       90.332      151.737       73.401     8159.897    23024.267     5387.726        9.628        1.829      391.295       79.754        0.042      348.389       28.045      857.063
06/07/2014  17:33:00       63.064      229.893      -14.186       76.324      125.581       77.722     5825.342    15770.471     6040.687        4.233        1.382      238.386       78.271        0.108      348.365       28.003      857.081
06/07/2014  17:34:00       83.061      231.635      -10.803      103.019      115.960       55.202    10612.992    13446.664     3047.287        4.388        1.355      246.077       54.633        0.049      348.364       28.003      857.086
06/07/2014  17:35:00       79.860      135.239       -3.224       89.477       69.992       53.141     8006.167     4898.913     2823.997        2.020        0.786      157.058       43.821        0.078      348.420       28.101      857.078
06/07/2014  17:36:00       33.902      199.852       -6.452       81.234      131.880       69.987     6599.027    17392.453     4898.163        3.501        1.444      202.708       82.636        0.166      348.430       28.118      857.089
06/07/2014  17:37:00      101.977      133.200        3.081       95.063       84.645       61.037     9036.933     7164.699     3725.515        2.404        0.996      167.755       50.936        0.092      348.429       28.117      857.090
06/07/2014  17:38:00       55.197      131.691       -6.870       56.200       86.982       52.311     3158.385     7565.782     2736.399        1.695        0.673      142.791       51.776        0.131      348.429       28.118      857.098
06/07/2014  17:39:00        8.773      203.457      -27.421       59.272       71.054       44.376     3513.148     5048.681     1969.263        2.638        0.527      203.646       47.489        0.054      348.422       28.104      857.111
06/07/2014  17:40:00        4.844      252.099      -31.059       60.092      109.533       52.373     3611.048    11997.391     2742.893        4.144        0.918      252.146       60.140        0.057      348.511       28.257      857.116
06/07/2014  17:41:00       14.109      173.704       -6.289       75.289       80.881       48.876     5668.495     6541.753     2388.860        2.250        0.730      174.276       45.187        0.067      348.551       28.327      857.110
06/07/2014  17:42:00       -3.131      128.961       10.712       71.890       86.483       53.293     5168.155     7479.267     2840.139        1.612        0.774      128.999       52.011        0.163      348.626       28.458      857.101
06/07/2014  17:43:00       36.280      153.146      -11.186       69.169      114.676       55.889     4784.346    13150.578     3123.564        2.297        1.053      157.385       55.818        0.126      348.639       28.480      857.090
06/07/2014  17:44:00       69.818      161.015       -8.262       75.201      101.090       62.743     5655.226    10219.200     3936.648        2.534        0.991      175.500       62.083        0.125      348.638       28.476      857.086
06/07/2014  17:45:00       34.624      169.488      -19.128       50.784       89.522       48.016     2578.967     8014.163     2305.521        2.159        0.645      172.988       52.475        0.092      348.630       28.465      857.082
06/07/2014  17:46:00       86.130      132.852      -14.204       81.162       74.050       53.505     6587.194     5483.473     2862.811        2.010        0.747      158.329       46.895        0.088      348.630       28.465      857.077
06/07/2014  17:47:00       52.017       94.912        1.278       71.629       77.340       58.442     5130.666     5981.424     3415.457        1.312        0.726      108.231       46.623        0.186      348.635       28.475      857.068
06/07/2014  17:48:00       60.128      202.022      -23.845      103.053      111.112       67.210    10619.869    12345.871     4517.133        3.623        1.374      210.780       65.002        0.095      348.658       28.511      857.074
06/07/2014  17:49:00       55.033      137.798        5.254       71.812       96.600       68.099     5156.916     9331.594     4637.419        2.058        0.956      148.381       67.556        0.207      348.663       28.521      857.064
06/07/2014  17:50:00      132.033      152.998        9.818       92.247      102.116       61.416     8509.578    10427.585     3771.885        3.182        1.135      202.092       55.139        0.074      348.663       28.520      857.051
06/07/2014  17:51:00       64.646       64.577       24.158       78.089       60.229       65.374     6097.931     3627.526     4273.695        1.146        0.700       91.374       41.991        0.211      348.674       28.542      857.045
06/07/2014  17:52:00       32.757      107.430      -13.680       40.961       58.804       33.435     1677.819     3457.878     1117.915        0.953        0.313      112.313       33.960        0.091      348.687       28.566      857.034
06/07/2014  17:53:00       62.803       86.836        3.908       56.225       49.371       38.644     3161.251     2437.512     1493.338        0.929        0.355      107.167       31.394        0.086      348.688       28.564      856.999
06/07/2014  17:54:00       62.778      108.692       -9.632       59.299       75.460       49.409     3516.383     5694.192     2441.210        1.375        0.583      125.519       47.514        0.143      348.687       28.563      856.963
06/07/2014  17:55:00       74.461      103.304       11.002       70.399       76.296       53.561     4956.026     5821.132     2868.763        1.499        0.682      127.343       45.639        0.128      348.672       28.538      856.942
06/07/2014  17:56:00       77.538       51.117       18.028       52.982       49.071       35.242     2807.058     2407.964     1241.964        0.770        0.323       92.871       14.594        0.025      348.649       28.500      856.940
06/07/2014  17:57:00       43.936       54.195       15.253       61.842       32.698       29.205     3824.381     1069.166      852.916        0.542        0.287       69.767       17.844        0.065      348.622       28.453      856.943
06/07/2014  17:58:00      129.036      114.691       17.036       80.790       46.864       41.732     6527.104     2196.195     1741.541        2.028        0.523      172.639       22.736        0.017      348.653       28.505      856.944
06/07/2014  17:59:00       44.383       72.742       -0.900       41.948       39.112       34.999     1759.639     1529.737     1224.946        0.589        0.226       85.213       27.602        0.105      348.657       28.512      856.964
06/07/2014  18:00:00       49.788       88.130       -9.842       51.206       60.027       27.733     2622.100     3603.260      769.132        0.867        0.350      101.221       27.791        0.075      348.646       28.492      856.963
06/07/2014  18:01:00       48.380       42.716        6.465       40.823       29.750       26.543     1666.538      885.075      704.537        0.373        0.163       64.539       15.445        0.057      348.652       28.504      856.955
06/07/2014  18:02:00       61.586      126.854       -7.933       42.726       78.399       33.676     1825.509     6146.472     1134.100        1.453        0.455      141.013       39.690        0.079      348.654       28.507      856.943
06/07/2014  18:03:00       74.003       87.986        2.362       68.628       48.337       42.054     4709.866     2336.441     1768.548        1.102        0.441      114.969       30.712        0.071      348.654       28.508      856.935
06/07/2014  18:04:00      107.772       84.617        5.861       53.886       39.940       37.673     2903.685     1595.225     1419.229        1.236        0.296      137.021       26.596        0.038      348.667       28.529      856.940
06/07/2014  18:05:00      114.083      109.900       14.693       88.589       87.871       63.722     7847.964     7721.383     4060.543        2.247        0.981      158.408       59.552        0.141      348.721       28.621      856.941
06/07/2014  18:06:00       83.314      157.764      -14.335      118.327      104.975       49.838    14001.241    11019.838     2483.848        2.977        1.375      178.412       51.711        0.084      348.724       28.628      856.954
06/07/2014  18:07:00       75.018      142.962        2.701       77.856       83.040       57.094     6061.609     6895.698     3259.742        2.114        0.811      161.449       55.693        0.119      348.736       28.651      856.976
06/07/2014  18:08:00       54.837      177.092      -12.995       53.291       95.878       52.973     2839.953     9192.514     2806.170        2.469        0.742      185.388       57.184        0.095      348.741       28.657      856.977
06/07/2014  18:09:00       66.198      161.380      -14.877       65.105      102.988       53.025     4238.639    10606.438     2811.696        2.415        0.883      174.429       62.020        0.126      348.752       28.676      856.978
06/07/2014  18:10:00       24.844      133.067      -16.363       61.552       62.744       40.522     3788.658     3936.790     1642.039        1.398        0.468      135.366       40.770        0.091      348.733       28.645      857.003
06/07/2014  18:11:00      -65.911      171.190      -29.546       64.965       91.548       39.885     4220.417     8380.994     1590.848        2.435        0.710      183.440       50.305        0.075      348.702       28.589      857.021
06/07/2014  18:12:00      -64.967      212.959      -22.051       78.463       75.205       47.348     6156.490     5655.854     2241.795        3.205        0.703      222.649       47.653        0.046      348.751       28.672      857.042
06/07/2014  18:13:00      -16.037      212.608      -20.073       63.192       74.410       42.187     3993.282     5536.917     1779.736        2.858        0.565      213.212       38.328        0.032      348.766       28.697      857.060
06/07/2014  18:14:00      -38.924      267.620      -33.359       69.021      135.031       40.957     4763.858    18233.456     1677.500        4.946        1.234      270.436       47.726        0.031      348.799       28.755      857.083
06/07/2014  18:15:00       30.310      342.851      -31.201       89.371      103.470       58.887     7987.250    10705.974     3467.631        7.080        1.108      344.188       60.914        0.031      348.792       28.742      857.085
06/07/2014  18:16:00       47.554      252.851      -26.315       65.494      116.248       66.987     4289.461    13513.608     4487.253        4.458        1.115      257.284       70.893        0.076      348.793       28.745      857.084
06/07/2014  18:17:00       72.022      112.878       27.386       93.415      103.950       75.431     8726.316    10805.640     5689.886        2.195        1.261      133.897       62.312        0.217      348.787       28.736      857.098
06/07/2014  18:18:00       47.074      223.361      -15.040       72.447      135.019       69.427     5248.613    18230.159     4820.168        4.031        1.415      228.267       69.861        0.094      348.770       28.706      857.105
06/07/2014  18:19:00       56.688      180.340       -3.766       93.938      122.479       72.120     8824.426    15001.045     5201.235        3.238        1.451      189.040       68.825        0.133      348.774       28.714      857.120
06/07/2014  18:20:00       50.637      260.353      -33.272       75.515      158.509       52.737     5702.550    25125.183     2781.194        5.253        1.680      265.231       69.621        0.069      348.768       28.701      857.131
06/07/2014  18:21:00       74.287      329.958      -40.638       91.798      179.915       74.225     8426.930    32369.499     5509.421        8.116        2.315      338.217       96.710        0.082      348.728       28.634      857.144
06/07/2014  18:22:00       73.447      244.565      -15.943      110.820      132.393       62.725    12281.157    17527.988     3934.382        4.960        1.687      255.355       73.942        0.084      348.720       28.620      857.145
06/07/2014  18:23:00       80.388      259.128      -22.216       82.253      121.889       80.061     6765.629    14857.020     6409.829        5.106        1.402      271.311       82.379        0.092      348.710       28.604      857.146
06/07/2014  18:24:00       31.579      258.523      -26.737       83.467      139.768       65.117     6966.801    19535.068     4240.163        4.964        1.537      260.445       69.739        0.072      348.700       28.583      857.164
06/07/2014  18:25:00       28.880      273.468      -29.027       86.542      174.664       68.012     7489.578    30507.529     4625.612        5.953        2.131      274.989       72.959        0.070      348.706       28.597      857.155
06/07/2014  18:26:00       78.359      295.251      -31.522       88.855      150.831       73.233     7895.153    22750.062     5363.118        6.515        1.800      305.472       80.774        0.070      348.704       28.593      857.133
06/07/2014  18:27:00       28.756      267.271      -24.048       69.272      136.426       59.638     4798.615    18612.065     3556.691        4.990        1.348      268.813       60.814        0.051      348.712       28.607      857.127
06/07/2014  18:28:00       56.876      223.992      -17.373       86.128      128.370       66.286     7418.028    16478.738     4393.892        4.099        1.415      231.100       68.254        0.087      348.702       28.589      857.126
06/07/2014  18:29:00       62.776      250.617      -34.249       87.205      131.123       64.203     7604.740    17193.261     4122.006        4.842        1.446      258.360       73.773        0.082      348.696       28.577      857.116
06/07/2014  18:30:00       11.155      208.222      -26.064       74.610       88.945       46.520     5566.620     7911.223     2164.074        2.990        0.782      208.521       49.291        0.056      348.666       28.528      857.118
06/07/2014  18:31:00       85.406      108.222       33.427       71.698       71.826       66.094     5140.575     5158.976     4368.467        1.739        0.733      137.863       55.559        0.162      348.674       28.541      857.149
06/07/2014  18:32:00       58.026      148.529       -9.548       85.788      101.073       72.270     7359.597    10215.657     5222.967        2.415        1.140      159.461       70.698        0.197      348.666       28.526      857.159
06/07/2014  18:33:00       33.962      165.011      -22.267       48.638       86.409       44.150     2365.683     7466.596     1949.262        2.033        0.589      168.470       52.069        0.096      348.667       28.527      857.176
06/07/2014  18:34:00       33.095      158.710      -13.149       61.820       84.363       51.626     3821.690     7117.104     2665.194        2.003        0.680      162.124       45.692        0.079      348.653       28.503      857.200
06/07/2014  18:35:00       94.428      120.737        0.271       72.714       81.059       60.864     5287.361     6570.511     3704.378        1.953        0.778      153.277       46.793        0.093      348.645       28.490      857.233
06/07/2014  18:36:00       88.493       75.880        9.506       78.551       67.711       47.265     6170.288     4584.784     2233.946        1.333        0.649      116.571       33.938        0.085      348.588       28.393      857.243
06/07/2014  18:37:00      112.721      184.741        3.503      117.979      123.040       74.894    13919.160    15138.909     5609.127        4.075        1.733      216.415       70.124        0.105      348.590       28.395      857.252
06/07/2014  18:38:00      191.924      165.538        9.951      123.364      105.985       73.603    15218.636    11232.759     5417.423        4.810        1.593      253.451       66.041        0.068      348.589       28.391      857.282
06/07/2014  18:39:00      140.900      141.499       16.231      125.655       95.078       65.371    15789.117     9039.754     4273.429        3.461        1.455      199.687       50.444        0.064      348.582       28.380      857.287
06/07/2014  18:40:00       78.236      112.047       -1.687       89.770       80.575       46.927     8058.594     6492.297     2202.108        1.771        0.838      136.659       43.213        0.100      348.570       28.360      857.309
06/07/2014  18:41:00       54.523      218.160      -32.907       88.095      112.139       51.363     7760.643    12575.171     2638.113        3.731        1.149      224.870       56.456        0.063      348.573       28.362      857.349
06/07/2014  18:42:00      210.087      155.532       39.801      131.663       75.215       72.001    17335.265     5657.301     5184.143        4.904        1.409      261.394       45.754        0.031      348.586       28.385      857.353
06/07/2014  18:43:00       92.216      228.365      -15.947       79.464      126.040       58.428     6314.456    15886.064     3413.855        4.326        1.281      246.281       67.630        0.075      348.574       28.365      857.366
06/07/2014  18:44:00       35.059      145.046        2.519       65.294      102.848       64.606     4263.367    10577.657     4173.899        2.064        0.951      149.222       66.079        0.196      348.581       28.379      857.390
06/07/2014  18:45:00       56.986      133.249       -5.410       63.256       83.847       55.751     4001.348     7030.304     3108.200        1.758        0.707      144.923       56.140        0.150      348.579       28.376      857.400
06/07/2014  18:46:00       14.551      246.916      -26.442       69.427      134.824       45.563     4820.108    18177.465     2075.968        4.347        1.254      247.344       52.273        0.045      348.581       28.378      857.392
06/07/2014  18:47:00       24.325      181.013      -19.037       60.899       90.760       46.412     3708.639     8237.380     2154.078        2.391        0.705      182.640       46.896        0.066      348.549       28.325      857.394
06/07/2014  18:48:00       91.833      211.888      -19.810      104.846      133.718       79.435    10992.714    17880.635     6309.871        4.445        1.759      230.933       84.687        0.134      348.559       28.340      857.406
06/07/2014  18:49:00      113.926       92.954       11.357      102.125      101.950       57.355    10429.506    10393.819     3289.638        2.293        1.206      147.037       43.626        0.088      348.491       28.223      857.412
06/07/2014  18:50:00      162.723      157.877       13.912      122.067      101.745       74.068    14900.415    10351.977     5486.039        4.116        1.537      226.725       58.607        0.067      348.490       28.220      857.416
06/07/2014  18:51:00      146.656      148.936       -3.546      123.642       96.142       69.495    15287.385     9243.327     4829.536        3.653        1.468      209.021       41.256        0.039      348.462       28.173      857.408
06/07/2014  18:52:00      133.890       94.338       13.788       83.020       62.765       56.450     6892.298     3939.440     3186.624        2.051        0.701      163.787       27.280        0.028      348.421       28.105      857.419
06/07/2014  18:53:00      181.458      165.431       25.957      146.605      110.937       70.199    21493.141    12307.037     4927.938        4.984        1.936      245.549       51.311        0.044      348.446       28.146      857.426
06/07/2014  18:54:00      237.844      176.593       27.315      123.496       75.393       74.620    15251.169     5684.041     5568.219        5.750        1.325      296.235       35.283        0.014      348.450       28.150      857.421
06/07/2014  18:55:00      158.184      133.334        2.006       91.110       91.299       64.471     8301.033     8335.552     4156.482        3.179        1.040      206.881       33.378        0.026      348.450       28.153      857.428
06/07/2014  18:56:00      199.593      173.402       22.371      128.470       88.837       80.729    16504.563     7891.939     6517.173        5.065        1.546      264.397       58.271        0.049      348.464       28.177      857.446
06/07/2014  18:57:00      104.017      120.614        3.151       95.261       76.815       56.291     9074.660     5900.494     3168.695        2.176        0.907      159.271       43.981        0.076      348.458       28.167      857.460
06/07/2014  18:58:00       78.565       95.823      -12.970       68.065       63.961       44.600     4632.839     4090.970     1989.186        1.312        0.536      123.913       35.698        0.083      348.448       28.152      857.475
06/07/2014  18:59:00      134.278      131.396        3.496       92.059       65.792       56.623     8474.823     4328.537     3206.138        2.566        0.800      187.871       40.551        0.047      348.458       28.166      857.494
06/07/2014  19:00:00       97.474      128.792       -1.032       72.492       74.744       51.213     5255.133     5586.648     2622.728        1.977        0.673      161.520       46.849        0.084      348.424       28.110      857.502
06/07/2014  19:01:00      104.229      110.854       21.718       87.322       50.241       66.504     7625.058     2524.151     4422.722        1.910        0.729      152.159       41.393        0.074      348.460       28.171      857.521
06/07/2014  19:02:00       81.199      123.437       -1.609       76.702       82.557       57.424     5883.180     6815.659     3297.514        1.891        0.800      147.750       52.042        0.124      348.480       28.204      857.533
06/07/2014  19:03:00       76.211      131.030        0.683       74.631       78.292       43.674     5569.748     6129.704     1907.429        1.829        0.680      151.581       43.607        0.083      348.490       28.222      857.543
06/07/2014  19:04:00       82.274      114.205       -0.067       57.270       61.953       46.253     3279.901     3838.142     2139.309        1.453        0.463      140.754       38.830        0.076      348.518       28.271      857.563
06/07/2014  19:05:00       72.517      118.358       -1.619       72.298       62.135       39.740     5227.059     3860.769     1579.258        1.497        0.533      138.807       34.498        0.062      348.546       28.321      857.570
06/07/2014  19:06:00       58.494       87.431        8.800       71.792       53.656       50.584     5154.071     2879.009     2558.709        1.087        0.530      105.194       37.238        0.125      348.586       28.389      857.563
06/07/2014  19:07:00      121.766      101.233       15.789       60.608       35.171       32.147     3673.390     1237.028     1033.427        1.563        0.297      158.350       19.656        0.015      348.554       28.332      857.572
06/07/2014  19:08:00      100.128       65.771       13.388       79.674       47.252       41.296     6348.016     2232.753     1705.329        1.241        0.514      119.798       26.870        0.050      348.550       28.326      857.592
06/07/2014  19:09:00      150.935      136.564       14.711      116.188       76.952       62.682    13499.583     5921.665     3928.978        3.249        1.168      203.547       40.366        0.039      348.577       28.373      857.614
06/07/2014  19:10:00      105.443       92.256        8.199       74.541       48.192       39.907     5556.432     2322.467     1592.530        1.458        0.474      140.105       30.115        0.046      348.573       28.366      857.634
06/07/2014  19:11:00      107.807      103.236       19.721       70.420       69.473       47.861     4959.039     4826.540     2290.675        1.737        0.604      149.265       33.141        0.049      348.553       28.332      857.664
06/07/2014  19:12:00       69.616      143.000       -6.511       76.539       77.773       49.795     5858.172     6048.622     2479.589        1.986        0.719      159.045       48.231        0.092      348.566       28.354      857.701
06/07/2014  19:13:00       80.732       67.092        8.064       50.998       36.839       36.286     2600.798     1357.095     1316.658        0.818        0.264      104.972       28.124        0.072      348.553       28.333      857.735
06/07/2014  19:14:00      101.793       89.383        2.502       56.892       48.356       38.797     3236.745     2338.265     1505.187        1.272        0.354      135.466       25.806        0.036      348.575       28.370      857.766
06/07/2014  19:15:00       72.347      149.990      -19.692       51.767       61.607       47.791     2679.850     3795.432     2284.018        1.844        0.438      166.526       43.430        0.068      348.558       28.341      857.783
06/07/2014  19:16:00       68.948       90.696       -0.040       66.267       68.335       43.569     4391.274     4669.655     1898.241        1.197        0.548      113.928       44.293        0.151      348.587       28.390      857.784
06/07/2014  19:17:00      138.791      121.796       11.418       84.318       55.009       46.988     7109.596     3026.008     2207.865        2.328        0.617      184.654       25.338        0.019      348.574       28.366      857.792
06/07/2014  19:18:00       55.881      169.820      -18.736       47.527      104.721       45.323     2258.774    10966.565     2054.177        2.379        0.764      178.778       51.343        0.082      348.562       28.345      857.777
06/07/2014  19:19:00       98.700       95.302        0.253       55.830       62.444       37.852     3116.976     3899.308     1432.778        1.363        0.422      137.201       29.091        0.045      348.537       28.303      857.778
06/07/2014  19:20:00      121.839       94.547       -5.415       75.822       62.147       43.346     5748.962     3862.203     1878.916        1.765        0.575      154.220       34.994        0.051      348.557       28.339      857.790
06/07/2014  19:21:00      126.795      102.322        3.492       81.562       55.059       43.281     6652.280     3031.546     1873.211        1.906        0.578      162.932       27.646        0.029      348.556       28.336      857.788
06/07/2014  19:22:00       63.498       83.213       -7.711       63.551       57.206       31.147     4038.764     3272.582      970.141        0.965        0.414      104.673       29.748        0.081      348.585       28.387      857.802
06/07/2014  19:23:00       38.407       96.148      -17.637       37.997       44.431       24.126     1443.771     1974.112      582.051        0.751        0.200      103.535       18.424        0.032      348.584       28.385      857.819
06/07/2014  19:24:00       32.165       23.493       18.844       39.266       23.209       23.045     1541.802      538.649      531.092        0.228        0.131       39.831       19.493        0.240      348.648       28.498      857.808
06/07/2014  19:25:00      111.134      125.786       -1.067       83.889       67.614       54.357     7037.426     4571.645     2954.665        2.137        0.728      167.848       44.358        0.070      348.570       28.361      857.798
06/07/2014  19:26:00      211.648      159.261       18.976      111.612       85.417       52.997    12457.290     7296.039     2808.721        4.654        1.128      264.875       33.423        0.016      348.539       28.306      857.800
06/07/2014  19:27:00      208.833      155.683       26.556      111.494       84.419       55.072    12430.862     7126.486     3032.954        4.557        1.130      260.477       37.302        0.021      348.534       28.298      857.789
06/07/2014  19:28:00      115.470      122.906       -8.645      107.160       81.198       58.047    11483.364     6593.133     3369.502        2.498        1.072      168.639       47.139        0.078      348.561       28.344      857.773
06/07/2014  19:29:00      221.775      151.766       19.358      100.157       76.382       65.739    10031.493     5834.225     4321.672        4.639        1.009      268.732       27.101        0.010      348.533       28.295      857.773
06/07/2014  19:30:00      240.559      178.600        3.615      138.935      116.823      104.006    19302.807    13647.541    10817.326        6.676        2.188      299.610       69.788        0.054      348.507       28.252      857.778
06/07/2014  19:31:00      202.473      136.169       24.624       94.334       69.713       54.323     8898.822     4859.858     2950.966        3.842        0.835      244.003       22.062        0.008      348.501       28.240      857.773
06/07/2014  19:32:00      216.338      104.707       36.953       83.128       77.178       52.879     6910.313     5956.440     2796.208        3.739        0.783      240.345       42.746        0.032      348.524       28.278      857.748
06/07/2014  19:33:00      237.010       97.284       35.796      118.157       81.629       57.348    13960.978     6663.316     3288.837        4.541        1.196      256.199       37.510        0.021      348.525       28.281      857.698
06/07/2014  19:34:00      145.611      106.988       19.827       71.988       60.471       48.958     5182.257     3656.766     2396.857        2.214        0.562      180.690       17.676        0.010      348.505       28.247      857.698
06/07/2014  19:35:00      176.540      107.570        6.607       85.896       62.829       56.199     7378.083     3947.543     3158.328        2.863        0.724      206.731       34.523        0.028      348.511       28.256      857.726
06/07/2014  19:36:00      138.978       79.018       20.552       96.459       56.136       54.157     9304.339     3151.215     2932.942        2.068        0.769      159.871       29.422        0.034      348.516       28.267      857.759
06/07/2014  19:37:00       59.426      114.007       -6.104       68.964       70.999       52.713     4756.078     5040.921     2778.688        1.457        0.629      128.565       45.758        0.127      348.482       28.208      857.796
06/07/2014  19:38:00       78.794      113.594       -3.375       68.596       59.068       46.129     4705.477     3489.007     2127.863        1.472        0.516      138.246       40.022        0.084      348.502       28.243      857.818
06/07/2014  19:39:00      178.781      129.574        9.529       69.763       51.411       48.581     4866.843     2643.124     2360.112        2.935        0.494      220.799       31.185        0.020      348.490       28.221      857.821
06/07/2014  19:40:00      128.148      119.781       -5.546       91.354       57.069       43.466     8345.490     3256.817     1889.322        2.214        0.675      175.413       46.539        0.070      348.500       28.239      857.791
06/07/2014  19:41:00      -64.665      100.675      -16.026      118.467      134.134       50.577    14034.461    17991.959     2558.056        2.457        1.729      119.654       42.563        0.127      348.610       28.429      857.823
06/07/2014  19:42:00     -170.274     -188.296       -0.608      125.792      100.287       64.593    15823.722    10057.458     4172.292        4.725        1.503      253.867       63.250        0.062      348.635       28.472      857.836
06/07/2014  19:43:00     -141.529      -85.373       -6.857       67.010       66.236       30.079     4490.363     4387.144      904.768        1.857        0.489      165.285       29.277        0.031      348.668       28.530      857.854
06/07/2014  19:44:00      -78.616       50.448        5.982       76.745       56.304       36.625     5889.732     3170.168     1341.419        0.958        0.520       93.410       44.350        0.225      348.664       28.522      857.885
06/07/2014  19:45:00      -97.293       52.901      -21.143       61.755       70.006       35.627     3813.690     4900.855     1269.267        1.135        0.499      110.745       26.551        0.057      348.659       28.515      857.887
06/07/2014  19:46:00     -162.656       16.310      -21.641       66.398       68.466       33.033     4408.757     4687.534     1091.165        1.869        0.509      163.471       32.954        0.041      348.636       28.476      857.882
06/07/2014  19:47:00     -183.563      -81.876      -12.555       71.625       64.270       38.881     5130.076     4130.674     1511.722        2.566        0.539      200.995       34.156        0.029      348.610       28.428      857.883
06/07/2014  19:48:00     -108.407      -18.119       -3.040       57.880       46.531       28.738     3350.088     2165.168      825.893        0.921        0.317      109.911       34.615        0.099      348.601       28.415      857.894
06/07/2014  19:49:00     -124.855      -15.708       -4.566       56.810       65.493       33.128     3227.348     4289.284     1097.450        1.223        0.431      125.839       36.545        0.084      348.641       28.484      857.891
06/07/2014  19:50:00     -149.743      -12.346      -14.836       83.106       48.841       23.979     6906.574     2385.398      575.011        1.633        0.493      150.251       20.920        0.019      348.584       28.386      857.893
06/07/2014  19:51:00     -174.611      -36.559      -12.669       88.472       64.979       36.596     7827.222     4222.293     1339.238        2.268        0.669      178.398       37.325        0.044      348.569       28.358      857.896
06/07/2014  19:52:00     -226.265       -3.363      -23.477       63.033       46.040       25.710     3973.140     2119.694      661.002        2.925        0.338      226.290       27.638        0.015      348.571       28.361      857.908
06/07/2014  19:53:00     -156.078      -24.650       -6.198       45.556       40.075       26.681     2075.316     1606.031      711.888        1.470        0.220      158.012       18.019        0.013      348.538       28.306      857.924
06/07/2014  19:54:00     -153.807      -50.113        6.135      103.624       89.664       58.592    10738.022     8039.697     3432.967        2.420        1.111      161.765       59.635        0.136      348.528       28.288      857.929
06/07/2014  19:55:00     -118.466      -25.726        3.620       58.992       55.324       39.134     3480.072     3060.715     1531.446        1.139        0.404      121.227       34.709        0.082      348.497       28.236      857.943
06/07/2014  19:56:00     -124.375      -16.161       -2.566       55.315       60.120       27.306     3059.731     3614.416      745.641        1.158        0.371      125.421       25.441        0.041      348.450       28.156      857.955
06/07/2014  19:57:00     -175.409      -13.531        0.035       57.638       61.099       39.196     3322.172     3733.135     1536.364        1.977        0.430      175.930       30.210        0.029      348.448       28.150      857.962
06/07/2014  19:58:00     -139.242      -49.412        1.235       59.490       52.074       29.918     3539.032     2711.685      895.096        1.449        0.357      147.749       20.983        0.020      348.459       28.167      857.971
06/07/2014  19:59:00     -177.174      -73.378      -13.424       72.768       48.525       33.898     5295.115     2354.661     1149.078        2.288        0.440      191.768       26.380        0.019      348.402       28.068      857.977
06/07/2014  20:00:00     -122.878      -16.899        5.502       61.145       61.968       37.477     3738.720     3840.076     1404.556        1.220        0.449      124.035       33.531        0.073      348.359       27.997      857.986
06/07/2014  20:01:00     -260.994      -38.221      -15.970       84.421       52.896       43.676     7126.949     2798.005     1907.624        4.083        0.592      263.778       43.531        0.027      348.402       28.066      858.002
06/07/2014  20:02:00     -143.717       13.009       -3.003       62.930       74.818       40.550     3960.163     5597.753     1644.327        1.602        0.560      144.304       33.523        0.054      348.396       28.061      858.013
06/07/2014  20:03:00     -152.473       -8.801       -4.888      100.793       62.393       40.600    10159.266     3892.880     1648.364        1.952        0.785      152.727       37.835        0.061      348.364       28.004      858.017
06/07/2014  20:04:00     -149.739      -28.800       -0.200       54.579       74.491       33.438     2978.863     5548.955     1118.093        1.645        0.482      152.483       27.247        0.032      348.345       27.972      858.038
06/07/2014  20:05:00     -260.054      -65.763       -8.453       87.887       75.252       45.668     7724.044     5662.789     2085.588        4.375        0.774      268.241       45.535        0.029      348.434       28.125      858.054
06/07/2014  20:06:00     -174.055       -0.749       -4.745       79.530       88.967       37.512     6325.089     7915.165     1407.116        2.298        0.782      174.057       37.996        0.048      348.389       28.046      858.068
06/07/2014  20:07:00     -176.849      -41.325       -8.352       67.246       70.043       37.737     4522.091     4905.986     1424.094        2.195        0.543      181.613       35.301        0.038      348.402       28.070      858.076
06/07/2014  20:08:00     -266.745      -53.306      -27.883       71.375       99.917       44.501     5094.429     9983.384     1980.333        4.591        0.853      272.019       42.918        0.025      348.355       27.987      858.088
06/07/2014  20:09:00     -288.081      -76.400      -11.895      107.292       78.652       47.806    11511.575     6186.168     2285.440        5.447        0.999      298.040       49.843        0.028      348.408       28.078      858.093
06/07/2014  20:10:00     -219.572      -68.908      -13.236      122.254       72.294       39.991    14946.123     5226.427     1599.275        3.745        1.089      230.131       42.101        0.033      348.390       28.049      858.101
06/07/2014  20:11:00     -357.657     -111.212      -11.836      108.531      102.642       55.832    11779.064    10535.418     3117.223        8.292        1.272      374.549       43.628        0.014      348.454       28.158      858.108
06/07/2014  20:12:00     -268.452     -116.114        1.339      100.954      114.048       60.340    10191.744    13007.040     3640.944        5.619        1.342      292.488       58.276        0.040      348.402       28.068      858.138
06/07/2014  20:13:00     -187.029     -109.118        7.535      120.481      112.763       65.138    14515.726    12715.584     4243.014        3.920        1.574      216.533       63.391        0.086      348.430       28.118      858.147
06/07/2014  20:14:00     -149.916      -88.919        0.011       98.000       73.699       41.500     9603.912     5431.575     1722.231        2.357        0.838      174.302       45.006        0.067      348.436       28.129      858.146
06/07/2014  20:15:00     -249.255      -78.604       -9.172       72.738       83.632       41.099     5290.794     6994.389     1689.139        4.118        0.699      261.356       35.773        0.019      348.395       28.056      858.168
06/07/2014  20:16:00     -151.786      -85.060       -3.023       93.958      100.890       45.152     8828.164    10178.873     2038.682        2.566        1.052      173.995       50.519        0.084      348.337       27.958      858.187
06/07/2014  20:17:00     -221.222     -105.636      -11.227      101.947      119.188       63.130    10393.180    14205.847     3985.334        4.440        1.429      245.149       48.999        0.040      348.386       28.040      858.190
06/07/2014  20:18:00     -188.020       -9.803      -13.254       89.705       48.553       30.262     8047.076     2357.424      915.813        2.347        0.566      188.276       38.811        0.042      348.321       27.929      858.211
06/07/2014  20:19:00     -211.599      -84.502       -3.784       80.998       68.164       41.513     6560.695     4646.293     1723.312        3.243        0.647      227.848       40.662        0.032      348.316       27.919      858.221
06/07/2014  20:20:00     -288.663      -81.537       -7.967       95.549       78.798       46.779     9129.525     6209.182     2188.297        5.378        0.876      299.957       46.940        0.024      348.337       27.955      858.238
06/07/2014  20:21:00     -318.805      -20.250      -10.802      137.477      114.182       58.189    18899.965    13037.614     3385.982        6.874        1.766      319.447       59.274        0.034      348.299       27.889      858.238
06/07/2014  20:22:00     -346.029     -113.868      -22.839      121.556       94.739       50.208    14775.862     8975.529     2520.836        7.974        1.314      364.283       43.077        0.014      348.259       27.821      858.256
06/07/2014  20:23:00     -234.374      -88.140       -6.155       96.830       77.374       48.365     9376.008     5986.779     2339.213        4.022        0.885      250.400       51.105        0.042      348.233       27.775      858.267
06/07/2014  20:24:00     -224.686        5.291      -15.247       95.832       82.141       46.211     9183.745     6747.225     2135.437        3.440        0.903      224.748       47.987        0.046      348.179       27.684      858.272
06/07/2014  20:25:00     -257.126      -79.136      -18.082       72.967       51.080       41.487     5324.159     2609.123     1721.212        4.118        0.483      269.028       41.688        0.024      348.178       27.680      858.279
06/07/2014  20:26:00     -179.832      -53.732        5.934       95.630       69.735       33.064     9145.167     4862.924     1093.249        2.518        0.755      187.688       38.587        0.042      348.125       27.591      858.289
06/07/2014  20:27:00     -190.115      -66.885       -9.427      111.237       97.879       48.631    12373.671     9580.294     2364.928        3.251        1.216      201.537       55.165        0.075      348.103       27.553      858.297
06/07/2014  20:28:00     -240.251      -79.143       -2.567      131.019       82.577       55.809    17165.853     6818.954     3114.605        4.554        1.355      252.951       62.995        0.062      348.110       27.564      858.293
06/07/2014  20:29:00     -251.815     -102.575        0.841      141.428      112.903       66.866    20001.750    12747.159     4471.125        5.557        1.861      271.905       72.866        0.072      348.106       27.556      858.304
06/07/2014  20:30:00     -257.237      -73.565       -7.339      162.037      114.594       72.646    26255.948    13131.697     5277.409        5.814        2.233      267.549       86.109        0.104      348.095       27.538      858.308
06/07/2014  20:31:00     -221.552      -64.373       -2.716       93.191       80.348       44.963     8684.471     6455.842     2021.648        3.520        0.858      230.714       47.282        0.042      348.056       27.469      858.323
06/07/2014  20:32:00     -253.841      -88.581        2.393      130.780      108.815       55.418    17103.353    11840.685     3071.147        5.215        1.601      268.853       63.037        0.055      348.026       27.417      858.334
06/07/2014  20:33:00     -313.417     -150.498       -6.535      122.252      124.013       73.387    14945.596    15379.232     5385.718        7.831        1.786      347.678       68.106        0.038      348.076       27.504      858.325
06/07/2014  20:34:00     -276.122      -51.984      -13.337       89.450      119.402       47.115     8001.304    14256.775     2219.807        5.180        1.224      280.973       41.344        0.022      348.024       27.414      858.356
06/07/2014  20:35:00     -155.613     -135.017      -12.782      119.051       77.682       50.933    14173.027     6034.443     2594.148        3.270        1.140      206.022       42.447        0.042      348.012       27.395      858.359
06/07/2014  20:36:00     -195.234      -34.796        0.545      123.320      100.294       51.250    15207.808    10058.905     2626.548        3.360        1.395      198.311       50.736        0.065      347.966       27.314      858.372
06/07/2014  20:37:00     -310.889      -20.666      -16.381      144.415       77.706       61.232    20855.621     6038.182     3749.299        6.399        1.532      311.575       70.749        0.052      347.984       27.347      858.386
06/07/2014  20:38:00     -147.581      -61.959        2.718       70.431       67.482       36.055     4960.564     4553.770     1299.956        1.822        0.541      160.059       29.895        0.035      347.918       27.235      858.407
06/07/2014  20:39:00     -168.173      -87.484       -4.120       65.656       57.145       36.726     4310.764     3265.543     1348.766        2.244        0.446      189.567       37.523        0.039      347.927       27.250      858.415
06/07/2014  20:40:00     -166.638      -47.792       -5.451      101.355       75.937       47.205    10272.872     5766.448     2228.348        2.417        0.913      173.356       52.061        0.090      347.898       27.198      858.430
06/07/2014  20:41:00     -235.553     -120.888       -5.623       96.722       76.891       55.441     9355.078     5912.178     3073.723        4.423        0.917      264.762       55.275        0.044      347.921       27.238      858.447
06/07/2014  20:42:00     -158.553      -40.015        0.693       95.791       82.224       46.322     9175.871     6760.807     2145.765        2.241        0.904      163.524       49.185        0.090      347.864       27.138      858.464
06/07/2014  20:43:00     -188.989     -135.323        6.166      144.838      119.314       69.436    20978.041    14235.737     4821.404        4.704        2.002      232.441       76.642        0.109      347.897       27.196      858.471
06/07/2014  20:44:00     -138.067      -52.010        8.567       93.028       73.349       46.181     8654.242     5380.054     2132.675        1.900        0.808      147.538       42.907        0.085      347.847       27.110      858.482
06/07/2014  20:45:00     -139.002      -52.261       -2.741       72.587       48.927       31.408     5268.886     2393.816      986.481        1.535        0.432      148.501       34.477        0.054      347.808       27.045      858.500
06/07/2014  20:46:00     -208.507     -126.153        1.689      112.290       89.503       55.444    12609.120     8010.746     3074.039        4.154        1.185      243.701       57.096        0.055      347.819       27.062      858.505
06/07/2014  20:47:00     -185.678      -45.751       -9.711       60.221       69.263       42.925     3626.573     4797.299     1842.514        2.346        0.513      191.232       28.241        0.022      347.784       27.001      858.518
06/07/2014  20:48:00     -165.736      -65.856       -5.596       61.423       57.592       41.374     3772.773     3316.833     1711.784        2.032        0.440      178.341       37.496        0.044      347.741       26.927      858.529
06/07/2014  20:49:00     -221.972      -16.074       -9.702       75.873       74.992       37.871     5756.756     5623.801     1434.197        3.122        0.641      222.553       36.212        0.026      347.729       26.906      858.550
06/07/2014  20:50:00     -176.537      -85.246      -12.270       92.273       63.642       40.860     8514.263     4050.277     1669.514        2.641        0.712      196.041       38.737        0.039      347.715       26.883      858.547
06/07/2014  20:51:00     -205.241      -42.073      -11.346       85.655       83.582       36.838     7336.732     6985.943     1357.019        2.985        0.784      209.509       29.915        0.020      347.672       26.808      858.573
06/07/2014  20:52:00     -284.955      -66.220       -7.503       68.319       73.515       43.118     4667.534     5404.517     1859.125        4.878        0.597      292.548       31.901        0.012      347.676       26.814      858.587
06/07/2014  20:53:00     -136.903       -9.335       10.168       92.950       54.968       41.844     8639.751     3021.497     1750.930        1.617        0.671      137.221       47.994        0.122      347.595       26.678      858.608
06/07/2014  20:54:00     -188.290      -71.697        6.684       79.340       69.188       39.752     6294.873     4787.031     1580.225        2.665        0.633      201.478       34.928        0.030      347.635       26.745      858.623
06/07/2014  20:55:00     -110.409      -11.331        8.515       86.348       77.195       43.620     7456.020     5959.107     1902.668        1.385        0.766      110.989       43.686        0.155      347.563       26.622      858.639
06/07/2014  20:56:00     -122.085      -60.074        0.850       83.568       91.627       55.424     6983.621     8395.521     3071.766        1.848        0.923      136.065       48.717        0.128      347.573       26.640      858.640
06/07/2014  20:57:00     -146.994      -43.810        4.007       80.167       70.138       38.769     6426.758     4919.374     1503.011        1.819        0.642      153.384       45.366        0.087      347.537       26.578      858.656
06/07/2014  20:58:00     -145.701      -49.728        0.993      110.812       62.063       49.126    12279.323     3851.797     2413.382        2.112        0.927      153.954       57.920        0.142      347.552       26.604      858.648
06/07/2014  20:59:00     -183.626      -97.749       -1.014      106.316       86.809       48.999    11303.094     7535.807     2400.885        3.225        1.062      208.023       51.864        0.062      347.532       26.566      858.664
06/07/2014  21:00:00     -141.341      -74.545        8.189       91.661       72.974       44.350     8401.709     5325.137     1966.904        2.064        0.785      159.795       49.144        0.095      347.514       26.537      858.680
06/07/2014  21:01:00     -177.652     -118.435       -6.649      108.715       87.177       48.048    11819.047     7599.874     2308.563        3.368        1.086      213.511       54.702        0.066      347.541       26.583      858.700
06/07/2014  21:02:00     -185.939      -81.305      -13.234       86.038       72.348       40.592     7402.476     5234.199     1647.700        2.782        0.714      202.938       26.942        0.018      347.512       26.532      858.714
06/07/2014  21:03:00     -149.066     -134.411       -5.196       98.086       97.974       54.407     9620.831     9598.868     2960.169        3.124        1.109      200.716       50.344        0.063      347.511       26.531      858.737
06/07/2014  21:04:00     -188.979     -114.286        7.385      110.478      100.448       52.465    12205.443    10089.834     2752.558        3.693        1.252      220.849       50.927        0.053      347.502       26.514      858.748
06/07/2014  21:05:00     -263.495      -79.877      -14.050       92.848       98.210       58.650     8620.819     9645.248     3439.810        4.885        1.085      275.336       59.639        0.047      347.528       26.560      858.778
06/07/2014  21:06:00     -162.658      -80.280       -4.376       99.929       72.538       37.114     9985.855     5261.826     1377.449        2.477        0.831      181.391       37.107        0.042      347.472       26.464      858.791
06/07/2014  21:07:00     -116.342      -80.788       -1.246       86.445       62.020       36.203     7472.817     3846.486     1310.683        1.634        0.631      141.641       37.953        0.072      347.428       26.389      858.815
06/07/2014  21:08:00     -157.897      -84.148       -9.856       51.734       58.459       37.521     2676.453     3417.468     1407.843        1.980        0.375      178.920       31.477        0.031      347.436       26.402      858.825
06/07/2014  21:09:00     -151.007      -62.214       -0.006       76.818       45.892       33.246     5900.971     2106.076     1105.279        1.789        0.456      163.321       33.665        0.042      347.393       26.328      858.840
06/07/2014  21:10:00     -165.089      -81.564       -6.917       62.075       65.429       37.545     3853.292     4280.925     1409.627        2.175        0.477      184.139       33.606        0.033      347.399       26.337      858.859
06/07/2014  21:11:00     -122.522      -54.585        4.812       79.190       74.883       44.660     6271.115     5607.471     1994.521        1.594        0.694      134.131       49.961        0.139      347.303       26.175      858.866
06/07/2014  21:12:00     -257.575      -68.676       -9.362      115.774       64.314       41.791    13403.650     4136.292     1746.486        4.521        0.964      266.574       45.129        0.029      347.340       26.234      858.878
06/07/2014  21:13:00     -134.699      -30.917        2.664       69.572       58.384       39.241     4840.256     3408.737     1539.826        1.445        0.489      138.202       39.200        0.080      347.240       26.066      858.886
06/07/2014  21:14:00     -158.115      -74.538       -1.468       68.824       63.620       34.151     4736.740     4047.463     1166.271        2.025        0.498      174.803       29.833        0.029      347.274       26.123      858.905
06/07/2014  21:15:00     -136.066      -10.407        1.426       68.825       61.004       38.524     4736.920     3721.468     1484.077        1.428        0.497      136.463       38.310        0.079      347.231       26.048      858.902
06/07/2014  21:16:00     -103.286      -94.268        3.463       89.735       67.872       44.518     8052.304     4606.557     1981.881        1.710        0.732      139.837       52.895        0.143      347.287       26.145      858.922
06/07/2014  21:17:00     -116.441        9.411       12.049       84.748       42.283       36.218     7182.178     1787.894     1311.723        1.203        0.514      116.821       44.909        0.148      347.233       26.053      858.934
06/07/2014  21:18:00     -117.159      -49.087       -4.749       40.202       42.610       23.027     1616.189     1815.628      530.251        1.006        0.198      127.027       18.436        0.021      347.198       25.992      858.962
06/07/2014  21:19:00     -126.320      -30.226        0.706       61.211       52.903       31.105     3746.753     2798.698      967.551        1.219        0.376      129.886       27.757        0.046      347.131       25.877      858.975
06/07/2014  21:20:00     -113.289      -58.661       -4.979       58.373       53.154       30.838     3407.368     2825.329      950.990        1.174        0.359      127.575       27.118        0.045      347.068       25.769      858.984
06/07/2014  21:21:00      -83.964      -40.885       16.349      108.206       44.185       36.105    11708.576     1952.275     1303.606        1.197        0.748       93.389       47.516        0.259      347.040       25.721      858.991
06/07/2014  21:22:00     -229.566      -61.752       -5.045       78.221       59.176       43.852     6118.484     3501.776     1923.042        3.404        0.577      237.727       47.340        0.040      347.105       25.829      859.003
06/07/2014  21:23:00     -179.004      -47.697        3.404       71.143       69.782       40.216     5061.257     4869.503     1617.336        2.294        0.577      185.250       36.060        0.038      347.110       25.841      859.024
06/07/2014  21:24:00      -21.500      -10.771        4.619       37.387       37.076       22.252     1397.819     1374.629      495.129        0.193        0.163       24.047       10.864        0.204      347.008       25.667      859.034
06/07/2014  21:25:00     -100.361      -20.258       -1.599       40.489       38.390       20.028     1639.320     1473.767      401.113        0.700        0.176      102.385       17.762        0.030      346.932       25.535      859.071
06/07/2014  21:26:00     -121.488        6.238       -5.713       24.605       30.046       18.516      605.408      902.752      342.826        0.834        0.093      121.648       15.184        0.016      347.003       25.658      859.092
06/07/2014  21:27:00     -141.632       -1.917      -17.427       34.553       26.123       18.629     1193.897      682.402      347.051        1.129        0.111      141.645       17.691        0.016      346.997       25.646      859.110
06/07/2014  21:28:00     -122.701      -32.170      -12.152       17.663       19.235       12.401      311.968      369.988      153.782        0.854        0.042      126.848        5.326        0.002      347.008       25.666      859.133
06/07/2014  21:29:00     -157.532      -34.025      -11.617       58.669       55.266       22.610     3442.095     3054.328      511.204        1.656        0.350      161.164       22.716        0.020      347.046       25.731      859.143
06/07/2014  21:30:00     -188.821      -36.983       -4.472       88.508       78.404       39.181     7833.696     6147.133     1535.138        2.628        0.776      192.409       40.698        0.045      347.121       25.859      859.163
06/07/2014  21:31:00     -143.047      -21.321        2.241       63.044       61.945       35.307     3974.552     3837.123     1246.584        1.499        0.453      144.627       24.015        0.028      347.080       25.789      859.180
06/07/2014  21:32:00      -52.701        4.205        7.727       52.193       90.563       36.995     2724.102     8201.740     1368.659        0.757        0.615       52.869       28.307        0.287      347.052       25.743      859.196
06/07/2014  21:33:00     -110.879       15.455       -2.493       64.012       79.662       35.659     4097.564     6345.957     1271.553        1.212        0.586      111.951       31.102        0.077      347.131       25.878      859.216
06/07/2014  21:34:00     -131.085       -5.681      -13.042       45.189       37.496       15.220     2042.042     1405.937      231.637        1.053        0.184      131.208       12.054        0.008      347.062       25.759      859.248
06/07/2014  21:35:00      -99.380      -34.238        1.419       71.479       63.671       43.568     5109.183     4053.963     1898.185        1.105        0.553      105.113       38.395        0.133      347.095       25.815      859.265
06/07/2014  21:36:00     -135.655      -10.713      -16.696       75.263       68.147       35.388     5664.533     4644.035     1252.315        1.518        0.578      136.077       22.247        0.027      347.183       25.968      859.284
06/07/2014  21:37:00     -127.532        7.980       -9.912       75.731       58.980       37.787     5735.133     3478.693     1427.885        1.353        0.532      127.782       34.875        0.074      347.196       25.989      859.305
06/07/2014  21:38:00      -89.752        5.318       -4.572       72.877       48.791       38.344     5311.024     2380.513     1470.293        0.863        0.458       89.909       43.009        0.229      347.172       25.948      859.319
06/07/2014  21:39:00     -132.036       50.283      -14.856       81.404       43.997       38.939     6626.669     1935.701     1516.248        1.513        0.504      141.287       40.229        0.081      347.301       26.169      859.348
06/07/2014  21:40:00      -67.177       24.899       -0.629       35.913       46.356       30.184     1289.774     2148.843      911.048        0.474        0.217       71.643       13.297        0.034      347.193       25.986      859.353
06/07/2014  21:41:00     -183.263      115.530      -41.947      100.837      129.509       51.489    10168.094    16772.572     2651.114        3.914        1.480      216.639       41.464        0.037      347.303       26.171      859.372
06/07/2014  21:42:00     -206.667      120.595      -22.604       78.786      111.321       56.747     6207.184    12392.324     3220.254        3.979        1.091      239.278       46.344        0.038      347.311       26.183      859.374
06/07/2014  21:43:00     -159.522       80.450       -7.740       89.512       64.207       51.593     8012.428     4122.549     2661.829        2.339        0.740      178.660       46.036        0.066      347.282       26.136      859.392
06/07/2014  21:44:00     -213.128      104.694      -41.279      121.380       90.714       49.632    14733.164     8229.099     2463.339        4.175        1.271      237.454       51.837        0.048      347.292       26.153      859.411
06/07/2014  21:45:00     -210.140       42.400      -18.793      141.723      148.496       68.760    20085.521    22051.209     4727.965        4.658        2.343      214.375       65.586        0.094      347.310       26.185      859.425
06/07/2014  21:46:00     -209.082       99.547      -26.009      125.198       84.025       57.820    15674.494     7060.192     3343.209        4.018        1.304      231.571       58.249        0.063      347.362       26.274      859.449
06/07/2014  21:47:00     -139.691      144.693      -20.275       48.797       95.800       37.041     2381.143     9177.585     1372.040        2.689        0.647      201.121       18.027        0.008      347.345       26.244      859.457
06/07/2014  21:48:00     -162.128      114.865      -23.725      137.894       99.939       62.888    19014.687     9987.880     3954.904        3.649        1.648      198.695       61.813        0.097      347.350       26.253      859.480
06/07/2014  21:49:00     -144.815       76.222      -11.465       95.097       80.218       57.286     9043.446     6435.004     3281.648        2.283        0.938      163.650       48.034        0.086      347.332       26.224      859.500
06/07/2014  21:50:00      -89.145       50.789      -10.102       63.712       61.575       30.453     4059.219     3791.466      927.383        0.970        0.439      102.598       27.802        0.073      347.288       26.148      859.497
06/07/2014  21:51:00     -114.296       48.758       -6.863       78.444       60.640       33.051     6153.471     3677.164     1092.361        1.320        0.546      124.261       23.711        0.036      347.201       25.998      859.521
06/07/2014  21:52:00      -91.590      143.483      -11.583       56.829       80.027       36.636     3229.588     6404.266     1342.219        2.004        0.549      170.224       38.999        0.052      347.210       26.012      859.537
06/07/2014  21:53:00      -89.029       77.525      -29.310       51.155       53.257       32.198     2616.868     2836.288     1036.692        1.064        0.324      118.052       21.125        0.032      347.243       26.071      859.535
06/07/2014  21:54:00     -106.853       89.963      -22.610       52.866       53.562       28.744     2794.827     2868.862      826.213        1.325        0.324      139.681       28.298        0.041      347.189       25.977      859.551
06/07/2014  21:55:00      -80.120       -7.163      -18.150       84.675       89.148       54.167     7169.908     7947.388     2934.099        1.242        0.903       80.439       48.750        0.367      347.168       25.940      859.562
06/07/2014  21:56:00     -121.725      132.877      -13.622       85.342      113.999       64.954     7283.192    12995.752     4219.054        2.857        1.225      180.204       48.377        0.072      347.147       25.903      859.580
06/07/2014  21:57:00     -141.292      147.488      -42.531       59.972       71.245       42.544     3596.628     5075.801     1809.983        2.700        0.524      204.245       40.736        0.040      347.115       25.848      859.605
06/07/2014  21:58:00     -131.850       90.662      -31.697       50.710       54.604       31.121     2571.460     2981.598      968.547        1.656        0.326      160.013       33.852        0.045      347.143       25.898      859.625
06/07/2014  21:59:00     -141.878      114.792      -17.122       78.475       70.325       40.160     6158.267     4945.629     1612.850        2.316        0.636      182.501       41.538        0.052      347.147       25.904      859.659
06/07/2014  22:00:00     -144.887      123.889      -12.979       79.277       99.287       54.762     6284.904     9857.934     2998.919        2.782        0.957      190.633       39.589        0.043      347.106       25.833      859.666
06/07/2014  22:01:00      -97.633      152.665      -17.334       95.902      117.927       52.802     9197.260    13906.661     2788.094        2.951        1.295      181.215       67.804        0.140      347.074       25.778      859.685
06/07/2014  22:02:00     -129.552      163.237      -31.925       62.092       78.528       40.369     3855.407     6166.572     1629.680        2.805        0.583      208.399       32.432        0.024      347.043       25.724      859.691
06/07/2014  22:03:00     -107.323      131.797      -13.930      103.778      102.272       54.836    10769.925    10459.619     3007.023        2.665        1.212      169.967       62.871        0.137      347.018       25.681      859.691
06/07/2014  22:04:00     -134.894      217.248      -20.165       71.190      102.231       44.244     5067.955    10451.165     1957.523        4.163        0.874      255.721       37.387        0.021      346.962       25.583      859.708
06/07/2014  22:05:00     -117.080       96.571      -15.379       74.193      100.518       42.027     5504.569    10103.847     1766.285        2.032        0.869      151.768       50.501        0.111      346.870       25.427      859.707
06/07/2014  22:06:00     -167.565      190.207      -32.964       85.579       81.926       47.860     7323.691     6711.942     2290.587        4.083        0.816      253.489       49.408        0.038      347.011       25.668      859.714
06/07/2014  22:07:00     -101.556      194.669      -26.666       56.812       90.160       40.934     3227.604     8128.765     1675.586        3.097        0.652      219.567       41.572        0.036      346.937       25.542      859.728
06/07/2014  22:08:00     -124.908      152.340      -25.057       76.726       77.061       48.339     5886.865     5938.435     2336.696        2.680        0.708      197.001       55.925        0.081      346.913       25.501      859.749
06/07/2014  22:09:00      -82.735      176.681      -24.844       61.176       91.751       33.147     3742.467     8418.317     1098.743        2.597        0.663      195.093       28.190        0.021      346.898       25.475      859.754
06/07/2014  22:10:00      -81.833      181.284       -4.708       61.881       88.858       43.399     3829.239     7895.830     1883.441        2.659        0.680      198.899       42.780        0.046      346.833       25.362      859.757
06/07/2014  22:11:00     -102.143      124.823       -6.439       83.850       83.588       40.967     7030.858     6987.034     1678.319        2.087        0.785      161.289       47.723        0.088      346.797       25.299      859.771
06/07/2014  22:12:00     -114.897      193.098      -31.954       63.085       71.114       46.120     3979.672     5057.225     2127.024        3.133        0.558      224.695       37.811        0.028      346.949       25.560      859.767
06/07/2014  22:13:00      -75.800      205.039       -7.789       53.389       80.488       43.349     2850.336     6478.335     1879.122        2.953        0.560      218.602       31.802        0.021      346.856       25.401      859.763
06/07/2014  22:14:00     -113.809      165.103      -21.773       69.335       73.824       44.598     4807.308     5449.995     1988.982        2.646        0.612      200.528       30.924        0.024      346.858       25.405      859.770
06/07/2014  22:15:00     -144.917      110.534      -20.622      100.533       51.305       35.085    10106.950     2632.178     1230.989        2.380        0.699      182.260       26.062        0.020      346.870       25.426      859.777
06/07/2014  22:16:00     -119.491      201.745      -17.842       66.739       84.576       50.271     4454.160     7153.077     2527.165        3.471        0.707      234.476       38.231        0.027      346.825       25.347      859.782
06/07/2014  22:17:00     -119.453      101.149      -20.769       52.585       70.677       39.003     2765.202     4995.182     1521.254        1.710        0.464      156.525       30.726        0.039      346.782       25.277      859.803
06/07/2014  22:18:00     -173.520      195.784      -41.058       71.202       87.298       47.268     5069.691     7620.995     2234.222        4.252        0.746      261.611       38.500        0.022      346.879       25.441      859.819
06/07/2014  22:19:00      -88.980       85.124       -1.394       48.936       57.062       41.285     2394.706     3256.055     1704.490        1.126        0.368      123.140       31.096        0.064      346.764       25.245      859.820
06/07/2014  22:20:00     -152.389      170.827      -33.773       76.441       81.814       46.105     5843.240     6693.539     2125.657        3.410        0.733      228.920       45.346        0.039      346.761       25.238      859.824
06/07/2014  22:21:00     -118.563      105.099      -21.150       49.608       71.831       38.839     2460.942     5159.763     1508.491        1.734        0.456      158.439       24.715        0.024      346.740       25.204      859.843
06/07/2014  22:22:00     -151.361       96.310      -16.433       87.210       74.141       41.742     7605.585     5496.857     1742.429        2.365        0.742      179.404       25.279        0.020      346.723       25.173      859.853
06/07/2014  22:23:00     -102.389       58.260      -20.193       62.287       84.854       34.265     3879.715     7200.282     1174.094        1.327        0.613      117.804       36.356        0.095      346.707       25.147      859.864
06/07/2014  22:24:00     -148.303       76.090      -25.928      108.890      101.291       54.532    11856.992    10259.807     2973.764        2.677        1.255      166.684       59.245        0.126      346.680       25.099      859.868
06/07/2014  22:25:00     -164.564      203.817      -39.606       99.835       71.009       54.533     9967.109     5042.214     2973.879        4.408        0.899      261.960       54.955        0.044      346.693       25.121      859.897
06/07/2014  22:26:00     -170.272      177.250      -33.956       67.189       75.977       47.531     4514.346     5772.492     2259.168        3.705        0.627      245.785       45.591        0.034      346.696       25.125      859.903
06/07/2014  22:27:00     -123.234      150.147      -32.951       63.257       56.365       35.823     4001.508     3176.987     1283.318        2.364        0.423      194.244       28.563        0.022      346.643       25.035      859.919
06/07/2014  22:28:00     -137.159      136.019      -18.249       80.742      107.322       46.621     6519.291    11518.048     2173.520        2.892        1.011      193.168       45.215        0.055      346.650       25.047      859.934
06/07/2014  22:29:00      -99.725      137.688      -13.116      102.152       68.525       40.666    10435.045     4695.628     1653.717        2.293        0.839      170.009       37.585        0.049      346.615       24.989      859.944
06/07/2014  22:30:00      -97.495      146.329      -11.054       89.925      111.959       60.979     8086.496    12534.729     3718.414        2.768        1.217      175.834       71.120        0.164      346.654       25.055      859.953
06/07/2014  22:31:00     -188.240      190.572      -44.499       74.663       70.746       44.676     5574.577     5005.037     1995.923        4.315        0.629      267.866       44.536        0.028      346.718       25.163      859.971
06/07/2014  22:32:00     -157.622      243.309      -38.944       93.326      140.738       57.988     8709.745    19807.143     3362.618        5.871        1.594      289.903       67.633        0.054      346.731       25.187      859.983
06/07/2014  22:33:00     -155.624      209.457      -25.772      107.340      125.820       65.339    11521.842    15830.631     4269.157        5.018        1.581      260.943       80.735        0.096      346.684       25.107      859.982
06/07/2014  22:34:00     -157.282      249.331      -42.223       67.269       87.263       49.040     4525.059     7614.898     2404.922        5.161        0.727      294.794       40.704        0.019      346.746       25.212      859.995
06/07/2014  22:35:00     -121.090      247.103      -33.783       77.549       96.998       56.272     6013.851     9408.665     3166.581        4.772        0.929      275.178       61.604        0.050      346.705       25.140      859.994
06/07/2014  22:36:00     -119.723      284.752      -41.358       69.391       78.415       39.687     4815.057     6148.889     1575.036        5.483        0.627      308.897       24.726        0.006      346.698       25.128      860.010
06/07/2014  22:37:00     -122.479      134.747      -12.487       83.363       67.539       51.941     6949.354     4561.505     2697.826        2.376        0.710      182.093       39.384        0.047      346.643       25.038      860.021
06/07/2014  22:38:00     -100.675      182.525      -18.511       80.185       98.542       39.360     6429.643     9710.443     1549.241        3.074        0.884      208.448       35.309        0.029      346.557       24.888      860.044
06/07/2014  22:39:00      -85.421      147.873      -14.462       50.318       69.944       34.695     2531.918     4892.198     1203.738        1.900        0.431      170.772       32.629        0.037      346.556       24.886      860.041
06/07/2014  22:40:00      -99.306      148.495      -24.878       57.968       68.193       46.648     3360.284     4650.347     2176.037        2.136        0.509      178.640       42.055        0.055      346.569       24.909      860.059
06/07/2014  22:41:00     -176.841      270.694      -40.015       84.033      146.617       58.265     7061.611    21496.572     3394.817        6.904        1.598      323.338       65.458        0.041      346.604       24.967      860.071
06/07/2014  22:42:00     -167.297      211.204      -39.619       90.270       78.403       46.617     8148.741     6146.959     2173.127        4.531        0.823      269.435       45.153        0.028      346.558       24.887      860.100
06/07/2014  22:43:00     -111.998      196.174      -16.200       84.925       93.495       46.695     7212.292     8741.395     2180.465        3.471        0.907      225.893       55.953        0.061      346.482       24.759      860.107
06/07/2014  22:44:00     -182.504      204.362      -39.300       89.914       79.868       51.355     8084.563     6378.883     2637.353        4.685        0.855      273.992       50.795        0.034      346.500       24.788      860.123
06/07/2014  22:45:00      -86.822      211.549      -24.791       71.926      105.565       48.003     5173.294    11144.002     2304.251        3.576        0.931      228.672       45.539        0.040      346.453       24.708      860.142
06/07/2014  22:46:00     -125.262      135.594      -20.757       74.414       70.600       37.884     5537.408     4984.327     1435.173        2.323        0.598      184.598       35.706        0.037      346.455       24.712      860.150
06/07/2014  22:47:00      -88.663      187.009      -23.097       65.899       96.696       45.754     4342.649     9350.076     2093.397        2.957        0.789      206.962       33.202        0.026      346.423       24.657      860.150
06/07/2014  22:48:00     -189.034      207.296      -31.010       99.673       89.399       56.927     9934.805     7992.203     3240.674        5.041        1.058      280.545       56.342        0.040      346.470       24.737      860.158
06/07/2014  22:49:00     -109.136      190.028      -31.103       77.388       83.983       51.497     5988.977     7053.182     2651.946        3.234        0.785      219.138       43.303        0.039      346.481       24.756      860.171
06/07/2014  22:50:00     -144.217      169.207      -34.345       80.511       75.917       42.332     6482.009     5763.350     1791.976        3.232        0.702      222.328       41.058        0.034      346.414       24.643      860.184
06/07/2014  22:51:00     -142.857      197.202      -35.462       78.304       91.468       53.552     6131.492     8366.306     2867.844        3.896        0.868      243.509       47.769        0.038      346.470       24.736      860.203
06/07/2014  22:52:00     -209.561      213.311      -50.514      101.376      104.181       60.501    10277.144    10853.683     3660.332        5.838        1.240      299.027       58.089        0.038      346.453       24.707      860.217
06/07/2014  22:53:00     -129.407      256.725      -26.640       84.576      105.450       54.788     7153.061    11119.756     3001.746        5.231        1.064      287.496       52.055        0.033      346.395       24.608      860.230
06/07/2014  22:54:00     -163.732      250.481      -36.953       89.347       77.364       46.465     7982.970     5985.161     2158.953        5.352        0.806      299.247       44.715        0.022      346.393       24.603      860.248
06/07/2014  22:55:00     -114.984      284.891      -35.310       70.102       83.894       41.417     4914.348     7038.167     1715.398        5.465        0.683      307.220       33.091        0.012      346.422       24.654      860.250
06/07/2014  22:56:00      -94.114      238.881      -20.964      105.257      151.241       56.578    11079.054    22873.719     3201.069        5.175        1.858      256.752       69.616        0.074      346.361       24.550      860.261
06/07/2014  22:57:00     -199.182      286.774      -42.058       82.468      165.852       63.462     6801.008    27506.881     4027.460        8.100        1.917      349.160       70.015        0.040      346.405       24.627      860.272
06/07/2014  22:58:00     -104.902      182.410      -33.078      103.623      111.317       54.460    10737.739    12391.568     2965.937        3.573        1.305      210.423       68.058        0.105      346.391       24.602      860.279
06/07/2014  22:59:00     -183.727      279.367      -49.181       74.054      160.026       57.484     5483.978    25608.216     3304.376        7.430        1.720      334.367       45.508        0.019      346.402       24.620      860.258
06/07/2014  23:00:00     -153.088      182.982      -19.969      101.850       96.161       60.799    10373.495     9246.902     3696.566        4.031        1.166      238.576       59.960        0.063      346.283       24.416      860.262
06/07/2014  23:01:00     -211.908      196.906      -48.269       86.461      107.990       50.259     7475.433    11661.845     2525.940        5.383        1.083      289.270       60.874        0.044      346.323       24.483      860.263
06/07/2014  23:02:00     -159.751      223.531      -43.202      107.018       84.900       49.402    11452.890     7207.973     2440.531        4.922        1.055      274.748       54.757        0.040      346.335       24.505      860.261
06/07/2014  23:03:00     -137.283      104.449      -25.183       69.503       66.838       39.051     4830.634     4467.266     1524.989        2.060        0.541      172.500       36.397        0.045      346.208       24.287      860.255
06/07/2014  23:04:00     -152.257      246.778      -31.241       95.298      142.554       52.882     9081.631    20321.600     2796.509        5.862        1.610      289.968       48.204        0.028      346.284       24.417      860.267
06/07/2014  23:05:00     -122.741      173.104      -12.945       98.028      123.451       56.343     9609.418    15240.217     3174.563        3.661        1.401      212.203       57.137        0.072      346.212       24.295      860.264
06/07/2014  23:06:00     -219.660      212.682      -56.599       91.826       88.634       48.620     8432.004     7855.898     2363.901        5.767        0.933      305.751       57.122        0.035      346.249       24.358      860.265
06/07/2014  23:07:00     -246.855      310.282      -56.217      147.919      101.080       67.309    21880.106    10217.160     4530.543        9.849        1.831      396.500       73.055        0.034      346.292       24.431      860.286
06/07/2014  23:08:00     -178.588      214.354      -27.254       83.579      112.664       50.346     6985.507    12693.085     2534.767        5.039        1.111      279.001       41.459        0.022      346.217       24.300      860.290
06/07/2014  23:09:00     -215.412      260.675      -42.182      101.099      126.614       70.030    10221.089    16031.029     4904.208        7.364        1.558      338.162       69.497        0.042      346.217       24.302      860.286
06/07/2014  23:10:00     -182.166      187.046      -36.854       84.220      102.864       48.292     7092.968    10580.976     2332.095        4.476        1.000      261.095       54.853        0.044      346.175       24.230      860.281
06/07/2014  23:11:00     -184.425      242.421      -50.480       73.055       75.334       44.337     5337.090     5675.143     1965.789        5.415        0.649      304.599       45.004        0.022      346.165       24.211      860.290
06/07/2014  23:12:00     -183.451      159.819      -34.493      104.417       86.646       55.280    10902.890     7507.546     3055.928        4.092        1.073      243.303       60.326        0.061      346.138       24.167      860.290
06/07/2014  23:13:00     -167.162      197.410      -27.966       77.308       86.796       53.896     5976.539     7533.512     2904.754        4.205        0.821      258.678       48.129        0.035      346.114       24.125      860.289
06/07/2014  23:14:00     -190.120      209.500      -30.052       96.012      103.933       57.689     9218.305    10802.123     3327.974        5.214        1.167      282.906       55.228        0.038      346.116       24.130      860.302
06/07/2014  23:15:00     -201.992      201.524      -52.210       81.921       95.993       54.343     6711.120     9214.657     2953.117        5.150        0.944      285.329       38.599        0.018      346.129       24.151      860.309
06/07/2014  23:16:00     -147.962      192.104      -19.938       88.650      129.846       55.650     7858.890    16860.052     3096.891        4.350        1.391      242.480       66.023        0.074      346.052       24.019      860.299
06/07/2014  23:17:00     -206.790      290.085      -59.474       86.035      119.440       55.126     7402.043    14265.953     3038.928        7.757        1.235      356.246       48.448        0.018      346.091       24.085      860.293
06/07/2014  23:18:00     -175.476      240.399      -37.795      116.731      111.370       59.397    13626.050    12403.212     3527.989        5.978        1.478      297.630       53.579        0.032      346.089       24.082      860.310
06/07/2014  23:19:00     -138.690      160.777      -25.991       74.423       75.608       45.876     5538.782     5716.644     2104.624        2.956        0.668      212.330       40.280        0.036      346.016       23.958      860.310
06/07/2014  23:20:00     -149.832      182.732      -24.306       95.365       85.148       49.467     9094.564     7250.170     2446.947        3.761        0.940      236.307       48.834        0.043      346.018       23.960      860.311
06/07/2014  23:21:00     -188.478      243.819      -41.437       96.711      129.293       55.534     9353.086    16716.680     3083.978        6.292        1.458      308.174       54.745        0.032      346.081       24.068      860.334
06/07/2014  23:22:00     -172.652      174.086      -30.782       66.392       83.208       49.951     4407.953     6923.569     2495.073        3.744        0.691      245.183       46.046        0.035      346.038       23.995      860.333
06/07/2014  23:23:00     -200.824      210.636      -54.365      106.246       71.659       50.420    11288.170     5134.959     2542.158        5.331        0.948      291.029       58.142        0.040      346.069       24.046      860.351
06/07/2014  23:24:00     -182.899      184.009      -39.049       90.346      121.551       50.544     8162.483    14774.567     2554.738        4.716        1.275      259.445       53.642        0.043      346.021       23.964      860.359
06/07/2014  23:25:00     -176.826      160.105      -31.212       97.575       70.407       53.443     9520.895     4957.172     2856.172        3.760        0.867      238.539       44.409        0.035      345.988       23.909      860.365
06/07/2014  23:26:00     -202.082      263.507      -54.292       89.286      103.377       53.541     7972.015    10686.851     2866.660        6.737        1.076      332.074       52.030        0.025      346.037       23.994      860.384
06/07/2014  23:27:00     -135.513      192.246      -29.457       86.009       73.025       48.212     7397.551     5332.610     2324.391        3.562        0.753      235.207       44.724        0.036      345.992       23.915      860.392
06/07/2014  23:28:00     -148.394      220.746      -38.148      102.127      125.133       53.060    10429.972    15658.145     2815.337        5.055        1.445      265.988       42.374        0.025      345.997       23.924      860.389
06/07/2014  23:29:00     -237.576      243.791      -57.137       80.514      108.913       66.628     6482.564    11861.944     4439.274        7.096        1.139      340.406       64.481        0.036      346.020       23.964      860.396
06/07/2014  23:30:00     -203.848      316.955      -60.229       71.692       87.807       55.454     5139.753     7710.085     3075.125        8.078        0.796      376.848       43.105        0.013      346.024       23.971      860.407
06/07/2014  23:31:00     -135.346      207.792      -21.330       80.942      108.053       52.222     6551.553    11675.536     2727.149        4.145        1.048      247.984       45.538        0.034      345.930       23.811      860.426
06/07/2014  23:32:00      -97.456      225.299      -32.153       72.084       95.808       49.495     5196.073     9179.191     2449.739        3.905        0.841      245.474       44.822        0.033      345.979       23.893      860.428
06/07/2014  23:33:00     -208.150      239.614      -53.945      104.695       95.040       55.023    10961.086     9032.609     3027.476        6.333        1.151      317.397       43.175        0.019      346.034       23.988      860.447
06/07/2014  23:34:00     -140.634      233.084      -33.857      107.675      114.995       56.080    11593.939    13223.872     3144.984        5.160        1.398      272.224       56.494        0.043      345.984       23.902      860.447
06/07/2014  23:35:00     -160.427      164.970      -24.785       78.030      107.251       47.860     6088.683    11502.765     2290.569        3.672        0.994      230.113       45.050        0.038      345.968       23.876      860.446
06/07/2014  23:36:00     -182.644      259.360      -44.660      135.050      124.847       68.045    18238.553    15586.809     4630.082        7.053        1.923      317.217       84.999        0.072      346.007       23.940      860.450
06/07/2014  23:37:00     -128.199      177.774      -25.073       86.959       91.438       62.582     7561.923     8360.971     3916.543        3.425        0.992      219.177       58.472        0.071      346.007       23.941      860.456
06/07/2014  23:38:00     -216.099      310.238      -49.616       97.859      127.798       50.348     9576.374    16332.216     2534.960        8.692        1.422      378.083       58.277        0.024      346.042       24.001      860.450
06/07/2014  23:39:00      -90.850      173.200       -8.179       70.232       74.856       53.023     4932.592     5603.357     2811.488        2.583        0.667      195.582       47.439        0.059      345.901       23.761      860.463
06/07/2014  23:40:00     -158.657      194.178      -25.583      113.085      114.202       50.649    12788.195    13042.041     2565.285        4.596        1.420      250.753       42.893        0.029      345.984       23.901      860.465
06/07/2014  23:41:00     -130.096      207.121      -20.769       77.231       93.362       50.811     5964.673     8716.512     2581.767        3.876        0.863      244.589       48.814        0.040      345.957       23.856      860.478
06/07/2014  23:42:00     -184.673      235.094      -41.043       98.689       96.952       63.165     9739.455     9399.734     3989.877        5.709        1.156      298.953       59.271        0.039      345.970       23.878      860.497
06/07/2014  23:43:00     -195.138      260.473      -36.346      110.914      168.715       76.208    12302.000    28464.709     5807.699        7.690        2.329      325.461       79.966        0.060      345.949       23.842      860.499
06/07/2014  23:44:00     -181.856      244.971      -47.293       78.244      105.509       50.016     6122.173    11132.246     2501.648        5.753        0.988      305.094       34.525        0.013      345.942       23.830      860.499
06/07/2014  23:45:00     -209.773      241.229      -54.538       89.608      112.857       53.733     8029.590    12736.710     2887.193        6.441        1.183      319.681       59.845        0.035      345.939       23.825      860.515
06/07/2014  23:46:00     -160.583      240.855      -40.608      102.449       95.757       54.864    10495.785     9169.488     3010.103        5.406        1.134      289.479       53.107        0.034      345.868       23.701      860.510
06/07/2014  23:47:00     -209.775      259.924      -44.443      104.338      127.552       60.544    10886.516    16269.410     3665.519        7.218        1.541      334.015       63.344        0.036      345.916       23.784      860.522
06/07/2014  23:48:00     -210.551      236.686      -43.778      109.692      118.359       61.097    12032.286    14008.905     3732.856        6.602        1.489      316.783       62.831        0.039      345.903       23.763      860.529
06/07/2014  23:49:00     -263.776      259.377      -56.797      113.515      122.428       71.383    12885.671    14988.582     5095.495        8.652        1.648      369.939       65.713        0.032      345.953       23.849      860.522
06/07/2014  23:50:00     -192.219      242.554      -35.533      132.279      133.549       76.030    17497.642    17835.370     5780.527        6.907        2.056      309.484       72.757        0.055      345.898       23.754      860.524
06/07/2014  23:51:00     -206.466      205.996      -46.694      109.157      114.411       60.445    11915.230    13089.976     3653.616        5.795        1.433      291.655       68.719        0.056      345.833       23.643      860.537
06/07/2014  23:52:00     -227.281      285.408      -53.668      112.966      110.853       71.527    12761.237    12288.497     5116.066        8.307        1.508      364.849       63.107        0.030      345.840       23.654      860.552
06/07/2014  23:53:00     -199.891      221.181      -42.065       81.026      115.568       58.919     6565.244    13355.922     3471.471        5.702        1.170      298.123       49.535        0.028      345.815       23.610      860.543
06/07/2014  23:54:00     -201.344      143.655      -23.655       87.619      107.043       51.029     7677.007    11458.254     2604.002        4.173        1.087      247.338       55.094        0.050      345.787       23.564      860.555
06/07/2014  23:55:00     -140.313      308.097      -30.074       87.115      113.090       60.800     7589.059    12789.275     3696.648        6.979        1.204      338.543       44.978        0.018      345.732       23.467      860.561
06/07/2014  23:56:00     -192.274      269.996      -43.712      101.228      138.195       68.290    10247.170    19097.731     4663.543        7.289        1.700      331.462       68.499        0.043      345.795       23.577      860.563
06/07/2014  23:57:00     -182.890      216.666      -39.791       89.999      110.913       54.294     8099.877    12301.775     2947.833        5.266        1.167      283.537       68.512        0.058      345.821       23.623      860.568
06/07/2014  23:58:00     -204.788      210.214      -42.484       86.340       90.406       55.389     7454.661     8173.230     3067.927        5.331        0.935      293.476       55.069        0.035      345.788       23.567      860.577
06/07/2014  23:59:00     -142.394      212.343      -28.492       72.284       98.657       59.172     5224.965     9733.287     3501.340        4.231        0.923      255.667       41.896        0.027      345.722       23.453      860.577
